Wetterdaten: Samstag, 29.04.2017
Datum Zeit Temp. A. Pool Temp. Feuchte A. Luftdruck Regen Wind Richtung Richtung Sonnenschein ET UV Solar Taupunkt Windchill Windben Empfang
29.04.2017 00:00 2,5 C 8,3 C 96 % 1017,4 hPa 0,0 l/m 13,3 km/h (3 Bft) W-SW 240 0 min 0,000 mm 0,0 UV-I 0 W/m 1,9 C -3,0 C 19,3 km/h (3 Bft) 95,45 %
29.04.2017 00:02 2,5 C 8,3 C 96 % 1017,5 hPa 0,0 l/m 13,0 km/h (3 Bft) W-SW 243 0 min 0,000 mm 0,0 UV-I 0 W/m 1,9 C -2,8 C 17,7 km/h (3 Bft) 9,52 %
29.04.2017 00:04 2,6 C 8,3 C 96 % 1017,5 hPa 0,0 l/m 10,5 km/h (2 Bft) S-SW 210 0 min 0,000 mm 0,0 UV-I 0 W/m 2,0 C -1,0 C 17,7 km/h (3 Bft) 88,57 %
29.04.2017 00:06 2,6 C 8,3 C 96 % 1017,6 hPa 0,0 l/m 10,9 km/h (2 Bft) S-SW 195 0 min 0,000 mm 0,0 UV-I 0 W/m 2,0 C -1,2 C 16,1 km/h (3 Bft) 94,64 %
29.04.2017 00:08 2,6 C 8,3 C 96 % 1017,6 hPa 0,0 l/m 13,6 km/h (3 Bft) W-SW 241 0 min 0,000 mm 0,0 UV-I 0 W/m 2,0 C -3,0 C 20,9 km/h (4 Bft) 97,87 %
29.04.2017 00:10 2,6 C 8,3 C 96 % 1017,6 hPa 0,0 l/m 12,3 km/h (3 Bft) SW 234 0 min 0,000 mm 0,0 UV-I 0 W/m 2,0 C -2,2 C 20,9 km/h (4 Bft) 92,68 %
29.04.2017 00:12 2,6 C 8,3 C 96 % 1017,6 hPa 0,0 l/m 10,4 km/h (2 Bft) W-SW 249 0 min 0,000 mm 0,0 UV-I 0 W/m 2,0 C -0,9 C 16,1 km/h (3 Bft) 92,45 %
29.04.2017 00:14 2,6 C 8,3 C 96 % 1017,7 hPa 0,0 l/m 11,9 km/h (2 Bft) W-SW 251 0 min 0,000 mm 0,0 UV-I 0 W/m 2,0 C -1,9 C 17,7 km/h (3 Bft) 97,62 %
29.04.2017 00:16 2,6 C 8,3 C 96 % 1017,6 hPa 0,0 l/m 11,1 km/h (2 Bft) W-SW 248 0 min 0,000 mm 0,0 UV-I 0 W/m 2,0 C -1,4 C 19,3 km/h (3 Bft) 95,12 %
29.04.2017 00:18 2,6 C 8,3 C 96 % 1017,7 hPa 0,0 l/m 15,1 km/h (3 Bft) W-SW 243 0 min 0,000 mm 0,0 UV-I 0 W/m 2,0 C -3,9 C 22,5 km/h (4 Bft) 96,43 %
29.04.2017 00:20 2,6 C 8,3 C 96 % 1017,7 hPa 0,0 l/m 14,3 km/h (3 Bft) S-SW 202 0 min 0,000 mm 0,0 UV-I 0 W/m 2,0 C -3,4 C 20,9 km/h (4 Bft) 95,12 %
29.04.2017 00:22 2,6 C 8,3 C 96 % 1017,7 hPa 0,0 l/m 11,8 km/h (2 Bft) SW 235 0 min 0,000 mm 0,0 UV-I 0 W/m 2,0 C -1,9 C 19,3 km/h (3 Bft) 98,00 %
29.04.2017 00:24 2,6 C 8,3 C 96 % 1017,7 hPa 0,0 l/m 10,1 km/h (2 Bft) W-SW 252 0 min 0,000 mm 0,0 UV-I 0 W/m 2,0 C -0,7 C 20,9 km/h (4 Bft) 96,00 %
29.04.2017 00:26 2,6 C 8,3 C 95 % 1017,7 hPa 0,0 l/m 11,3 km/h (2 Bft) W-SW 238 0 min 0,000 mm 0,0 UV-I 0 W/m 1,9 C -1,5 C 16,1 km/h (3 Bft) 97,73 %
29.04.2017 00:29 2,7 C 8,3 C 95 % 1017,7 hPa 0,0 l/m 12,2 km/h (2 Bft) SW 234 0 min 0,000 mm 0,0 UV-I 0 W/m 2,0 C -2,0 C 22,5 km/h (4 Bft) 98,57 %
29.04.2017 00:30 2,7 C 8,3 C 95 % 1017,7 hPa 0,0 l/m 11,7 km/h (2 Bft) W-SW 246 0 min 0,000 mm 0,0 UV-I 0 W/m 2,0 C -1,7 C 19,3 km/h (3 Bft) 100,00 %
29.04.2017 00:32 2,7 C 8,3 C 95 % 1017,7 hPa 0,0 l/m 11,9 km/h (2 Bft) S-SW 207 0 min 0,000 mm 0,0 UV-I 0 W/m 2,0 C -1,8 C 16,1 km/h (3 Bft) 98,11 %
29.04.2017 00:34 2,7 C 8,3 C 95 % 1017,8 hPa 0,0 l/m 12,8 km/h (3 Bft) SW 226 0 min 0,000 mm 0,0 UV-I 0 W/m 2,0 C -2,4 C 20,9 km/h (4 Bft) 100,00 %
29.04.2017 00:36 2,7 C 8,3 C 95 % 1017,8 hPa 0,0 l/m 12,7 km/h (3 Bft) SW 234 0 min 0,000 mm 0,0 UV-I 0 W/m 2,0 C -2,3 C 19,3 km/h (3 Bft) 96,23 %
29.04.2017 00:38 2,7 C 8,3 C 95 % 1017,8 hPa 0,0 l/m 13,3 km/h (3 Bft) SW 226 0 min 0,000 mm 0,0 UV-I 0 W/m 2,0 C -2,7 C 20,9 km/h (4 Bft) 96,23 %
29.04.2017 00:40 2,7 C 8,3 C 95 % 1017,8 hPa 0,0 l/m 10,8 km/h (2 Bft) SW 229 0 min 0,000 mm 0,0 UV-I 0 W/m 2,0 C -1,1 C 17,7 km/h (3 Bft) 100,00 %
29.04.2017 00:42 2,7 C 8,3 C 95 % 1017,8 hPa 0,0 l/m 9,3 km/h (2 Bft) SW 233 0 min 0,000 mm 0,0 UV-I 0 W/m 2,0 C 0,1 C 12,9 km/h (3 Bft) 100,00 %
29.04.2017 00:44 2,7 C 8,3 C 95 % 1017,8 hPa 0,0 l/m 11,9 km/h (2 Bft) SW 217 0 min 0,000 mm 0,0 UV-I 0 W/m 2,0 C -1,8 C 19,3 km/h (3 Bft) 100,00 %
29.04.2017 00:46 2,7 C 8,3 C 95 % 1017,8 hPa 0,0 l/m 8,9 km/h (2 Bft) W-SW 249 0 min 0,000 mm 0,0 UV-I 0 W/m 2,0 C 0,4 C 14,5 km/h (3 Bft) 100,00 %
29.04.2017 00:48 2,7 C 8,3 C 95 % 1017,8 hPa 0,0 l/m 6,8 km/h (2 Bft) W-SW 238 0 min 0,000 mm 0,0 UV-I 0 W/m 2,0 C 2,3 C 14,5 km/h (3 Bft) 100,00 %
29.04.2017 00:50 2,7 C 8,3 C 95 % 1017,8 hPa 0,0 l/m 9,6 km/h (2 Bft) SW 229 0 min 0,000 mm 0,0 UV-I 0 W/m 2,0 C -0,2 C 16,1 km/h (3 Bft) 97,56 %
29.04.2017 00:52 2,7 C 8,3 C 95 % 1017,9 hPa 0,0 l/m 10,2 km/h (2 Bft) SW 221 0 min 0,000 mm 0,0 UV-I 0 W/m 2,0 C -0,6 C 16,1 km/h (3 Bft) 100,00 %
29.04.2017 00:54 2,8 C 8,3 C 95 % 1017,8 hPa 0,0 l/m 8,1 km/h (2 Bft) W-SW 238 0 min 0,000 mm 0,0 UV-I 0 W/m 2,1 C 1,2 C 12,9 km/h (3 Bft) 97,44 %
29.04.2017 00:56 2,8 C 8,3 C 95 % 1017,8 hPa 0,0 l/m 11,8 km/h (2 Bft) SW 225 0 min 0,000 mm 0,0 UV-I 0 W/m 2,1 C -1,6 C 17,7 km/h (3 Bft) 100,00 %
29.04.2017 00:59 2,8 C 8,3 C 95 % 1017,9 hPa 0,0 l/m 9,2 km/h (2 Bft) W-SW 242 0 min 0,000 mm 0,0 UV-I 0 W/m 2,1 C 0,3 C 16,1 km/h (3 Bft) 97,47 %
29.04.2017 01:00 2,8 C 8,3 C 95 % 1017,9 hPa 0,0 l/m 9,8 km/h (2 Bft) W-SW 246 0 min 0,000 mm 0,0 UV-I 0 W/m 2,1 C -0,2 C 12,9 km/h (3 Bft) 100,00 %
29.04.2017 01:02 2,8 C 8,3 C 95 % 1017,9 hPa 0,0 l/m 7,9 km/h (2 Bft) SW 222 0 min 0,000 mm 0,0 UV-I 0 W/m 2,1 C 1,4 C 12,9 km/h (3 Bft) 95,45 %
29.04.2017 01:04 2,8 C 8,3 C 95 % 1017,9 hPa 0,0 l/m 10,0 km/h (2 Bft) W-SW 252 0 min 0,000 mm 0,0 UV-I 0 W/m 2,1 C -0,4 C 14,5 km/h (3 Bft) 98,31 %
29.04.2017 01:06 2,8 C 8,3 C 95 % 1017,8 hPa 0,0 l/m 11,9 km/h (2 Bft) W-SW 239 0 min 0,000 mm 0,0 UV-I 0 W/m 2,1 C -1,7 C 19,3 km/h (3 Bft) 100,00 %
29.04.2017 01:08 2,8 C 8,3 C 95 % 1017,8 hPa 0,0 l/m 9,9 km/h (2 Bft) W-SW 239 0 min 0,000 mm 0,0 UV-I 0 W/m 2,1 C -0,3 C 16,1 km/h (3 Bft) 97,37 %
29.04.2017 01:10 2,8 C 8,3 C 95 % 1017,8 hPa 0,0 l/m 8,9 km/h (2 Bft) SW 231 0 min 0,000 mm 0,0 UV-I 0 W/m 2,1 C 0,5 C 14,5 km/h (3 Bft) 100,00 %
29.04.2017 01:12 2,8 C 8,3 C 95 % 1017,8 hPa 0,0 l/m 13,5 km/h (3 Bft) SW 236 0 min 0,000 mm 0,0 UV-I 0 W/m 2,1 C -2,7 C 19,3 km/h (3 Bft) 98,00 %
29.04.2017 01:14 2,8 C 8,3 C 95 % 1017,9 hPa 0,0 l/m 11,5 km/h (2 Bft) W-SW 250 0 min 0,000 mm 0,0 UV-I 0 W/m 2,1 C -1,4 C 17,7 km/h (3 Bft) 97,87 %
29.04.2017 01:16 2,8 C 8,3 C 95 % 1017,9 hPa 0,0 l/m 11,8 km/h (2 Bft) S-SW 212 0 min 0,000 mm 0,0 UV-I 0 W/m 2,1 C -1,6 C 17,7 km/h (3 Bft) 100,00 %
29.04.2017 01:19 2,9 C 8,3 C 95 % 1017,8 hPa 0,0 l/m 12,5 km/h (3 Bft) S-SW 198 0 min 0,000 mm 0,0 UV-I 0 W/m 2,2 C -2,0 C 22,5 km/h (4 Bft) 97,40 %
29.04.2017 01:20 2,9 C 8,3 C 95 % 1017,8 hPa 0,0 l/m 11,6 km/h (2 Bft) SW 229 0 min 0,000 mm 0,0 UV-I 0 W/m 2,2 C -1,4 C 16,1 km/h (3 Bft) 90,91 %
29.04.2017 01:22 2,9 C 8,3 C 95 % 1017,8 hPa 0,0 l/m 13,1 km/h (3 Bft) W 272 0 min 0,000 mm 0,0 UV-I 0 W/m 2,2 C -2,4 C 20,9 km/h (4 Bft) 100,00 %
29.04.2017 01:24 2,9 C 8,3 C 95 % 1017,8 hPa 0,0 l/m 14,3 km/h (3 Bft) SW 219 0 min 0,000 mm 0,0 UV-I 0 W/m 2,2 C -3,1 C 19,3 km/h (3 Bft) 98,00 %
29.04.2017 01:26 2,9 C 8,3 C 95 % 1017,9 hPa 0,0 l/m 12,9 km/h (3 Bft) W-SW 248 0 min 0,000 mm 0,0 UV-I 0 W/m 2,2 C -2,2 C 19,3 km/h (3 Bft) 98,11 %
29.04.2017 01:28 2,9 C 8,3 C 95 % 1017,9 hPa 0,0 l/m 15,2 km/h (3 Bft) W-SW 240 0 min 0,000 mm 0,0 UV-I 0 W/m 2,2 C -3,6 C 20,9 km/h (4 Bft) 100,00 %
29.04.2017 01:31 2,9 C 8,3 C 95 % 1017,9 hPa 0,0 l/m 12,7 km/h (3 Bft) W 273 0 min 0,000 mm 0,0 UV-I 0 W/m 2,2 C -2,1 C 19,3 km/h (3 Bft) 98,59 %
29.04.2017 01:32 2,9 C 8,3 C 95 % 1017,8 hPa 0,0 l/m 14,0 km/h (3 Bft) W-SW 243 0 min 0,000 mm 0,0 UV-I 0 W/m 2,2 C -2,9 C 20,9 km/h (4 Bft) 100,00 %
29.04.2017 01:36 2,9 C 8,3 C 95 % 1017,8 hPa 0,0 l/m 11,3 km/h (2 Bft) SW 219 0 min 0,000 mm 0,0 UV-I 0 W/m 2,2 C -1,2 C 19,3 km/h (3 Bft) 100,00 %
29.04.2017 01:38 2,9 C 8,3 C 95 % 1017,9 hPa 0,0 l/m 13,3 km/h (3 Bft) W-SW 244 0 min 0,000 mm 0,0 UV-I 0 W/m 2,2 C -2,5 C 19,3 km/h (3 Bft) 98,00 %
29.04.2017 01:40 2,9 C 8,3 C 95 % 1017,9 hPa 0,0 l/m 13,3 km/h (3 Bft) SW 236 0 min 0,000 mm 0,0 UV-I 0 W/m 2,2 C -2,5 C 22,5 km/h (4 Bft) 95,74 %
29.04.2017 01:42 2,9 C 8,3 C 95 % 1017,9 hPa 0,0 l/m 14,0 km/h (3 Bft) SW 232 0 min 0,000 mm 0,0 UV-I 0 W/m 2,2 C -2,9 C 17,7 km/h (3 Bft) 97,56 %
29.04.2017 01:44 2,9 C 8,3 C 95 % 1017,9 hPa 0,0 l/m 14,4 km/h (3 Bft) W-SW 240 0 min 0,000 mm 0,0 UV-I 0 W/m 2,2 C -3,1 C 20,9 km/h (4 Bft) 94,34 %
29.04.2017 01:46 2,9 C 8,3 C 95 % 1017,9 hPa 0,0 l/m 13,5 km/h (3 Bft) S-SW 213 0 min 0,000 mm 0,0 UV-I 0 W/m 2,2 C -2,6 C 17,7 km/h (3 Bft) 94,87 %
29.04.2017 01:48 2,9 C 8,3 C 95 % 1017,9 hPa 0,0 l/m 13,3 km/h (3 Bft) SW 236 0 min 0,000 mm 0,0 UV-I 0 W/m 2,2 C -2,5 C 19,3 km/h (3 Bft) 97,96 %
29.04.2017 01:50 2,9 C 8,3 C 95 % 1017,9 hPa 0,0 l/m 13,6 km/h (3 Bft) SW 236 0 min 0,000 mm 0,0 UV-I 0 W/m 2,2 C -2,7 C 17,7 km/h (3 Bft) 97,92 %
29.04.2017 01:52 2,9 C 8,3 C 95 % 1017,9 hPa 0,0 l/m 13,3 km/h (3 Bft) W-SW 252 0 min 0,000 mm 0,0 UV-I 0 W/m 2,2 C -2,5 C 19,3 km/h (3 Bft) 97,62 %
29.04.2017 01:54 2,9 C 8,3 C 95 % 1018,0 hPa 0,0 l/m 12,7 km/h (3 Bft) SW 231 0 min 0,000 mm 0,0 UV-I 0 W/m 2,2 C -2,1 C 17,7 km/h (3 Bft) 98,21 %
29.04.2017 01:56 2,9 C 8,3 C 95 % 1017,9 hPa 0,0 l/m 13,6 km/h (3 Bft) W-SW 240 0 min 0,000 mm 0,0 UV-I 0 W/m 2,2 C -2,7 C 19,3 km/h (3 Bft) 95,45 %
29.04.2017 01:59 2,9 C 8,3 C 95 % 1017,9 hPa 0,2 l/m 13,2 km/h (3 Bft) W 267 0 min 0,000 mm 0,0 UV-I 0 W/m 2,2 C -2,4 C 19,3 km/h (3 Bft) 93,42 %
29.04.2017 02:00 2,9 C 8,3 C 95 % 1017,9 hPa 0,0 l/m 10,1 km/h (2 Bft) W 263 0 min 0,000 mm 0,0 UV-I 0 W/m 2,2 C -0,3 C 14,5 km/h (3 Bft) 100,00 %
29.04.2017 02:02 2,9 C 8,3 C 95 % 1017,9 hPa 0,0 l/m 11,2 km/h (2 Bft) W-SW 254 0 min 0,000 mm 0,0 UV-I 0 W/m 2,2 C -1,1 C 17,7 km/h (3 Bft) 94,00 %
29.04.2017 02:04 2,9 C 8,3 C 95 % 1018,0 hPa 0,2 l/m 11,6 km/h (2 Bft) SW 236 0 min 0,000 mm 0,0 UV-I 0 W/m 2,2 C -1,4 C 19,3 km/h (3 Bft) 90,00 %
29.04.2017 02:06 2,9 C 8,3 C 95 % 1018,0 hPa 0,0 l/m 12,6 km/h (3 Bft) W 263 0 min 0,000 mm 0,0 UV-I 0 W/m 2,2 C -2,1 C 19,3 km/h (3 Bft) 92,68 %
29.04.2017 02:08 2,9 C 8,3 C 95 % 1018,0 hPa 0,0 l/m 11,8 km/h (2 Bft) SW 230 0 min 0,000 mm 0,0 UV-I 0 W/m 2,2 C -1,5 C 17,7 km/h (3 Bft) 91,07 %
29.04.2017 02:10 2,9 C 8,3 C 95 % 1018,0 hPa 0,0 l/m 10,9 km/h (2 Bft) SW 229 0 min 0,000 mm 0,0 UV-I 0 W/m 2,2 C -0,9 C 16,1 km/h (3 Bft) 95,45 %
29.04.2017 02:12 2,8 C 8,3 C 95 % 1018,0 hPa 0,0 l/m 12,1 km/h (2 Bft) SW 227 0 min 0,000 mm 0,0 UV-I 0 W/m 2,1 C -1,8 C 17,7 km/h (3 Bft) 92,68 %
29.04.2017 02:14 2,8 C 8,3 C 95 % 1018,1 hPa 0,0 l/m 14,7 km/h (3 Bft) W-SW 250 0 min 0,000 mm 0,0 UV-I 0 W/m 2,1 C -3,4 C 19,3 km/h (3 Bft) 92,00 %
29.04.2017 02:16 2,8 C 8,3 C 95 % 1018,1 hPa 0,2 l/m 10,9 km/h (2 Bft) SW 219 0 min 0,000 mm 0,0 UV-I 0 W/m 2,1 C -1,0 C 17,7 km/h (3 Bft) 93,75 %
29.04.2017 02:18 2,8 C 8,3 C 95 % 1018,1 hPa 0,0 l/m 12,9 km/h (3 Bft) W-SW 244 0 min 0,000 mm 0,0 UV-I 0 W/m 2,1 C -2,4 C 19,3 km/h (3 Bft) 91,67 %
29.04.2017 02:20 2,8 C 8,3 C 95 % 1018,0 hPa 0,2 l/m 12,0 km/h (2 Bft) SW 223 0 min 0,000 mm 0,0 UV-I 0 W/m 2,1 C -1,8 C 17,7 km/h (3 Bft) 92,86 %
29.04.2017 02:22 2,8 C 8,3 C 95 % 1018,0 hPa 0,0 l/m 10,1 km/h (2 Bft) W-SW 256 0 min 0,000 mm 0,0 UV-I 0 W/m 2,1 C -0,4 C 16,1 km/h (3 Bft) 92,68 %
29.04.2017 02:24 2,8 C 8,3 C 95 % 1018,0 hPa 0,0 l/m 11,3 km/h (2 Bft) S-SW 207 0 min 0,000 mm 0,0 UV-I 0 W/m 2,1 C -1,3 C 16,1 km/h (3 Bft) 96,43 %
29.04.2017 02:26 2,8 C 8,3 C 95 % 1018,0 hPa 0,0 l/m 9,8 km/h (2 Bft) SW 235 0 min 0,000 mm 0,0 UV-I 0 W/m 2,1 C -0,2 C 12,9 km/h (3 Bft) 90,91 %
29.04.2017 02:28 2,8 C 8,3 C 95 % 1018,0 hPa 0,2 l/m 13,1 km/h (3 Bft) S-SW 205 0 min 0,000 mm 0,0 UV-I 0 W/m 2,1 C -2,5 C 17,7 km/h (3 Bft) 97,44 %
29.04.2017 02:30 2,8 C 8,3 C 95 % 1018,0 hPa 0,0 l/m 10,3 km/h (2 Bft) SW 223 0 min 0,000 mm 0,0 UV-I 0 W/m 2,1 C -0,6 C 16,1 km/h (3 Bft) 92,00 %
29.04.2017 02:32 2,9 C 8,3 C 95 % 1018,0 hPa 0,0 l/m 10,0 km/h (2 Bft) SW 225 0 min 0,000 mm 0,0 UV-I 0 W/m 2,2 C -0,2 C 17,7 km/h (3 Bft) 93,62 %
29.04.2017 02:34 2,8 C 8,3 C 95 % 1018,0 hPa 0,0 l/m 9,5 km/h (2 Bft) SW 217 0 min 0,000 mm 0,0 UV-I 0 W/m 2,1 C 0,0 C 16,1 km/h (3 Bft) 96,00 %
29.04.2017 02:36 2,8 C 8,3 C 95 % 1018,0 hPa 0,2 l/m 8,7 km/h (2 Bft) S-SW 198 0 min 0,000 mm 0,0 UV-I 0 W/m 2,1 C 0,7 C 16,1 km/h (3 Bft) 98,11 %
29.04.2017 02:38 2,8 C 8,3 C 95 % 1018,0 hPa 0,0 l/m 8,1 km/h (2 Bft) S-SW 199 0 min 0,000 mm 0,0 UV-I 0 W/m 2,1 C 1,2 C 12,9 km/h (3 Bft) 94,74 %
29.04.2017 02:40 2,9 C 8,3 C 95 % 1018,0 hPa 0,0 l/m 8,3 km/h (2 Bft) SW 236 0 min 0,000 mm 0,0 UV-I 0 W/m 2,2 C 1,1 C 14,5 km/h (3 Bft) 98,00 %
29.04.2017 02:42 2,9 C 8,3 C 95 % 1018,0 hPa 0,0 l/m 7,6 km/h (2 Bft) S-SW 212 0 min 0,000 mm 0,0 UV-I 0 W/m 2,2 C 1,8 C 12,9 km/h (3 Bft) 94,34 %
29.04.2017 02:44 2,9 C 8,3 C 95 % 1018,0 hPa 0,0 l/m 8,0 km/h (2 Bft) S-SW 212 0 min 0,000 mm 0,0 UV-I 0 W/m 2,2 C 1,4 C 12,9 km/h (3 Bft) 97,37 %
29.04.2017 02:46 2,9 C 8,3 C 96 % 1018,0 hPa 0,0 l/m 8,1 km/h (2 Bft) S-SW 202 0 min 0,000 mm 0,0 UV-I 0 W/m 2,3 C 1,3 C 12,9 km/h (3 Bft) 95,83 %
29.04.2017 02:48 2,9 C 8,3 C 96 % 1018,0 hPa 0,0 l/m 9,3 km/h (2 Bft) S-SW 201 0 min 0,000 mm 0,0 UV-I 0 W/m 2,3 C 0,3 C 14,5 km/h (3 Bft) 97,87 %
29.04.2017 02:50 2,9 C 8,3 C 96 % 1018,0 hPa 0,0 l/m 7,8 km/h (2 Bft) S-SW 192 0 min 0,000 mm 0,0 UV-I 0 W/m 2,3 C 1,6 C 12,9 km/h (3 Bft) 100,00 %
29.04.2017 02:52 2,9 C 8,3 C 96 % 1018,1 hPa 0,0 l/m 10,4 km/h (2 Bft) S-SW 210 0 min 0,000 mm 0,0 UV-I 0 W/m 2,3 C -0,5 C 17,7 km/h (3 Bft) 94,00 %
29.04.2017 02:54 2,9 C 8,3 C 96 % 1018,1 hPa 0,0 l/m 9,7 km/h (2 Bft) SW 214 0 min 0,000 mm 0,0 UV-I 0 W/m 2,3 C -0,0 C 14,5 km/h (3 Bft) 100,00 %
29.04.2017 02:56 2,9 C 8,3 C 96 % 1018,1 hPa 0,0 l/m 9,4 km/h (2 Bft) S-SW 196 0 min 0,000 mm 0,0 UV-I 0 W/m 2,3 C 0,2 C 14,5 km/h (3 Bft) 97,73 %
29.04.2017 02:58 2,9 C 8,3 C 96 % 1018,1 hPa 0,0 l/m 8,8 km/h (2 Bft) SW 218 0 min 0,000 mm 0,0 UV-I 0 W/m 2,3 C 0,7 C 14,5 km/h (3 Bft) 98,21 %
29.04.2017 03:00 2,9 C 8,3 C 96 % 1018,1 hPa 0,0 l/m 7,3 km/h (2 Bft) SW 218 0 min 0,000 mm 0,0 UV-I 0 W/m 2,3 C 2,0 C 14,5 km/h (3 Bft) 91,49 %
29.04.2017 03:02 3,0 C 8,3 C 95 % 1018,1 hPa 0,0 l/m 8,0 km/h (2 Bft) SW 218 0 min 0,000 mm 0,0 UV-I 0 W/m 2,3 C 1,5 C 14,5 km/h (3 Bft) 94,74 %
29.04.2017 03:04 3,0 C 8,3 C 95 % 1018,1 hPa 0,0 l/m 6,7 km/h (2 Bft) SW 235 0 min 0,000 mm 0,0 UV-I 0 W/m 2,3 C 2,7 C 11,3 km/h (2 Bft) 100,00 %
29.04.2017 03:06 2,9 C 8,3 C 95 % 1018,1 hPa 0,0 l/m 8,3 km/h (2 Bft) SW 236 0 min 0,000 mm 0,0 UV-I 0 W/m 2,2 C 1,1 C 16,1 km/h (3 Bft) 97,62 %
29.04.2017 03:08 3,0 C 8,3 C 95 % 1018,1 hPa 0,0 l/m 9,9 km/h (2 Bft) SW 225 0 min 0,000 mm 0,0 UV-I 0 W/m 2,3 C -0,1 C 16,1 km/h (3 Bft) 98,08 %
29.04.2017 03:10 3,0 C 8,3 C 95 % 1018,1 hPa 0,0 l/m 8,0 km/h (2 Bft) S-SW 212 0 min 0,000 mm 0,0 UV-I 0 W/m 2,3 C 1,5 C 12,9 km/h (3 Bft) 97,62 %
29.04.2017 03:12 3,0 C 8,3 C 95 % 1018,2 hPa 0,0 l/m 12,2 km/h (2 Bft) SW 236 0 min 0,000 mm 0,0 UV-I 0 W/m 2,3 C -1,7 C 17,7 km/h (3 Bft) 100,00 %
29.04.2017 03:14 3,0 C 8,3 C 95 % 1018,2 hPa 0,0 l/m 8,8 km/h (2 Bft) W 265 0 min 0,000 mm 0,0 UV-I 0 W/m 2,3 C 0,8 C 16,1 km/h (3 Bft) 98,00 %
29.04.2017 03:16 3,0 C 8,3 C 95 % 1018,2 hPa 0,0 l/m 9,0 km/h (2 Bft) SW 234 0 min 0,000 mm 0,0 UV-I 0 W/m 2,3 C 0,6 C 12,9 km/h (3 Bft) 100,00 %
29.04.2017 03:18 3,1 C 8,3 C 95 % 1018,2 hPa 0,0 l/m 10,0 km/h (2 Bft) S-SW 200 0 min 0,000 mm 0,0 UV-I 0 W/m 2,4 C -0,0 C 14,5 km/h (3 Bft) 100,00 %
29.04.2017 03:20 3,1 C 8,3 C 95 % 1018,2 hPa 0,0 l/m 8,8 km/h (2 Bft) SW 217 0 min 0,000 mm 0,0 UV-I 0 W/m 2,4 C 0,9 C 14,5 km/h (3 Bft) 100,00 %
29.04.2017 03:22 3,0 C 8,3 C 95 % 1018,1 hPa 0,0 l/m 10,1 km/h (2 Bft) W-SW 243 0 min 0,000 mm 0,0 UV-I 0 W/m 2,3 C -0,2 C 14,5 km/h (3 Bft) 100,00 %
29.04.2017 03:24 3,1 C 8,3 C 95 % 1018,1 hPa 0,0 l/m 9,0 km/h (2 Bft) SW 227 0 min 0,000 mm 0,0 UV-I 0 W/m 2,4 C 0,8 C 12,9 km/h (3 Bft) 96,61 %
29.04.2017 03:26 3,1 C 8,3 C 95 % 1018,1 hPa 0,0 l/m 7,9 km/h (2 Bft) W-SW 239 0 min 0,000 mm 0,0 UV-I 0 W/m 2,4 C 1,7 C 12,9 km/h (3 Bft) 100,00 %
29.04.2017 03:28 3,1 C 8,3 C 95 % 1018,2 hPa 0,0 l/m 7,6 km/h (2 Bft) W-SW 239 0 min 0,000 mm 0,0 UV-I 0 W/m 2,4 C 2,0 C 11,3 km/h (2 Bft) 97,37 %
29.04.2017 03:30 3,1 C 8,3 C 95 % 1018,2 hPa 0,0 l/m 7,7 km/h (2 Bft) SW 236 0 min 0,000 mm 0,0 UV-I 0 W/m 2,4 C 1,9 C 12,9 km/h (3 Bft) 98,00 %
29.04.2017 03:32 3,0 C 8,3 C 95 % 1018,2 hPa 0,0 l/m 8,0 km/h (2 Bft) SW 232 0 min 0,000 mm 0,0 UV-I 0 W/m 2,3 C 1,5 C 14,5 km/h (3 Bft) 96,00 %
29.04.2017 03:34 3,0 C 8,3 C 95 % 1018,2 hPa 0,0 l/m 8,4 km/h (2 Bft) SW 235 0 min 0,000 mm 0,0 UV-I 0 W/m 2,3 C 1,2 C 11,3 km/h (2 Bft) 96,00 %
29.04.2017 03:36 3,0 C 8,3 C 95 % 1018,2 hPa 0,0 l/m 7,4 km/h (2 Bft) SW 225 0 min 0,000 mm 0,0 UV-I 0 W/m 2,3 C 2,1 C 11,3 km/h (2 Bft) 100,00 %
29.04.2017 03:38 3,0 C 8,3 C 95 % 1018,3 hPa 0,0 l/m 8,9 km/h (2 Bft) SW 220 0 min 0,000 mm 0,0 UV-I 0 W/m 2,3 C 0,7 C 16,1 km/h (3 Bft) 98,00 %
29.04.2017 03:40 3,0 C 8,3 C 95 % 1018,2 hPa 0,0 l/m 9,5 km/h (2 Bft) W-SW 241 0 min 0,000 mm 0,0 UV-I 0 W/m 2,3 C 0,2 C 16,1 km/h (3 Bft) 98,00 %
29.04.2017 03:42 3,0 C 8,3 C 95 % 1018,2 hPa 0,0 l/m 9,5 km/h (2 Bft) SW 232 0 min 0,000 mm 0,0 UV-I 0 W/m 2,3 C 0,2 C 14,5 km/h (3 Bft) 97,37 %
29.04.2017 03:44 3,0 C 8,3 C 95 % 1018,2 hPa 0,0 l/m 10,4 km/h (2 Bft) W-SW 240 0 min 0,000 mm 0,0 UV-I 0 W/m 2,3 C -0,4 C 14,5 km/h (3 Bft) 100,00 %
29.04.2017 03:46 3,0 C 8,3 C 95 % 1018,2 hPa 0,0 l/m 7,7 km/h (2 Bft) SW 220 0 min 0,000 mm 0,0 UV-I 0 W/m 2,3 C 1,8 C 11,3 km/h (2 Bft) 98,00 %
29.04.2017 03:48 3,0 C 8,3 C 95 % 1018,3 hPa 0,0 l/m 8,8 km/h (2 Bft) SW 234 0 min 0,000 mm 0,0 UV-I 0 W/m 2,3 C 0,8 C 12,9 km/h (3 Bft) 97,44 %
29.04.2017 03:50 3,0 C 8,3 C 95 % 1018,3 hPa 0,0 l/m 7,9 km/h (2 Bft) W 269 0 min 0,000 mm 0,0 UV-I 0 W/m 2,3 C 1,6 C 12,9 km/h (3 Bft) 100,00 %
29.04.2017 03:52 3,0 C 8,3 C 95 % 1018,2 hPa 0,0 l/m 8,3 km/h (2 Bft) SW 236 0 min 0,000 mm 0,0 UV-I 0 W/m 2,3 C 1,2 C 11,3 km/h (2 Bft) 98,00 %
29.04.2017 03:54 3,0 C 8,3 C 95 % 1018,3 hPa 0,0 l/m 11,8 km/h (2 Bft) W-SW 243 0 min 0,000 mm 0,0 UV-I 0 W/m 2,3 C -1,4 C 14,5 km/h (3 Bft) 100,00 %
29.04.2017 03:56 3,0 C 8,3 C 95 % 1018,3 hPa 0,0 l/m 9,8 km/h (2 Bft) W-SW 257 0 min 0,000 mm 0,0 UV-I 0 W/m 2,3 C 0,0 C 16,1 km/h (3 Bft) 98,11 %
29.04.2017 03:58 3,0 C 8,3 C 95 % 1018,3 hPa 0,0 l/m 13,6 km/h (3 Bft) W 272 0 min 0,000 mm 0,0 UV-I 0 W/m 2,3 C -2,5 C 20,9 km/h (4 Bft) 100,00 %
29.04.2017 04:00 3,0 C 8,3 C 95 % 1018,3 hPa 0,0 l/m 13,2 km/h (3 Bft) W 263 0 min 0,000 mm 0,0 UV-I 0 W/m 2,3 C -2,3 C 17,7 km/h (3 Bft) 96,00 %
29.04.2017 04:02 3,0 C 8,3 C 95 % 1018,4 hPa 0,0 l/m 10,8 km/h (2 Bft) W 274 0 min 0,000 mm 0,0 UV-I 0 W/m 2,3 C -0,7 C 16,1 km/h (3 Bft) 98,11 %
29.04.2017 04:04 3,1 C 8,3 C 95 % 1018,4 hPa 0,0 l/m 11,8 km/h (2 Bft) W-SW 256 0 min 0,000 mm 0,0 UV-I 0 W/m 2,4 C -1,3 C 17,7 km/h (3 Bft) 94,29 %
29.04.2017 04:06 3,1 C 8,3 C 95 % 1018,4 hPa 0,0 l/m 12,3 km/h (3 Bft) W-NW 296 0 min 0,000 mm 0,0 UV-I 0 W/m 2,4 C -1,6 C 17,7 km/h (3 Bft) 96,43 %
29.04.2017 04:08 3,1 C 8,3 C 95 % 1018,4 hPa 0,0 l/m 9,9 km/h (2 Bft) W-SW 254 0 min 0,000 mm 0,0 UV-I 0 W/m 2,4 C 0,0 C 14,5 km/h (3 Bft) 97,56 %
29.04.2017 04:10 3,1 C 8,3 C 95 % 1018,4 hPa 0,0 l/m 10,3 km/h (2 Bft) W-SW 250 0 min 0,000 mm 0,0 UV-I 0 W/m 2,4 C -0,2 C 16,1 km/h (3 Bft) 96,23 %
29.04.2017 04:12 3,1 C 8,3 C 95 % 1018,5 hPa 0,0 l/m 11,0 km/h (2 Bft) W-SW 253 0 min 0,000 mm 0,0 UV-I 0 W/m 2,4 C -0,8 C 14,5 km/h (3 Bft) 100,00 %
29.04.2017 04:14 3,1 C 8,3 C 95 % 1018,5 hPa 0,0 l/m 10,2 km/h (2 Bft) W 261 0 min 0,000 mm 0,0 UV-I 0 W/m 2,4 C -0,2 C 14,5 km/h (3 Bft) 96,23 %
29.04.2017 04:16 3,1 C 8,3 C 95 % 1018,5 hPa 0,0 l/m 6,1 km/h (2 Bft) W 259 0 min 0,000 mm 0,0 UV-I 0 W/m 2,4 C 3,1 C 11,3 km/h (2 Bft) 95,74 %
29.04.2017 04:18 3,1 C 8,3 C 95 % 1018,4 hPa 0,2 l/m 10,2 km/h (2 Bft) W 265 0 min 0,000 mm 0,0 UV-I 0 W/m 2,4 C -0,2 C 14,5 km/h (3 Bft) 92,68 %
29.04.2017 04:20 3,1 C 8,3 C 95 % 1018,5 hPa 0,0 l/m 9,2 km/h (2 Bft) W-SW 252 0 min 0,000 mm 0,0 UV-I 0 W/m 2,4 C 0,6 C 14,5 km/h (3 Bft) 98,11 %
29.04.2017 04:22 3,1 C 8,3 C 95 % 1018,4 hPa 0,0 l/m 7,7 km/h (2 Bft) W-SW 240 0 min 0,000 mm 0,0 UV-I 0 W/m 2,4 C 1,9 C 12,9 km/h (3 Bft) 95,12 %
29.04.2017 04:24 3,1 C 8,3 C 95 % 1018,4 hPa 0,2 l/m 7,3 km/h (2 Bft) W-SW 246 0 min 0,000 mm 0,0 UV-I 0 W/m 2,4 C 2,2 C 12,9 km/h (3 Bft) 96,43 %
29.04.2017 04:26 3,1 C 8,3 C 95 % 1018,4 hPa 0,0 l/m 9,7 km/h (2 Bft) SW 225 0 min 0,000 mm 0,0 UV-I 0 W/m 2,4 C 0,2 C 12,9 km/h (3 Bft) 97,22 %
29.04.2017 04:28 3,1 C 8,3 C 95 % 1018,4 hPa 0,0 l/m 8,3 km/h (2 Bft) SW 227 0 min 0,000 mm 0,0 UV-I 0 W/m 2,4 C 1,3 C 12,9 km/h (3 Bft) 96,00 %
29.04.2017 04:30 3,1 C 8,3 C 95 % 1018,4 hPa 0,0 l/m 11,6 km/h (2 Bft) SW 234 0 min 0,000 mm 0,0 UV-I 0 W/m 2,4 C -1,2 C 16,1 km/h (3 Bft) 92,45 %
29.04.2017 04:32 3,1 C 8,3 C 95 % 1018,4 hPa 0,0 l/m 8,1 km/h (2 Bft) SW 234 0 min 0,000 mm 0,0 UV-I 0 W/m 2,4 C 1,5 C 12,9 km/h (3 Bft) 95,45 %
29.04.2017 04:34 3,1 C 8,3 C 95 % 1018,4 hPa 0,0 l/m 7,2 km/h (2 Bft) W-SW 241 0 min 0,000 mm 0,0 UV-I 0 W/m 2,4 C 2,3 C 12,9 km/h (3 Bft) 97,56 %
29.04.2017 04:36 3,1 C 8,3 C 95 % 1018,4 hPa 0,0 l/m 9,1 km/h (2 Bft) W 260 0 min 0,000 mm 0,0 UV-I 0 W/m 2,4 C 0,7 C 12,9 km/h (3 Bft) 96,43 %
29.04.2017 04:38 3,1 C 8,3 C 95 % 1018,4 hPa 0,0 l/m 7,0 km/h (2 Bft) W-SW 252 0 min 0,000 mm 0,0 UV-I 0 W/m 2,4 C 2,5 C 11,3 km/h (2 Bft) 93,18 %
29.04.2017 04:40 3,1 C 8,3 C 95 % 1018,4 hPa 0,0 l/m 6,3 km/h (2 Bft) W-SW 256 0 min 0,000 mm 0,0 UV-I 0 W/m 2,4 C 3,1 C 11,3 km/h (2 Bft) 97,73 %
29.04.2017 04:42 3,1 C 8,3 C 95 % 1018,4 hPa 0,0 l/m 7,7 km/h (2 Bft) SW 227 0 min 0,000 mm 0,0 UV-I 0 W/m 2,4 C 1,9 C 12,9 km/h (3 Bft) 97,87 %
29.04.2017 04:44 3,2 C 8,3 C 95 % 1018,4 hPa 0,0 l/m 7,0 km/h (2 Bft) W 269 0 min 0,000 mm 0,0 UV-I 0 W/m 2,5 C 2,6 C 9,7 km/h (2 Bft) 100,00 %
29.04.2017 04:46 3,2 C 8,3 C 95 % 1018,5 hPa 0,0 l/m 7,4 km/h (2 Bft) SW 217 0 min 0,000 mm 0,0 UV-I 0 W/m 2,5 C 2,3 C 11,3 km/h (2 Bft) 97,37 %
29.04.2017 04:48 3,2 C 8,3 C 95 % 1018,5 hPa 0,0 l/m 8,2 km/h (2 Bft) W 266 0 min 0,000 mm 0,0 UV-I 0 W/m 2,5 C 1,5 C 16,1 km/h (3 Bft) 98,00 %
29.04.2017 04:50 3,2 C 8,3 C 95 % 1018,5 hPa 0,0 l/m 5,9 km/h (2 Bft) SW 234 0 min 0,000 mm 0,0 UV-I 0 W/m 2,5 C 3,2 C 9,7 km/h (2 Bft) 100,00 %
29.04.2017 04:52 3,2 C 8,3 C 95 % 1018,5 hPa 0,0 l/m 7,3 km/h (2 Bft) W-SW 246 0 min 0,000 mm 0,0 UV-I 0 W/m 2,5 C 2,4 C 12,9 km/h (3 Bft) 98,00 %
29.04.2017 04:54 3,2 C 8,3 C 95 % 1018,5 hPa 0,0 l/m 8,1 km/h (2 Bft) W-SW 250 0 min 0,000 mm 0,0 UV-I 0 W/m 2,5 C 1,6 C 14,5 km/h (3 Bft) 98,00 %
29.04.2017 04:56 3,2 C 8,3 C 95 % 1018,6 hPa 0,0 l/m 8,3 km/h (2 Bft) W-SW 250 0 min 0,000 mm 0,0 UV-I 0 W/m 2,5 C 1,5 C 14,5 km/h (3 Bft) 98,00 %
29.04.2017 04:58 3,2 C 8,3 C 95 % 1018,6 hPa 0,0 l/m 5,0 km/h (1 Bft) W-NW 287 0 min 0,000 mm 0,0 UV-I 0 W/m 2,5 C 3,2 C 8,0 km/h (2 Bft) 100,00 %
29.04.2017 05:00 3,2 C 8,3 C 95 % 1018,6 hPa 0,0 l/m 5,6 km/h (1 Bft) SW 215 0 min 0,000 mm 0,0 UV-I 0 W/m 2,5 C 3,2 C 11,3 km/h (2 Bft) 96,43 %
29.04.2017 05:02 3,3 C 8,3 C 95 % 1018,6 hPa 0,0 l/m 4,8 km/h (1 Bft) W-SW 237 0 min 0,000 mm 0,0 UV-I 0 W/m 2,6 C 3,3 C 8,0 km/h (2 Bft) 97,87 %
29.04.2017 05:04 3,3 C 8,3 C 95 % 1018,6 hPa 0,0 l/m 5,0 km/h (1 Bft) SW 226 0 min 0,000 mm 0,0 UV-I 0 W/m 2,6 C 3,3 C 8,0 km/h (2 Bft) 100,00 %
29.04.2017 05:06 3,3 C 8,3 C 95 % 1018,6 hPa 0,0 l/m 4,5 km/h (1 Bft) SW 222 0 min 0,000 mm 0,0 UV-I 0 W/m 2,6 C 3,3 C 6,4 km/h (2 Bft) 100,00 %
29.04.2017 05:08 3,3 C 8,3 C 95 % 1018,6 hPa 0,0 l/m 5,2 km/h (1 Bft) SW 215 0 min 0,000 mm 0,0 UV-I 0 W/m 2,6 C 3,3 C 9,7 km/h (2 Bft) 100,00 %
29.04.2017 05:10 3,3 C 8,3 C 95 % 1018,6 hPa 0,0 l/m 4,9 km/h (1 Bft) W-SW 252 0 min 0,000 mm 0,0 UV-I 0 W/m 2,6 C 3,3 C 8,0 km/h (2 Bft) 98,11 %
29.04.2017 05:12 3,3 C 8,3 C 95 % 1018,7 hPa 0,0 l/m 6,3 km/h (2 Bft) W 261 0 min 0,000 mm 0,0 UV-I 0 W/m 2,6 C 3,3 C 9,7 km/h (2 Bft) 100,00 %
29.04.2017 05:14 3,3 C 8,3 C 95 % 1018,7 hPa 0,0 l/m 4,5 km/h (1 Bft) W-SW 254 0 min 0,000 mm 0,0 UV-I 0 W/m 2,6 C 3,3 C 8,0 km/h (2 Bft) 97,56 %
29.04.2017 05:16 3,3 C 8,3 C 95 % 1018,7 hPa 0,0 l/m 4,6 km/h (1 Bft) W-SW 258 0 min 0,000 mm 0,0 UV-I 0 W/m 2,6 C 3,3 C 6,4 km/h (2 Bft) 97,92 %
29.04.2017 05:18 3,3 C 8,3 C 95 % 1018,7 hPa 0,0 l/m 6,8 km/h (2 Bft) SW 234 0 min 0,000 mm 0,0 UV-I 0 W/m 2,6 C 2,9 C 12,9 km/h (3 Bft) 98,00 %
29.04.2017 05:20 3,3 C 8,3 C 95 % 1018,7 hPa 0,0 l/m 6,5 km/h (2 Bft) W-SW 254 0 min 0,000 mm 0,0 UV-I 0 W/m 2,6 C 3,2 C 9,7 km/h (2 Bft) 96,00 %
29.04.2017 05:22 3,3 C 8,3 C 95 % 1018,7 hPa 0,0 l/m 6,1 km/h (2 Bft) W-SW 254 0 min 0,000 mm 0,0 UV-I 0 W/m 2,6 C 3,3 C 8,0 km/h (2 Bft) 97,56 %
29.04.2017 05:24 3,3 C 8,3 C 95 % 1018,7 hPa 0,0 l/m 6,4 km/h (2 Bft) W-SW 240 0 min 0,000 mm 0,0 UV-I 0 W/m 2,6 C 3,3 C 9,7 km/h (2 Bft) 98,00 %
29.04.2017 05:26 3,3 C 8,3 C 95 % 1018,7 hPa 0,0 l/m 4,9 km/h (1 Bft) W 263 0 min 0,000 mm 0,0 UV-I 0 W/m 2,6 C 3,3 C 6,4 km/h (2 Bft) 100,00 %
29.04.2017 05:28 3,3 C 8,3 C 95 % 1018,7 hPa 0,0 l/m 6,0 km/h (2 Bft) SW 233 0 min 0,000 mm 0,0 UV-I 0 W/m 2,6 C 3,3 C 9,7 km/h (2 Bft) 97,37 %
29.04.2017 05:30 3,3 C 8,3 C 95 % 1018,7 hPa 0,0 l/m 5,6 km/h (1 Bft) SW 217 0 min 0,000 mm 0,0 UV-I 0 W/m 2,6 C 3,3 C 8,0 km/h (2 Bft) 98,21 %
29.04.2017 05:32 3,3 C 8,3 C 95 % 1018,7 hPa 0,0 l/m 5,6 km/h (1 Bft) W-SW 240 0 min 0,000 mm 0,0 UV-I 0 W/m 2,6 C 3,3 C 9,7 km/h (2 Bft) 97,37 %
29.04.2017 05:34 3,3 C 8,3 C 95 % 1018,7 hPa 0,0 l/m 5,6 km/h (1 Bft) SW 224 0 min 0,000 mm 0,0 UV-I 0 W/m 2,6 C 3,3 C 8,0 km/h (2 Bft) 96,43 %
29.04.2017 05:36 3,3 C 8,3 C 95 % 1018,8 hPa 0,0 l/m 5,0 km/h (1 Bft) SW 233 0 min 0,000 mm 0,0 UV-I 0 W/m 2,6 C 3,3 C 8,0 km/h (2 Bft) 97,37 %
29.04.2017 05:38 3,3 C 8,3 C 95 % 1018,8 hPa 0,0 l/m 7,6 km/h (2 Bft) S-SW 211 0 min 0,000 mm 0,0 UV-I 0 W/m 2,6 C 2,2 C 11,3 km/h (2 Bft) 94,34 %
29.04.2017 05:40 3,3 C 8,3 C 95 % 1018,9 hPa 0,0 l/m 6,3 km/h (2 Bft) SW 227 0 min 0,000 mm 0,0 UV-I 0 W/m 2,6 C 3,3 C 9,7 km/h (2 Bft) 97,87 %
29.04.2017 05:42 3,3 C 8,3 C 95 % 1018,8 hPa 0,0 l/m 5,5 km/h (1 Bft) S-SW 213 0 min 0,000 mm 0,0 UV-I 0 W/m 2,6 C 3,3 C 11,3 km/h (2 Bft) 94,00 %
29.04.2017 05:44 3,3 C 8,3 C 95 % 1018,9 hPa 0,0 l/m 6,8 km/h (2 Bft) SW 233 0 min 0,000 mm 0,0 UV-I 0 W/m 2,6 C 2,9 C 9,7 km/h (2 Bft) 95,45 %
29.04.2017 05:46 3,3 C 8,3 C 94 % 1018,9 hPa 0,0 l/m 6,1 km/h (2 Bft) SW 221 0 min 0,000 mm 0,0 UV-I 0 W/m 2,4 C 3,3 C 11,3 km/h (2 Bft) 95,24 %
29.04.2017 05:48 3,3 C 8,3 C 94 % 1019,0 hPa 0,0 l/m 5,3 km/h (1 Bft) SW 236 0 min 0,000 mm 0,0 UV-I 3 W/m 2,4 C 3,3 C 8,0 km/h (2 Bft) 96,00 %
29.04.2017 05:50 3,3 C 8,3 C 94 % 1019,0 hPa 0,0 l/m 5,7 km/h (1 Bft) SW 215 0 min 0,000 mm 0,0 UV-I 5 W/m 2,4 C 3,3 C 8,0 km/h (2 Bft) 95,12 %
29.04.2017 05:52 3,3 C 8,3 C 94 % 1019,0 hPa 0,0 l/m 5,1 km/h (1 Bft) W-SW 254 0 min 0,000 mm 0,0 UV-I 5 W/m 2,4 C 3,3 C 8,0 km/h (2 Bft) 94,00 %
29.04.2017 05:54 3,3 C 8,3 C 94 % 1019,0 hPa 0,0 l/m 4,9 km/h (1 Bft) W-SW 248 0 min 0,000 mm 0,0 UV-I 5 W/m 2,4 C 3,3 C 9,7 km/h (2 Bft) 97,87 %
29.04.2017 05:56 3,3 C 8,3 C 94 % 1019,1 hPa 0,0 l/m 4,8 km/h (1 Bft) SW 219 0 min 0,000 mm 0,0 UV-I 5 W/m 2,4 C 3,3 C 8,0 km/h (2 Bft) 96,00 %
29.04.2017 05:58 3,3 C 8,3 C 94 % 1019,1 hPa 0,0 l/m 6,1 km/h (2 Bft) W-SW 250 0 min 0,000 mm 0,0 UV-I 5 W/m 2,4 C 3,3 C 9,7 km/h (2 Bft) 96,23 %
29.04.2017 06:00 3,3 C 8,3 C 94 % 1019,1 hPa 0,0 l/m 5,3 km/h (1 Bft) SW 223 0 min 0,000 mm 0,0 UV-I 7 W/m 2,4 C 3,3 C 6,4 km/h (2 Bft) 94,74 %
29.04.2017 06:02 3,3 C 8,3 C 94 % 1019,1 hPa 0,0 l/m 6,5 km/h (2 Bft) SW 219 0 min 0,000 mm 0,0 UV-I 7 W/m 2,4 C 3,2 C 9,7 km/h (2 Bft) 96,23 %
29.04.2017 06:04 3,3 C 8,3 C 94 % 1019,2 hPa 0,0 l/m 6,5 km/h (2 Bft) SW 235 0 min 0,000 mm 0,0 UV-I 7 W/m 2,4 C 3,2 C 9,7 km/h (2 Bft) 94,74 %
29.04.2017 06:06 3,3 C 8,3 C 94 % 1019,2 hPa 0,0 l/m 5,3 km/h (1 Bft) W-SW 247 0 min 0,000 mm 0,0 UV-I 7 W/m 2,4 C 3,3 C 6,4 km/h (2 Bft) 98,00 %
29.04.2017 06:08 3,3 C 8,3 C 94 % 1019,2 hPa 0,0 l/m 5,8 km/h (2 Bft) W-SW 257 0 min 0,000 mm 0,0 UV-I 8 W/m 2,4 C 3,3 C 9,7 km/h (2 Bft) 98,11 %
29.04.2017 06:10 3,3 C 8,3 C 95 % 1019,2 hPa 0,0 l/m 6,0 km/h (2 Bft) W-SW 252 0 min 0,000 mm 0,0 UV-I 9 W/m 2,6 C 3,3 C 8,0 km/h (2 Bft) 95,74 %
29.04.2017 06:12 3,3 C 8,3 C 95 % 1019,2 hPa 0,0 l/m 5,9 km/h (2 Bft) W 259 0 min 0,000 mm 0,0 UV-I 9 W/m 2,6 C 3,3 C 11,3 km/h (2 Bft) 97,37 %
29.04.2017 06:14 3,3 C 8,3 C 95 % 1019,2 hPa 0,0 l/m 5,3 km/h (1 Bft) W-SW 250 0 min 0,000 mm 0,0 UV-I 10 W/m 2,6 C 3,3 C 8,0 km/h (2 Bft) 92,00 %
29.04.2017 06:16 3,3 C 8,3 C 95 % 1019,2 hPa 0,0 l/m 5,5 km/h (1 Bft) W-SW 240 0 min 0,000 mm 0,0 UV-I 11 W/m 2,6 C 3,3 C 8,0 km/h (2 Bft) 94,34 %
29.04.2017 06:18 3,3 C 8,3 C 95 % 1019,2 hPa 0,0 l/m 7,8 km/h (2 Bft) W-SW 246 0 min 0,000 mm 0,0 UV-I 11 W/m 2,6 C 2,0 C 12,9 km/h (3 Bft) 92,68 %
29.04.2017 06:20 3,3 C 8,3 C 95 % 1019,2 hPa 0,0 l/m 7,6 km/h (2 Bft) W-NW 297 0 min 0,000 mm 0,0 UV-I 11 W/m 2,6 C 2,2 C 11,3 km/h (2 Bft) 94,34 %
29.04.2017 06:22 3,3 C 8,3 C 95 % 1019,2 hPa 0,0 l/m 7,3 km/h (2 Bft) W-SW 255 0 min 0,000 mm 0,0 UV-I 11 W/m 2,6 C 2,5 C 11,3 km/h (2 Bft) 93,18 %
29.04.2017 06:24 3,3 C 8,3 C 95 % 1019,3 hPa 0,0 l/m 5,3 km/h (1 Bft) W 273 0 min 0,000 mm 0,0 UV-I 12 W/m 2,6 C 3,3 C 9,7 km/h (2 Bft) 94,00 %
29.04.2017 06:26 3,3 C 8,3 C 95 % 1019,3 hPa 0,0 l/m 2,0 km/h (1 Bft) W-NW 288 0 min 0,000 mm 0,0 UV-I 14 W/m 2,6 C 3,3 C 4,8 km/h (1 Bft) 94,44 %
29.04.2017 06:28 3,3 C 8,3 C 95 % 1019,3 hPa 0,0 l/m 3,5 km/h (1 Bft) W 259 0 min 0,000 mm 0,0 UV-I 16 W/m 2,6 C 3,3 C 4,8 km/h (1 Bft) 94,00 %
29.04.2017 06:30 3,3 C 8,3 C 95 % 1019,3 hPa 0,0 l/m 4,3 km/h (1 Bft) W 278 0 min 0,000 mm 0,0 UV-I 18 W/m 2,6 C 3,3 C 4,8 km/h (1 Bft) 93,62 %
29.04.2017 06:32 3,3 C 8,3 C 95 % 1019,4 hPa 0,0 l/m 3,3 km/h (1 Bft) W 280 0 min 0,000 mm 0,0 UV-I 19 W/m 2,6 C 3,3 C 4,8 km/h (1 Bft) 94,34 %
29.04.2017 06:34 3,3 C 8,3 C 95 % 1019,4 hPa 0,0 l/m 3,1 km/h (1 Bft) W 265 0 min 0,000 mm 0,0 UV-I 21 W/m 2,6 C 3,3 C 4,8 km/h (1 Bft) 95,12 %
29.04.2017 06:36 3,3 C 8,3 C 95 % 1019,3 hPa 0,0 l/m 3,8 km/h (1 Bft) W-NW 289 0 min 0,000 mm 0,0 UV-I 22 W/m 2,6 C 3,3 C 6,4 km/h (2 Bft) 92,45 %
29.04.2017 06:38 3,3 C 8,3 C 95 % 1019,4 hPa 0,0 l/m 4,7 km/h (1 Bft) W 270 0 min 0,000 mm 0,0 UV-I 26 W/m 2,6 C 3,3 C 8,0 km/h (2 Bft) 95,74 %
29.04.2017 06:40 3,3 C 8,3 C 95 % 1019,4 hPa 0,0 l/m 5,4 km/h (1 Bft) W 259 0 min 0,000 mm 0,0 UV-I 32 W/m 2,6 C 3,3 C 9,7 km/h (2 Bft) 97,87 %
29.04.2017 06:42 3,3 C 8,3 C 95 % 1019,4 hPa 0,0 l/m 6,1 km/h (2 Bft) W 269 0 min 0,000 mm 0,0 UV-I 36 W/m 2,6 C 3,3 C 9,7 km/h (2 Bft) 91,49 %
29.04.2017 06:44 3,3 C 8,3 C 95 % 1019,4 hPa 0,0 l/m 4,1 km/h (1 Bft) W 264 0 min 0,000 mm 0,0 UV-I 39 W/m 2,6 C 3,3 C 6,4 km/h (2 Bft) 97,56 %
29.04.2017 06:46 3,4 C 8,3 C 95 % 1019,4 hPa 0,0 l/m 5,5 km/h (1 Bft) W-SW 252 0 min 0,000 mm 0,0 UV-I 43 W/m 2,7 C 3,4 C 8,0 km/h (2 Bft) 95,45 %
29.04.2017 06:48 3,4 C 8,3 C 95 % 1019,4 hPa 0,0 l/m 4,8 km/h (1 Bft) W 261 0 min 0,000 mm 0,0 UV-I 49 W/m 2,7 C 3,4 C 6,4 km/h (2 Bft) 98,00 %
29.04.2017 06:50 3,4 C 8,3 C 95 % 1019,4 hPa 0,0 l/m 4,9 km/h (1 Bft) SW 219 0 min 0,000 mm 0,0 UV-I 61 W/m 2,7 C 3,4 C 6,4 km/h (2 Bft) 100,00 %
29.04.2017 06:52 3,5 C 8,3 C 95 % 1019,4 hPa 0,0 l/m 5,4 km/h (1 Bft) SW 230 0 min 0,000 mm 0,0 UV-I 69 W/m 2,8 C 3,5 C 6,4 km/h (2 Bft) 96,55 %
29.04.2017 06:54 3,6 C 8,3 C 95 % 1019,4 hPa 0,0 l/m 6,7 km/h (2 Bft) S-SW 210 0 min 0,000 mm 0,0 UV-I 69 W/m 2,9 C 3,3 C 9,7 km/h (2 Bft) 100,00 %
29.04.2017 06:56 3,6 C 8,3 C 95 % 1019,4 hPa 0,0 l/m 5,4 km/h (1 Bft) SW 229 0 min 0,000 mm 0,0 UV-I 77 W/m 2,9 C 3,6 C 8,0 km/h (2 Bft) 97,14 %
29.04.2017 06:58 3,7 C 8,3 C 95 % 1019,4 hPa 0,0 l/m 6,3 km/h (2 Bft) SW 236 0 min 0,000 mm 0,0 UV-I 91 W/m 3,0 C 3,7 C 8,0 km/h (2 Bft) 100,00 %
29.04.2017 07:00 3,7 C 8,3 C 95 % 1019,5 hPa 0,0 l/m 5,4 km/h (1 Bft) SW 234 2 min 0,025 mm 0,0 UV-I 102 W/m 3,0 C 3,7 C 8,0 km/h (2 Bft) 100,00 %
29.04.2017 07:02 3,8 C 8,3 C 95 % 1019,4 hPa 0,0 l/m 4,5 km/h (1 Bft) S-SW 202 2 min 0,000 mm 0,0 UV-I 115 W/m 3,1 C 3,8 C 8,0 km/h (2 Bft) 98,00 %
29.04.2017 07:04 3,8 C 8,3 C 95 % 1019,4 hPa 0,0 l/m 5,5 km/h (1 Bft) SW 232 2 min 0,000 mm 0,0 UV-I 125 W/m 3,1 C 3,8 C 8,0 km/h (2 Bft) 98,18 %
29.04.2017 07:06 3,8 C 8,3 C 95 % 1019,4 hPa 0,0 l/m 5,3 km/h (1 Bft) W-SW 240 2 min 0,000 mm 0,0 UV-I 134 W/m 3,1 C 3,8 C 8,0 km/h (2 Bft) 100,00 %
29.04.2017 07:08 3,9 C 8,3 C 95 % 1019,4 hPa 0,0 l/m 6,5 km/h (2 Bft) SW 231 2 min 0,000 mm 0,0 UV-I 137 W/m 3,2 C 3,8 C 9,7 km/h (2 Bft) 95,74 %
29.04.2017 07:10 3,9 C 8,3 C 95 % 1019,4 hPa 0,0 l/m 7,1 km/h (2 Bft) W-SW 245 2 min 0,000 mm 0,0 UV-I 134 W/m 3,2 C 3,3 C 9,7 km/h (2 Bft) 100,00 %
29.04.2017 07:12 4,0 C 8,3 C 95 % 1019,4 hPa 0,0 l/m 6,2 km/h (2 Bft) W 259 2 min 0,000 mm 0,0 UV-I 129 W/m 3,3 C 4,0 C 9,7 km/h (2 Bft) 100,00 %
29.04.2017 07:14 4,1 C 8,3 C 94 % 1019,3 hPa 0,0 l/m 9,7 km/h (2 Bft) W-SW 242 2 min 0,000 mm 0,0 UV-I 122 W/m 3,2 C 1,3 C 14,5 km/h (3 Bft) 97,50 %
29.04.2017 07:16 4,1 C 8,3 C 94 % 1019,4 hPa 0,0 l/m 8,9 km/h (2 Bft) W 275 2 min 0,000 mm 0,0 UV-I 125 W/m 3,2 C 1,9 C 14,5 km/h (3 Bft) 100,00 %
29.04.2017 07:18 4,2 C 8,3 C 94 % 1019,4 hPa 0,0 l/m 7,7 km/h (2 Bft) W-SW 256 2 min 0,000 mm 0,0 UV-I 130 W/m 3,3 C 3,0 C 12,9 km/h (3 Bft) 95,12 %
29.04.2017 07:20 4,2 C 8,3 C 94 % 1019,3 hPa 0,0 l/m 6,7 km/h (2 Bft) W-SW 250 0 min 0,000 mm 0,0 UV-I 120 W/m 3,3 C 3,9 C 11,3 km/h (2 Bft) 100,00 %
29.04.2017 07:22 4,2 C 8,3 C 93 % 1019,4 hPa 0,0 l/m 8,6 km/h (2 Bft) W-SW 245 0 min 0,000 mm 0,0 UV-I 116 W/m 3,2 C 2,3 C 11,3 km/h (2 Bft) 97,37 %
29.04.2017 07:24 4,2 C 8,3 C 94 % 1019,4 hPa 0,0 l/m 5,7 km/h (1 Bft) W-NW 290 2 min 0,000 mm 0,0 UV-I 142 W/m 3,3 C 4,2 C 9,7 km/h (2 Bft) 98,28 %
29.04.2017 07:26 4,2 C 8,3 C 94 % 1019,4 hPa 0,0 l/m 6,2 km/h (2 Bft) W 260 0 min 0,000 mm 0,0 UV-I 124 W/m 3,3 C 4,2 C 9,7 km/h (2 Bft) 97,87 %
29.04.2017 07:28 4,2 C 8,3 C 94 % 1019,4 hPa 0,0 l/m 6,7 km/h (2 Bft) W 259 2 min 0,000 mm 0,0 UV-I 144 W/m 3,3 C 3,9 C 11,3 km/h (2 Bft) 95,12 %
29.04.2017 07:30 4,2 C 8,3 C 94 % 1019,4 hPa 0,0 l/m 6,1 km/h (2 Bft) W-SW 247 2 min 0,000 mm 0,0 UV-I 150 W/m 3,3 C 4,2 C 8,0 km/h (2 Bft) 100,00 %
29.04.2017 07:32 4,2 C 8,3 C 94 % 1019,4 hPa 0,0 l/m 7,8 km/h (2 Bft) SW 219 2 min 0,000 mm 0,0 UV-I 152 W/m 3,3 C 2,9 C 11,3 km/h (2 Bft) 95,12 %
29.04.2017 07:34 4,3 C 8,3 C 94 % 1019,3 hPa 0,0 l/m 7,9 km/h (2 Bft) W-SW 257 0 min 0,000 mm 0,0 UV-I 137 W/m 3,4 C 3,0 C 12,9 km/h (3 Bft) 98,31 %
29.04.2017 07:36 4,2 C 8,3 C 93 % 1019,4 hPa 0,0 l/m 7,3 km/h (2 Bft) W-SW 238 0 min 0,000 mm 0,0 UV-I 144 W/m 3,2 C 3,4 C 11,3 km/h (2 Bft) 100,00 %
29.04.2017 07:38 4,2 C 8,3 C 93 % 1019,3 hPa 0,0 l/m 7,9 km/h (2 Bft) W-SW 246 0 min 0,000 mm 0,0 UV-I 147 W/m 3,2 C 2,8 C 11,3 km/h (2 Bft) 98,28 %
29.04.2017 07:40 4,2 C 8,3 C 93 % 1019,4 hPa 0,0 l/m 9,4 km/h (2 Bft) W-SW 247 2 min 0,000 mm 0,0 UV-I 184 W/m 3,2 C 1,6 C 12,9 km/h (3 Bft) 98,11 %
29.04.2017 07:42 4,2 C 8,3 C 93 % 1019,4 hPa 0,0 l/m 9,7 km/h (2 Bft) W-SW 257 2 min 0,000 mm 0,0 UV-I 200 W/m 3,2 C 1,4 C 12,9 km/h (3 Bft) 100,00 %
29.04.2017 07:44 4,3 C 8,3 C 93 % 1019,4 hPa 0,0 l/m 7,8 km/h (2 Bft) W-SW 254 2 min 0,000 mm 0,0 UV-I 211 W/m 3,3 C 3,0 C 12,9 km/h (3 Bft) 97,14 %
29.04.2017 07:46 4,3 C 8,3 C 93 % 1019,4 hPa 0,0 l/m 9,2 km/h (2 Bft) W-SW 256 2 min 0,000 mm 0,0 UV-I 222 W/m 3,3 C 1,9 C 14,5 km/h (3 Bft) 97,62 %
29.04.2017 07:48 4,3 C 8,3 C 93 % 1019,4 hPa 0,0 l/m 6,8 km/h (2 Bft) W 267 2 min 0,000 mm 0,0 UV-I 225 W/m 3,3 C 3,9 C 11,3 km/h (2 Bft) 92,68 %
29.04.2017 07:50 4,4 C 8,3 C 93 % 1019,4 hPa 0,0 l/m 7,7 km/h (2 Bft) W-SW 248 2 min 0,000 mm 0,0 UV-I 231 W/m 3,4 C 3,2 C 12,9 km/h (3 Bft) 100,00 %
29.04.2017 07:52 4,4 C 8,3 C 93 % 1019,4 hPa 0,0 l/m 5,5 km/h (1 Bft) W-SW 242 2 min 0,000 mm 0,0 UV-I 243 W/m 3,4 C 4,4 C 9,7 km/h (2 Bft) 100,00 %
29.04.2017 07:54 4,5 C 8,3 C 93 % 1019,4 hPa 0,0 l/m 5,0 km/h (1 Bft) W 259 2 min 0,000 mm 0,0 UV-I 248 W/m 3,5 C 4,5 C 8,0 km/h (2 Bft) 96,00 %
29.04.2017 07:56 4,5 C 8,3 C 93 % 1019,4 hPa 0,0 l/m 6,1 km/h (2 Bft) W-SW 241 2 min 0,000 mm 0,0 UV-I 251 W/m 3,5 C 4,5 C 9,7 km/h (2 Bft) 97,37 %
29.04.2017 07:58 4,5 C 8,3 C 93 % 1019,4 hPa 0,0 l/m 4,7 km/h (1 Bft) W-SW 246 2 min 0,000 mm 0,0 UV-I 263 W/m 3,5 C 4,5 C 8,0 km/h (2 Bft) 100,00 %
29.04.2017 08:00 4,6 C 8,3 C 93 % 1019,4 hPa 0,0 l/m 7,8 km/h (2 Bft) W-SW 244 2 min 0,077 mm 0,0 UV-I 272 W/m 3,6 C 3,4 C 12,9 km/h (3 Bft) 96,23 %
29.04.2017 08:02 4,6 C 8,3 C 92 % 1019,4 hPa 0,0 l/m 6,3 km/h (2 Bft) W-SW 252 2 min 0,000 mm 0,1 UV-I 279 W/m 3,4 C 4,6 C 11,3 km/h (2 Bft) 100,00 %
29.04.2017 08:04 4,6 C 8,3 C 92 % 1019,4 hPa 0,0 l/m 7,1 km/h (2 Bft) W 271 2 min 0,000 mm 0,5 UV-I 282 W/m 3,4 C 4,0 C 11,3 km/h (2 Bft) 96,23 %
29.04.2017 08:06 4,7 C 8,3 C 92 % 1019,5 hPa 0,0 l/m 7,4 km/h (2 Bft) W 267 2 min 0,000 mm 0,5 UV-I 283 W/m 3,5 C 3,8 C 12,9 km/h (3 Bft) 100,00 %
29.04.2017 08:08 4,8 C 8,3 C 92 % 1019,4 hPa 0,0 l/m 8,0 km/h (2 Bft) W 269 2 min 0,000 mm 0,5 UV-I 280 W/m 3,6 C 3,4 C 12,9 km/h (3 Bft) 100,00 %
29.04.2017 08:10 4,8 C 8,3 C 92 % 1019,4 hPa 0,0 l/m 6,1 km/h (2 Bft) S-SW 213 2 min 0,000 mm 0,5 UV-I 286 W/m 3,6 C 4,8 C 11,3 km/h (2 Bft) 100,00 %
29.04.2017 08:12 4,9 C 8,3 C 91 % 1019,4 hPa 0,0 l/m 7,1 km/h (2 Bft) W-SW 257 2 min 0,000 mm 0,5 UV-I 291 W/m 3,6 C 4,3 C 11,3 km/h (2 Bft) 100,00 %
29.04.2017 08:14 4,9 C 8,3 C 91 % 1019,5 hPa 0,0 l/m 8,4 km/h (2 Bft) W-SW 257 2 min 0,000 mm 0,5 UV-I 293 W/m 3,6 C 3,2 C 11,3 km/h (2 Bft) 95,45 %
29.04.2017 08:16 4,9 C 8,3 C 91 % 1019,5 hPa 0,0 l/m 6,4 km/h (2 Bft) W-SW 258 2 min 0,000 mm 0,5 UV-I 296 W/m 3,6 C 4,9 C 9,7 km/h (2 Bft) 98,11 %
29.04.2017 08:18 5,1 C 8,3 C 91 % 1019,5 hPa 0,0 l/m 9,4 km/h (2 Bft) W-SW 255 2 min 0,000 mm 0,6 UV-I 296 W/m 3,8 C 2,6 C 14,5 km/h (3 Bft) 95,12 %
29.04.2017 08:20 5,1 C 8,3 C 91 % 1019,5 hPa 0,0 l/m 8,9 km/h (2 Bft) W-SW 250 2 min 0,000 mm 0,6 UV-I 297 W/m 3,8 C 3,0 C 12,9 km/h (3 Bft) 96,23 %
29.04.2017 08:22 5,1 C 8,3 C 91 % 1019,5 hPa 0,0 l/m 6,5 km/h (2 Bft) W-SW 256 2 min 0,000 mm 0,6 UV-I 294 W/m 3,8 C 5,0 C 11,3 km/h (2 Bft) 97,22 %
29.04.2017 08:24 5,2 C 8,3 C 92 % 1019,5 hPa 0,0 l/m 2,8 km/h (1 Bft) W-SW 258 2 min 0,000 mm 0,6 UV-I 273 W/m 4,0 C 5,2 C 4,8 km/h (1 Bft) 98,00 %
29.04.2017 08:26 5,2 C 8,3 C 91 % 1019,5 hPa 0,0 l/m 4,9 km/h (1 Bft) W 263 2 min 0,000 mm 0,6 UV-I 261 W/m 3,9 C 5,2 C 8,0 km/h (2 Bft) 95,74 %
29.04.2017 08:28 5,2 C 8,3 C 91 % 1019,5 hPa 0,0 l/m 4,9 km/h (1 Bft) W-NW 296 2 min 0,000 mm 0,6 UV-I 258 W/m 3,9 C 5,2 C 9,7 km/h (2 Bft) 98,11 %
29.04.2017 08:30 5,2 C 8,3 C 91 % 1019,5 hPa 0,0 l/m 6,4 km/h (2 Bft) SW 236 0 min 0,000 mm 0,6 UV-I 182 W/m 3,9 C 5,2 C 9,7 km/h (2 Bft) 92,11 %
29.04.2017 08:32 5,1 C 8,3 C 90 % 1019,5 hPa 0,0 l/m 6,4 km/h (2 Bft) W-SW 247 0 min 0,000 mm 0,6 UV-I 159 W/m 3,6 C 5,1 C 11,3 km/h (2 Bft) 92,45 %
29.04.2017 08:34 5,1 C 8,3 C 90 % 1019,5 hPa 0,0 l/m 5,4 km/h (1 Bft) W 263 0 min 0,000 mm 0,6 UV-I 167 W/m 3,6 C 5,1 C 9,7 km/h (2 Bft) 97,37 %
29.04.2017 08:36 5,0 C 8,3 C 90 % 1019,6 hPa 0,0 l/m 5,6 km/h (1 Bft) W-SW 258 0 min 0,000 mm 0,7 UV-I 201 W/m 3,5 C 5,0 C 11,3 km/h (2 Bft) 98,11 %
29.04.2017 08:38 5,0 C 8,3 C 90 % 1019,6 hPa 0,0 l/m 5,7 km/h (1 Bft) W 280 2 min 0,000 mm 0,7 UV-I 329 W/m 3,5 C 5,0 C 9,7 km/h (2 Bft) 96,23 %
29.04.2017 08:40 5,1 C 8,3 C 90 % 1019,5 hPa 0,0 l/m 5,0 km/h (1 Bft) W-NW 303 2 min 0,000 mm 0,8 UV-I 356 W/m 3,6 C 5,1 C 9,7 km/h (2 Bft) 97,14 %
29.04.2017 08:42 5,2 C 8,3 C 90 % 1019,5 hPa 0,0 l/m 3,8 km/h (1 Bft) W-NW 295 2 min 0,000 mm 0,8 UV-I 379 W/m 3,7 C 5,2 C 6,4 km/h (2 Bft) 94,92 %
29.04.2017 08:44 5,3 C 8,3 C 90 % 1019,5 hPa 0,0 l/m 4,0 km/h (1 Bft) W 281 2 min 0,000 mm 0,8 UV-I 386 W/m 3,8 C 5,3 C 8,0 km/h (2 Bft) 94,74 %
29.04.2017 08:46 5,4 C 8,3 C 89 % 1019,4 hPa 0,0 l/m 3,4 km/h (1 Bft) W-SW 250 2 min 0,000 mm 0,8 UV-I 394 W/m 3,7 C 5,4 C 8,0 km/h (2 Bft) 96,23 %
29.04.2017 08:48 5,6 C 8,3 C 89 % 1019,5 hPa 0,0 l/m 7,8 km/h (2 Bft) W 260 2 min 0,000 mm 0,9 UV-I 401 W/m 3,9 C 4,4 C 12,9 km/h (3 Bft) 97,56 %
29.04.2017 08:50 5,6 C 8,3 C 89 % 1019,5 hPa 0,0 l/m 5,9 km/h (2 Bft) W 265 2 min 0,000 mm 0,9 UV-I 407 W/m 3,9 C 5,6 C 11,3 km/h (2 Bft) 100,00 %
29.04.2017 08:52 5,7 C 8,3 C 88 % 1019,6 hPa 0,0 l/m 8,2 km/h (2 Bft) W-SW 250 2 min 0,000 mm 0,9 UV-I 422 W/m 3,9 C 4,2 C 11,3 km/h (2 Bft) 98,00 %
29.04.2017 08:54 5,7 C 8,3 C 87 % 1019,6 hPa 0,0 l/m 4,1 km/h (1 Bft) W-NW 294 2 min 0,000 mm 0,9 UV-I 428 W/m 3,7 C 5,7 C 8,0 km/h (2 Bft) 97,87 %
29.04.2017 08:56 5,7 C 8,3 C 87 % 1019,6 hPa 0,0 l/m 2,5 km/h (1 Bft) W-NW 288 2 min 0,000 mm 0,9 UV-I 457 W/m 3,7 C 5,7 C 4,8 km/h (1 Bft) 98,00 %
29.04.2017 08:58 5,7 C 8,3 C 88 % 1019,6 hPa 0,0 l/m 3,0 km/h (1 Bft) W-NW 288 2 min 0,000 mm 0,9 UV-I 459 W/m 3,9 C 5,7 C 6,4 km/h (2 Bft) 100,00 %
29.04.2017 09:00 5,8 C 8,3 C 88 % 1019,6 hPa 0,0 l/m 2,0 km/h (1 Bft) W 272 2 min 0,000 mm 0,8 UV-I 312 W/m 4,0 C 5,8 C 6,4 km/h (2 Bft) 95,24 %
29.04.2017 09:02 5,8 C 8,3 C 88 % 1019,5 hPa 0,0 l/m 4,0 km/h (1 Bft) W-SW 252 2 min 0,127 mm 0,9 UV-I 355 W/m 4,0 C 5,8 C 11,3 km/h (2 Bft) 95,74 %
29.04.2017 09:04 5,8 C 8,3 C 87 % 1019,6 hPa 0,0 l/m 8,1 km/h (2 Bft) SW 236 2 min 0,000 mm 0,8 UV-I 481 W/m 3,8 C 4,4 C 12,9 km/h (3 Bft) 98,28 %
29.04.2017 09:06 5,8 C 8,3 C 86 % 1019,6 hPa 0,0 l/m 6,1 km/h (2 Bft) W-NW 301 0 min 0,000 mm 0,8 UV-I 279 W/m 3,6 C 5,8 C 9,7 km/h (2 Bft) 97,87 %
29.04.2017 09:08 5,8 C 8,3 C 87 % 1019,6 hPa 0,0 l/m 2,2 km/h (1 Bft) W-SW 240 0 min 0,000 mm 0,8 UV-I 278 W/m 3,8 C 5,8 C 6,4 km/h (2 Bft) 95,56 %
29.04.2017 09:10 5,8 C 8,3 C 87 % 1019,6 hPa 0,0 l/m 5,6 km/h (1 Bft) W 260 2 min 0,000 mm 0,9 UV-I 317 W/m 3,8 C 5,8 C 9,7 km/h (2 Bft) 95,45 %
29.04.2017 09:12 5,9 C 8,3 C 88 % 1019,6 hPa 0,0 l/m 2,8 km/h (1 Bft) NW 321 2 min 0,000 mm 0,9 UV-I 422 W/m 4,1 C 5,9 C 4,8 km/h (1 Bft) 93,62 %
29.04.2017 09:14 5,9 C 8,3 C 88 % 1019,6 hPa 0,0 l/m 3,4 km/h (1 Bft) W-NW 302 0 min 0,000 mm 0,9 UV-I 290 W/m 4,1 C 5,9 C 8,0 km/h (2 Bft) 98,00 %
29.04.2017 09:16 5,9 C 8,3 C 89 % 1019,6 hPa 0,0 l/m 6,6 km/h (2 Bft) W 279 2 min 0,000 mm 0,9 UV-I 320 W/m 4,2 C 5,8 C 11,3 km/h (2 Bft) 97,56 %
29.04.2017 09:18 5,9 C 8,3 C 87 % 1019,6 hPa 0,0 l/m 2,5 km/h (1 Bft) W-NW 291 0 min 0,000 mm 0,9 UV-I 285 W/m 3,9 C 5,9 C 6,4 km/h (2 Bft) 95,74 %
29.04.2017 09:20 5,9 C 8,3 C 87 % 1019,6 hPa 0,0 l/m 4,5 km/h (1 Bft) NW 309 0 min 0,000 mm 0,9 UV-I 279 W/m 3,9 C 5,9 C 11,3 km/h (2 Bft) 98,00 %
29.04.2017 09:22 5,9 C 8,3 C 88 % 1019,6 hPa 0,0 l/m 4,3 km/h (1 Bft) W-NW 292 2 min 0,000 mm 1,0 UV-I 318 W/m 4,1 C 5,9 C 8,0 km/h (2 Bft) 95,74 %
29.04.2017 09:24 6,0 C 8,3 C 88 % 1019,6 hPa 0,0 l/m 1,0 km/h (0 Bft) W-NW 297 0 min 0,000 mm 0,9 UV-I 305 W/m 4,2 C 6,0 C 3,2 km/h (1 Bft) 97,73 %
29.04.2017 09:26 6,1 C 8,3 C 88 % 1019,6 hPa 0,0 l/m 3,3 km/h (1 Bft) W-SW 248 0 min 0,000 mm 0,9 UV-I 277 W/m 4,3 C 6,1 C 9,7 km/h (2 Bft) 94,00 %
29.04.2017 09:28 6,1 C 8,3 C 87 % 1019,6 hPa 0,0 l/m 3,9 km/h (1 Bft) W 279 2 min 0,000 mm 1,0 UV-I 327 W/m 4,1 C 6,1 C 6,4 km/h (2 Bft) 97,37 %
29.04.2017 09:30 6,2 C 8,3 C 87 % 1019,6 hPa 0,0 l/m 2,7 km/h (1 Bft) W 281 0 min 0,000 mm 0,9 UV-I 315 W/m 4,2 C 6,2 C 4,8 km/h (1 Bft) 94,44 %
29.04.2017 09:32 6,2 C 8,3 C 88 % 1019,6 hPa 0,0 l/m 2,4 km/h (1 Bft) NW 304 2 min 0,000 mm 0,9 UV-I 318 W/m 4,4 C 6,2 C 6,4 km/h (2 Bft) 95,12 %
29.04.2017 09:34 6,3 C 8,3 C 87 % 1019,6 hPa 0,0 l/m 4,4 km/h (1 Bft) W 278 0 min 0,000 mm 0,8 UV-I 276 W/m 4,3 C 6,3 C 8,0 km/h (2 Bft) 91,53 %
29.04.2017 09:36 6,4 C 8,3 C 88 % 1019,6 hPa 0,0 l/m 3,1 km/h (1 Bft) SW 228 0 min 0,000 mm 0,8 UV-I 250 W/m 4,6 C 6,4 C 8,0 km/h (2 Bft) 95,74 %
29.04.2017 09:38 6,6 C 8,3 C 87 % 1019,6 hPa 0,0 l/m 0,6 km/h (0 Bft) W 259 0 min 0,000 mm 0,8 UV-I 253 W/m 4,6 C 6,6 C 1,6 km/h (1 Bft) 93,62 %
29.04.2017 09:40 6,6 C 8,3 C 88 % 1019,6 hPa 0,0 l/m 2,5 km/h (1 Bft) NW 305 0 min 0,000 mm 0,8 UV-I 239 W/m 4,8 C 6,6 C 4,8 km/h (1 Bft) 92,68 %
29.04.2017 09:42 6,6 C 8,3 C 87 % 1019,6 hPa 0,0 l/m 2,2 km/h (1 Bft) W-NW 294 0 min 0,000 mm 0,9 UV-I 275 W/m 4,6 C 6,6 C 4,8 km/h (1 Bft) 98,11 %
29.04.2017 09:44 6,4 C 8,3 C 87 % 1019,7 hPa 0,0 l/m 4,9 km/h (1 Bft) W-SW 252 0 min 0,000 mm 1,1 UV-I 316 W/m 4,4 C 6,4 C 9,7 km/h (2 Bft) 90,24 %
29.04.2017 09:46 6,4 C 8,3 C 87 % 1019,6 hPa 0,0 l/m 5,9 km/h (2 Bft) W-SW 248 2 min 0,000 mm 1,2 UV-I 342 W/m 4,4 C 6,4 C 11,3 km/h (2 Bft) 93,75 %
29.04.2017 09:48 6,4 C 8,3 C 86 % 1019,6 hPa 0,0 l/m 4,9 km/h (1 Bft) W-SW 238 2 min 0,000 mm 1,3 UV-I 405 W/m 4,2 C 6,4 C 6,4 km/h (2 Bft) 97,37 %
29.04.2017 09:50 6,5 C 8,3 C 86 % 1019,7 hPa 0,0 l/m 7,2 km/h (2 Bft) W-SW 244 2 min 0,000 mm 1,4 UV-I 359 W/m 4,3 C 5,8 C 14,5 km/h (3 Bft) 96,00 %
29.04.2017 09:52 6,5 C 8,3 C 86 % 1019,6 hPa 0,0 l/m 7,6 km/h (2 Bft) W-SW 252 2 min 0,000 mm 1,5 UV-I 377 W/m 4,3 C 5,5 C 11,3 km/h (2 Bft) 98,21 %
29.04.2017 09:54 6,5 C 8,3 C 85 % 1019,6 hPa 0,0 l/m 5,2 km/h (1 Bft) W 262 2 min 0,000 mm 1,5 UV-I 382 W/m 4,2 C 6,5 C 9,7 km/h (2 Bft) 89,47 %
29.04.2017 09:56 6,6 C 8,3 C 85 % 1019,6 hPa 0,0 l/m 4,4 km/h (1 Bft) W 268 2 min 0,000 mm 1,7 UV-I 380 W/m 4,3 C 6,6 C 9,7 km/h (2 Bft) 94,34 %
29.04.2017 09:58 6,8 C 8,3 C 86 % 1019,6 hPa 0,0 l/m 6,4 km/h (2 Bft) W-SW 250 2 min 0,000 mm 1,9 UV-I 660 W/m 4,6 C 6,8 C 11,3 km/h (2 Bft) 97,56 %
29.04.2017 10:00 6,9 C 8,3 C 84 % 1019,6 hPa 0,0 l/m 3,8 km/h (1 Bft) W-SW 252 2 min 0,000 mm 2,0 UV-I 843 W/m 4,4 C 6,9 C 8,0 km/h (2 Bft) 100,00 %
29.04.2017 10:02 7,1 C 8,3 C 85 % 1019,7 hPa 0,0 l/m 5,8 km/h (2 Bft) SW 225 2 min 0,152 mm 1,7 UV-I 858 W/m 4,8 C 7,1 C 8,0 km/h (2 Bft) 96,23 %
29.04.2017 10:04 7,2 C 8,3 C 85 % 1019,6 hPa 0,0 l/m 6,8 km/h (2 Bft) SW 229 2 min 0,000 mm 1,3 UV-I 463 W/m 4,9 C 6,9 C 11,3 km/h (2 Bft) 100,00 %
29.04.2017 10:06 7,2 C 8,3 C 83 % 1019,7 hPa 0,0 l/m 5,5 km/h (1 Bft) SW 217 0 min 0,000 mm 1,3 UV-I 343 W/m 4,5 C 7,2 C 9,7 km/h (2 Bft) 100,00 %
29.04.2017 10:08 7,1 C 8,3 C 82 % 1019,7 hPa 0,0 l/m 3,3 km/h (1 Bft) S-SW 211 0 min 0,000 mm 1,2 UV-I 322 W/m 4,2 C 7,1 C 6,4 km/h (2 Bft) 97,87 %
29.04.2017 10:10 7,1 C 8,3 C 83 % 1019,7 hPa 0,0 l/m 3,5 km/h (1 Bft) W 281 0 min 0,000 mm 1,2 UV-I 329 W/m 4,4 C 7,1 C 9,7 km/h (2 Bft) 100,00 %
29.04.2017 10:12 7,2 C 8,9 C 85 % 1019,7 hPa 0,0 l/m 4,3 km/h (1 Bft) W-SW 250 2 min 0,000 mm 1,3 UV-I 372 W/m 4,9 C 7,2 C 6,4 km/h (2 Bft) 98,21 %
29.04.2017 10:14 7,3 C 8,3 C 85 % 1019,7 hPa 0,0 l/m 2,6 km/h (1 Bft) W 264 0 min 0,000 mm 1,1 UV-I 362 W/m 4,9 C 7,3 C 6,4 km/h (2 Bft) 97,56 %
29.04.2017 10:16 7,3 C 8,3 C 83 % 1019,7 hPa 0,0 l/m 7,9 km/h (2 Bft) W 281 0 min 0,000 mm 1,0 UV-I 265 W/m 4,6 C 6,1 C 11,3 km/h (2 Bft) 97,73 %
29.04.2017 10:18 7,2 C 8,3 C 82 % 1019,7 hPa 0,0 l/m 8,3 km/h (2 Bft) W-SW 254 0 min 0,000 mm 0,9 UV-I 231 W/m 4,3 C 5,7 C 12,9 km/h (3 Bft) 92,00 %
29.04.2017 10:20 7,1 C 8,3 C 82 % 1019,7 hPa 0,0 l/m 5,9 km/h (2 Bft) W 266 0 min 0,000 mm 0,8 UV-I 214 W/m 4,2 C 7,1 C 11,3 km/h (2 Bft) 96,00 %
29.04.2017 10:22 7,1 C 8,9 C 83 % 1019,7 hPa 0,0 l/m 6,3 km/h (2 Bft) W-NW 282 0 min 0,000 mm 0,9 UV-I 221 W/m 4,4 C 7,1 C 11,3 km/h (2 Bft) 94,00 %
29.04.2017 10:24 6,9 C 8,3 C 83 % 1019,6 hPa 0,0 l/m 8,2 km/h (2 Bft) S-SW 203 0 min 0,000 mm 1,0 UV-I 239 W/m 4,2 C 5,4 C 14,5 km/h (3 Bft) 97,44 %
29.04.2017 10:26 7,0 C 8,9 C 85 % 1019,7 hPa 0,0 l/m 3,0 km/h (1 Bft) NW 313 0 min 0,000 mm 1,2 UV-I 257 W/m 4,7 C 7,0 C 4,8 km/h (1 Bft) 96,36 %
29.04.2017 10:28 7,0 C 8,9 C 86 % 1019,7 hPa 0,0 l/m 1,9 km/h (1 Bft) NW 306 0 min 0,000 mm 1,4 UV-I 286 W/m 4,8 C 7,0 C 4,8 km/h (1 Bft) 97,22 %
29.04.2017 10:30 7,0 C 8,9 C 84 % 1019,6 hPa 0,0 l/m 4,2 km/h (1 Bft) NW 314 0 min 0,000 mm 1,4 UV-I 300 W/m 4,5 C 7,0 C 8,0 km/h (2 Bft) 90,91 %
29.04.2017 10:32 7,0 C 8,9 C 83 % 1019,6 hPa 0,0 l/m 1,3 km/h (1 Bft) W-NW 298 0 min 0,000 mm 1,6 UV-I 306 W/m 4,3 C 7,0 C 3,2 km/h (1 Bft) 93,55 %
29.04.2017 10:34 7,1 C 8,9 C 85 % 1019,7 hPa 0,0 l/m 1,7 km/h (1 Bft) W-NW 301 2 min 0,000 mm 1,9 UV-I 559 W/m 4,8 C 7,1 C 6,4 km/h (2 Bft) 89,36 %
29.04.2017 10:36 7,3 C 8,9 C 84 % 1019,7 hPa 0,0 l/m 2,5 km/h (1 Bft) W 276 2 min 0,000 mm 2,0 UV-I 648 W/m 4,8 C 7,3 C 6,4 km/h (2 Bft) 95,12 %
29.04.2017 10:38 7,4 C 8,9 C 83 % 1019,7 hPa 0,0 l/m 3,3 km/h (1 Bft) W 261 2 min 0,000 mm 1,7 UV-I 451 W/m 4,7 C 7,4 C 9,7 km/h (2 Bft) 97,56 %
29.04.2017 10:40 7,4 C 8,9 C 80 % 1019,7 hPa 0,0 l/m 6,7 km/h (2 Bft) W 259 0 min 0,000 mm 1,4 UV-I 386 W/m 4,2 C 7,2 C 9,7 km/h (2 Bft) 94,64 %
29.04.2017 10:42 7,4 C 8,9 C 82 % 1019,7 hPa 0,0 l/m 3,6 km/h (1 Bft) W 272 0 min 0,000 mm 1,2 UV-I 287 W/m 4,5 C 7,4 C 6,4 km/h (2 Bft) 97,87 %
29.04.2017 10:44 7,5 C 8,9 C 82 % 1019,6 hPa 0,0 l/m 6,0 km/h (2 Bft) W-NW 301 0 min 0,000 mm 1,3 UV-I 272 W/m 4,6 C 7,5 C 11,3 km/h (2 Bft) 93,18 %
29.04.2017 10:46 7,4 C 8,9 C 81 % 1019,6 hPa 0,0 l/m 4,0 km/h (1 Bft) W-SW 258 0 min 0,000 mm 1,5 UV-I 320 W/m 4,4 C 7,4 C 9,7 km/h (2 Bft) 97,87 %
29.04.2017 10:48 7,4 C 8,9 C 82 % 1019,7 hPa 0,0 l/m 1,8 km/h (1 Bft) NW 321 2 min 0,000 mm 2,0 UV-I 426 W/m 4,5 C 7,4 C 4,8 km/h (1 Bft) 93,62 %
29.04.2017 10:50 7,6 C 8,9 C 83 % 1019,6 hPa 0,0 l/m 5,8 km/h (2 Bft) W 267 2 min 0,000 mm 1,9 UV-I 577 W/m 4,9 C 7,6 C 12,9 km/h (3 Bft) 97,14 %
29.04.2017 10:52 7,6 C 8,9 C 81 % 1019,6 hPa 0,0 l/m 8,3 km/h (2 Bft) W-NW 285 0 min 0,000 mm 1,8 UV-I 346 W/m 4,6 C 6,1 C 12,9 km/h (3 Bft) 98,11 %
29.04.2017 10:54 7,6 C 8,9 C 79 % 1019,6 hPa 0,0 l/m 6,9 km/h (2 Bft) SW 232 0 min 0,000 mm 1,9 UV-I 370 W/m 4,2 C 7,2 C 11,3 km/h (2 Bft) 94,00 %
29.04.2017 10:56 7,6 C 8,9 C 80 % 1019,6 hPa 0,0 l/m 5,5 km/h (1 Bft) W-SW 256 0 min 0,000 mm 2,1 UV-I 352 W/m 4,4 C 7,6 C 11,3 km/h (2 Bft) 94,00 %
29.04.2017 10:58 7,7 C 8,9 C 83 % 1019,5 hPa 0,0 l/m 5,7 km/h (1 Bft) W-SW 246 0 min 0,000 mm 2,6 UV-I 374 W/m 5,0 C 7,7 C 11,3 km/h (2 Bft) 100,00 %
29.04.2017 11:00 7,9 C 8,9 C 81 % 1019,5 hPa 0,0 l/m 4,9 km/h (1 Bft) W 259 2 min 0,178 mm 2,8 UV-I 949 W/m 4,8 C 7,9 C 9,7 km/h (2 Bft) 98,00 %
29.04.2017 11:02 8,2 C 8,9 C 82 % 1019,5 hPa 0,0 l/m 2,6 km/h (1 Bft) W 267 2 min 0,000 mm 2,7 UV-I 937 W/m 5,3 C 8,2 C 4,8 km/h (1 Bft) 98,00 %
29.04.2017 11:04 8,4 C 8,9 C 80 % 1019,5 hPa 0,0 l/m 2,9 km/h (1 Bft) W-NW 295 2 min 0,000 mm 1,8 UV-I 516 W/m 5,2 C 8,4 C 4,8 km/h (1 Bft) 100,00 %
29.04.2017 11:06 8,1 C 8,9 C 79 % 1019,5 hPa 0,0 l/m 1,6 km/h (1 Bft) NW 311 0 min 0,000 mm 1,3 UV-I 294 W/m 4,7 C 8,1 C 4,8 km/h (1 Bft) 95,24 %
29.04.2017 11:08 8,0 C 8,9 C 80 % 1019,5 hPa 0,0 l/m 4,5 km/h (1 Bft) W 271 0 min 0,000 mm 1,2 UV-I 243 W/m 4,8 C 8,0 C 8,0 km/h (2 Bft) 89,47 %
29.04.2017 11:10 7,8 C 8,9 C 80 % 1019,5 hPa 0,0 l/m 8,3 km/h (2 Bft) W 271 0 min 0,000 mm 1,2 UV-I 209 W/m 4,6 C 6,3 C 12,9 km/h (3 Bft) 100,00 %
29.04.2017 11:12 7,8 C 8,9 C 80 % 1019,5 hPa 0,0 l/m 7,3 km/h (2 Bft) W 261 0 min 0,000 mm 1,3 UV-I 194 W/m 4,6 C 7,1 C 12,9 km/h (3 Bft) 94,64 %
29.04.2017 11:14 7,6 C 8,9 C 81 % 1019,5 hPa 0,0 l/m 5,5 km/h (1 Bft) W-SW 248 0 min 0,000 mm 1,6 UV-I 196 W/m 4,6 C 7,6 C 9,7 km/h (2 Bft) 100,00 %
29.04.2017 11:16 7,6 C 8,9 C 80 % 1019,5 hPa 0,0 l/m 4,4 km/h (1 Bft) W-SW 238 0 min 0,000 mm 2,1 UV-I 251 W/m 4,4 C 7,6 C 8,0 km/h (2 Bft) 97,87 %
29.04.2017 11:18 7,7 C 8,9 C 80 % 1019,5 hPa 0,0 l/m 3,0 km/h (1 Bft) W 265 2 min 0,000 mm 2,9 UV-I 556 W/m 4,5 C 7,7 C 6,4 km/h (2 Bft) 100,00 %
29.04.2017 11:20 7,8 C 8,9 C 79 % 1019,4 hPa 0,0 l/m 4,2 km/h (1 Bft) W-SW 254 2 min 0,000 mm 3,2 UV-I 828 W/m 4,4 C 7,8 C 9,7 km/h (2 Bft) 98,39 %
29.04.2017 11:22 8,0 C 8,9 C 78 % 1019,4 hPa 0,0 l/m 2,3 km/h (1 Bft) N 350 2 min 0,000 mm 3,3 UV-I 864 W/m 4,4 C 8,0 C 11,3 km/h (2 Bft) 96,00 %
29.04.2017 11:24 8,3 C 8,9 C 81 % 1019,4 hPa 0,0 l/m 1,3 km/h (1 Bft) W-NW 300 2 min 0,000 mm 3,3 UV-I 896 W/m 5,2 C 8,3 C 4,8 km/h (1 Bft) 96,23 %
29.04.2017 11:26 8,6 C 8,9 C 77 % 1019,3 hPa 0,0 l/m 2,1 km/h (1 Bft) W 281 2 min 0,000 mm 3,2 UV-I 925 W/m 4,8 C 8,6 C 4,8 km/h (1 Bft) 97,37 %
29.04.2017 11:28 8,8 C 8,9 C 79 % 1019,3 hPa 0,0 l/m 5,2 km/h (1 Bft) S-SW 211 2 min 0,000 mm 3,0 UV-I 979 W/m 5,4 C 8,8 C 8,0 km/h (2 Bft) 95,74 %
29.04.2017 11:30 8,8 C 8,9 C 76 % 1019,3 hPa 0,0 l/m 4,1 km/h (1 Bft) W 277 2 min 0,000 mm 1,9 UV-I 863 W/m 4,8 C 8,8 C 8,0 km/h (2 Bft) 97,87 %
29.04.2017 11:32 8,7 C 8,9 C 78 % 1019,3 hPa 0,0 l/m 3,4 km/h (1 Bft) N 355 0 min 0,000 mm 1,3 UV-I 269 W/m 5,1 C 8,7 C 8,0 km/h (2 Bft) 96,00 %
29.04.2017 11:34 8,6 C 8,9 C 77 % 1019,3 hPa 0,0 l/m 2,9 km/h (1 Bft) NW 306 0 min 0,000 mm 1,5 UV-I 241 W/m 4,8 C 8,6 C 8,0 km/h (2 Bft) 98,00 %
29.04.2017 11:36 8,4 C 8,9 C 79 % 1019,3 hPa 0,0 l/m 2,9 km/h (1 Bft) W 279 0 min 0,000 mm 1,9 UV-I 310 W/m 5,0 C 8,4 C 6,4 km/h (2 Bft) 95,83 %
29.04.2017 11:38 8,4 C 8,9 C 80 % 1019,3 hPa 0,0 l/m 4,8 km/h (1 Bft) W 273 0 min 0,000 mm 2,0 UV-I 312 W/m 5,2 C 8,4 C 11,3 km/h (2 Bft) 97,01 %
29.04.2017 11:40 8,4 C 8,9 C 78 % 1019,3 hPa 0,0 l/m 2,3 km/h (1 Bft) SW 231 0 min 0,000 mm 2,0 UV-I 294 W/m 4,8 C 8,4 C 6,4 km/h (2 Bft) 100,00 %
29.04.2017 11:42 8,3 C 8,9 C 78 % 1019,4 hPa 0,0 l/m 4,6 km/h (1 Bft) NW 305 0 min 0,000 mm 2,0 UV-I 331 W/m 4,7 C 8,3 C 11,3 km/h (2 Bft) 100,00 %
29.04.2017 11:44 8,2 C 8,9 C 79 % 1019,4 hPa 0,0 l/m 2,4 km/h (1 Bft) N-NW 338 0 min 0,000 mm 2,1 UV-I 393 W/m 4,8 C 8,2 C 8,0 km/h (2 Bft) 100,00 %
29.04.2017 11:46 8,3 C 8,9 C 78 % 1019,3 hPa 0,0 l/m 0,8 km/h (0 Bft) N-NW 338 2 min 0,000 mm 2,1 UV-I 494 W/m 4,7 C 8,3 C 3,2 km/h (1 Bft) 100,00 %
29.04.2017 11:48 8,5 C 8,9 C 80 % 1019,3 hPa 0,0 l/m 2,6 km/h (1 Bft) NW 310 0 min 0,000 mm 1,6 UV-I 351 W/m 5,3 C 8,5 C 6,4 km/h (2 Bft) 94,34 %
29.04.2017 11:50 8,4 C 8,9 C 77 % 1019,2 hPa 0,0 l/m 3,0 km/h (1 Bft) W 271 0 min 0,000 mm 1,5 UV-I 230 W/m 4,6 C 8,4 C 6,4 km/h (2 Bft) 100,00 %
29.04.2017 11:52 8,3 C 8,9 C 77 % 1019,3 hPa 0,0 l/m 5,0 km/h (1 Bft) W-NW 288 0 min 0,000 mm 1,7 UV-I 214 W/m 4,5 C 8,3 C 11,3 km/h (2 Bft) 100,00 %
29.04.2017 11:54 8,2 C 8,9 C 77 % 1019,3 hPa 0,0 l/m 2,9 km/h (1 Bft) W-NW 296 0 min 0,000 mm 2,1 UV-I 255 W/m 4,4 C 8,2 C 6,4 km/h (2 Bft) 100,00 %
29.04.2017 11:56 8,1 C 8,9 C 78 % 1019,2 hPa 0,0 l/m 1,7 km/h (1 Bft) NW 310 0 min 0,000 mm 2,3 UV-I 256 W/m 4,5 C 8,1 C 4,8 km/h (1 Bft) 100,00 %
29.04.2017 11:58 8,1 C 8,9 C 78 % 1019,2 hPa 0,0 l/m 3,7 km/h (1 Bft) NW 304 0 min 0,000 mm 3,3 UV-I 352 W/m 4,5 C 8,1 C 9,7 km/h (2 Bft) 98,11 %
29.04.2017 12:00 8,3 C 8,9 C 77 % 1019,2 hPa 0,0 l/m 3,6 km/h (1 Bft) W 267 2 min 0,000 mm 3,6 UV-I 899 W/m 4,5 C 8,3 C 6,4 km/h (2 Bft) 100,00 %
29.04.2017 12:02 8,6 C 8,9 C 75 % 1019,2 hPa 0,0 l/m 3,9 km/h (1 Bft) W-NW 284 2 min 0,203 mm 3,6 UV-I 903 W/m 4,4 C 8,6 C 8,0 km/h (2 Bft) 100,00 %
29.04.2017 12:04 8,7 C 8,9 C 76 % 1019,2 hPa 0,0 l/m 4,5 km/h (1 Bft) W-NW 288 2 min 0,000 mm 3,8 UV-I 956 W/m 4,7 C 8,7 C 11,3 km/h (2 Bft) 93,62 %
29.04.2017 12:06 8,9 C 8,9 C 75 % 1019,1 hPa 0,0 l/m 3,7 km/h (1 Bft) W-NW 288 2 min 0,000 mm 3,8 UV-I 993 W/m 4,7 C 8,9 C 11,3 km/h (2 Bft) 98,00 %
29.04.2017 12:08 9,2 C 8,9 C 75 % 1019,0 hPa 0,0 l/m 4,7 km/h (1 Bft) W 268 2 min 0,000 mm 3,7 UV-I 1024 W/m 5,0 C 9,2 C 14,5 km/h (3 Bft) 97,56 %
29.04.2017 12:10 9,2 C 8,9 C 73 % 1019,0 hPa 0,0 l/m 7,6 km/h (2 Bft) W-NW 289 2 min 0,000 mm 3,2 UV-I 1021 W/m 4,6 C 8,3 C 12,9 km/h (3 Bft) 100,00 %
29.04.2017 12:12 9,1 C 8,9 C 73 % 1019,0 hPa 0,0 l/m 10,2 km/h (2 Bft) W-NW 286 2 min 0,000 mm 2,0 UV-I 562 W/m 4,5 C 6,5 C 16,1 km/h (3 Bft) 100,00 %
29.04.2017 12:14 8,9 C 8,9 C 75 % 1018,9 hPa 0,0 l/m 5,6 km/h (1 Bft) W 278 0 min 0,000 mm 1,9 UV-I 234 W/m 4,7 C 8,9 C 12,9 km/h (3 Bft) 96,61 %
29.04.2017 12:16 8,9 C 8,9 C 75 % 1019,0 hPa 0,0 l/m 4,9 km/h (1 Bft) W 272 0 min 0,000 mm 1,9 UV-I 218 W/m 4,7 C 8,9 C 6,4 km/h (2 Bft) 97,37 %
29.04.2017 12:18 8,8 C 8,9 C 73 % 1018,9 hPa 0,0 l/m 4,4 km/h (1 Bft) W 273 0 min 0,000 mm 2,0 UV-I 195 W/m 4,2 C 8,8 C 9,7 km/h (2 Bft) 95,74 %
29.04.2017 12:20 8,7 C 8,9 C 75 % 1018,9 hPa 0,0 l/m 3,7 km/h (1 Bft) W-NW 291 0 min 0,000 mm 2,1 UV-I 188 W/m 4,5 C 8,7 C 6,4 km/h (2 Bft) 100,00 %
29.04.2017 12:22 8,6 C 8,9 C 76 % 1018,9 hPa 0,0 l/m 5,0 km/h (1 Bft) W 265 0 min 0,000 mm 2,8 UV-I 195 W/m 4,6 C 8,6 C 11,3 km/h (2 Bft) 96,43 %
29.04.2017 12:24 8,8 C 8,9 C 76 % 1018,9 hPa 0,0 l/m 1,5 km/h (1 Bft) NW 316 0 min 0,000 mm 3,4 UV-I 360 W/m 4,8 C 8,8 C 4,8 km/h (1 Bft) 92,00 %
29.04.2017 12:26 9,3 C 8,9 C 77 % 1018,9 hPa 0,0 l/m 2,0 km/h (1 Bft) S 169 2 min 0,000 mm 3,7 UV-I 957 W/m 5,5 C 9,3 C 4,8 km/h (1 Bft) 97,73 %
29.04.2017 12:28 9,7 C 8,9 C 73 % 1018,9 hPa 0,0 l/m 6,8 km/h (2 Bft) W 277 2 min 0,000 mm 3,8 UV-I 1006 W/m 5,1 C 9,4 C 12,9 km/h (3 Bft) 97,73 %
29.04.2017 12:30 9,7 C 9,4 C 71 % 1018,8 hPa 0,0 l/m 3,3 km/h (1 Bft) N-NW 336 2 min 0,000 mm 3,7 UV-I 1002 W/m 4,7 C 9,7 C 9,7 km/h (2 Bft) 98,00 %
29.04.2017 12:32 9,7 C 9,4 C 73 % 1018,8 hPa 0,0 l/m 0,8 km/h (0 Bft) NW 304 2 min 0,000 mm 3,1 UV-I 961 W/m 5,1 C 9,7 C 3,2 km/h (1 Bft) 98,00 %
29.04.2017 12:34 9,7 C 9,4 C 71 % 1018,8 hPa 0,0 l/m 5,1 km/h (1 Bft) S-SW 195 2 min 0,000 mm 1,9 UV-I 584 W/m 4,7 C 9,7 C 11,3 km/h (2 Bft) 93,62 %
29.04.2017 12:36 9,6 C 9,4 C 71 % 1018,7 hPa 0,0 l/m 7,9 km/h (2 Bft) SW 234 0 min 0,000 mm 1,6 UV-I 269 W/m 4,6 C 8,5 C 12,9 km/h (3 Bft) 92,68 %
29.04.2017 12:38 9,4 C 9,4 C 70 % 1018,7 hPa 0,0 l/m 1,9 km/h (1 Bft) S 184 0 min 0,000 mm 1,4 UV-I 231 W/m 4,2 C 9,4 C 4,8 km/h (1 Bft) 94,00 %
29.04.2017 12:40 9,3 C 9,4 C 71 % 1018,7 hPa 0,0 l/m 3,5 km/h (1 Bft) S-SW 213 0 min 0,000 mm 1,2 UV-I 205 W/m 4,3 C 9,3 C 8,0 km/h (2 Bft) 92,68 %
29.04.2017 12:42 9,3 C 9,4 C 72 % 1018,7 hPa 0,0 l/m 2,8 km/h (1 Bft) W-SW 254 0 min 0,000 mm 1,0 UV-I 184 W/m 4,5 C 9,3 C 6,4 km/h (2 Bft) 96,00 %
29.04.2017 12:44 9,2 C 9,4 C 71 % 1018,7 hPa 0,0 l/m 1,5 km/h (1 Bft) NW 317 0 min 0,000 mm 0,9 UV-I 166 W/m 4,2 C 9,2 C 6,4 km/h (2 Bft) 94,00 %
29.04.2017 12:46 9,0 C 9,4 C 73 % 1018,7 hPa 0,0 l/m 3,4 km/h (1 Bft) NW 322 0 min 0,000 mm 0,9 UV-I 157 W/m 4,4 C 9,0 C 6,4 km/h (2 Bft) 95,74 %
29.04.2017 12:48 8,8 C 9,4 C 75 % 1018,7 hPa 0,0 l/m 2,7 km/h (1 Bft) W-NW 303 0 min 0,000 mm 0,9 UV-I 158 W/m 4,6 C 8,8 C 6,4 km/h (2 Bft) 100,00 %
29.04.2017 12:50 8,7 C 9,4 C 77 % 1018,7 hPa 0,0 l/m 2,5 km/h (1 Bft) W-SW 238 0 min 0,000 mm 0,9 UV-I 171 W/m 4,9 C 8,7 C 4,8 km/h (1 Bft) 100,00 %
29.04.2017 12:52 8,7 C 9,4 C 80 % 1018,7 hPa 0,0 l/m 0,4 km/h (0 Bft) W-SW 239 0 min 0,000 mm 1,0 UV-I 189 W/m 5,4 C 8,7 C 1,6 km/h (1 Bft) 100,00 %
29.04.2017 12:54 8,7 C 9,4 C 80 % 1018,7 hPa 0,0 l/m 2,9 km/h (1 Bft) SW 233 0 min 0,000 mm 1,1 UV-I 203 W/m 5,4 C 8,7 C 6,4 km/h (2 Bft) 98,11 %
29.04.2017 12:56 8,6 C 9,4 C 76 % 1018,7 hPa 0,0 l/m 4,6 km/h (1 Bft) W-SW 238 0 min 0,000 mm 1,2 UV-I 223 W/m 4,6 C 8,6 C 11,3 km/h (2 Bft) 100,00 %
29.04.2017 12:58 8,6 C 9,4 C 77 % 1018,7 hPa 0,0 l/m 4,3 km/h (1 Bft) W-SW 257 0 min 0,000 mm 1,3 UV-I 239 W/m 4,8 C 8,6 C 6,4 km/h (2 Bft) 98,11 %
29.04.2017 13:00 8,7 C 9,4 C 79 % 1018,7 hPa 0,0 l/m 1,9 km/h (1 Bft) S-SO 163 0 min 0,229 mm 1,4 UV-I 258 W/m 5,3 C 8,7 C 4,8 km/h (1 Bft) 100,00 %
29.04.2017 13:02 8,6 C 9,4 C 77 % 1018,7 hPa 0,0 l/m 5,5 km/h (1 Bft) S 182 0 min 0,000 mm 1,5 UV-I 283 W/m 4,8 C 8,6 C 9,7 km/h (2 Bft) 96,00 %
29.04.2017 13:04 8,4 C 9,4 C 75 % 1018,7 hPa 0,0 l/m 4,3 km/h (1 Bft) S-SO 148 0 min 0,000 mm 1,7 UV-I 304 W/m 4,2 C 8,4 C 12,9 km/h (3 Bft) 100,00 %
29.04.2017 13:06 8,4 C 9,4 C 78 % 1018,7 hPa 0,0 l/m 6,2 km/h (2 Bft) S 179 0 min 0,000 mm 1,7 UV-I 301 W/m 4,8 C 8,4 C 11,3 km/h (2 Bft) 98,00 %
29.04.2017 13:08 8,3 C 9,4 C 76 % 1018,6 hPa 0,0 l/m 5,9 km/h (2 Bft) S-SW 207 0 min 0,000 mm 1,7 UV-I 285 W/m 4,3 C 8,3 C 9,7 km/h (2 Bft) 100,00 %
29.04.2017 13:10 8,3 C 9,4 C 76 % 1018,7 hPa 0,0 l/m 5,1 km/h (1 Bft) SW 219 0 min 0,000 mm 1,8 UV-I 297 W/m 4,3 C 8,3 C 9,7 km/h (2 Bft) 100,00 %
29.04.2017 13:12 8,3 C 9,4 C 77 % 1018,6 hPa 0,0 l/m 7,1 km/h (2 Bft) S-SW 211 0 min 0,000 mm 2,1 UV-I 382 W/m 4,5 C 7,8 C 11,3 km/h (2 Bft) 100,00 %
29.04.2017 13:14 8,4 C 9,4 C 77 % 1018,6 hPa 0,0 l/m 5,7 km/h (1 Bft) S-SW 200 0 min 0,000 mm 2,9 UV-I 448 W/m 4,6 C 8,4 C 9,7 km/h (2 Bft) 100,00 %
29.04.2017 13:16 8,8 C 9,4 C 77 % 1018,6 hPa 0,0 l/m 5,7 km/h (1 Bft) S-SW 196 2 min 0,000 mm 3,4 UV-I 760 W/m 5,0 C 8,8 C 9,7 km/h (2 Bft) 95,74 %
29.04.2017 13:18 8,9 C 9,4 C 75 % 1018,5 hPa 0,0 l/m 4,6 km/h (1 Bft) S-SW 207 2 min 0,000 mm 3,7 UV-I 995 W/m 4,7 C 8,9 C 6,4 km/h (2 Bft) 95,74 %
29.04.2017 13:20 9,4 C 9,4 C 76 % 1018,5 hPa 0,0 l/m 6,5 km/h (2 Bft) S-SW 196 2 min 0,000 mm 3,7 UV-I 1070 W/m 5,4 C 9,4 C 9,7 km/h (2 Bft) 97,56 %
29.04.2017 13:22 9,4 C 9,4 C 71 % 1018,5 hPa 0,0 l/m 4,1 km/h (1 Bft) S-SW 200 2 min 0,000 mm 3,5 UV-I 1085 W/m 4,4 C 9,4 C 8,0 km/h (2 Bft) 100,00 %
29.04.2017 13:24 9,6 C 9,4 C 72 % 1018,5 hPa 0,0 l/m 3,9 km/h (1 Bft) S 176 2 min 0,000 mm 2,7 UV-I 1076 W/m 4,8 C 9,6 C 8,0 km/h (2 Bft) 97,37 %
29.04.2017 13:26 9,3 C 9,4 C 69 % 1018,5 hPa 0,0 l/m 4,6 km/h (1 Bft) W-SW 255 0 min 0,000 mm 1,4 UV-I 335 W/m 3,9 C 9,3 C 6,4 km/h (2 Bft) 98,00 %
29.04.2017 13:28 9,2 C 9,4 C 72 % 1018,6 hPa 0,0 l/m 3,8 km/h (1 Bft) S-SO 159 0 min 0,000 mm 1,0 UV-I 212 W/m 4,4 C 9,2 C 6,4 km/h (2 Bft) 95,74 %
29.04.2017 13:30 9,0 C 9,4 C 73 % 1018,6 hPa 0,0 l/m 4,8 km/h (1 Bft) S-SW 202 0 min 0,000 mm 0,9 UV-I 189 W/m 4,4 C 9,0 C 9,7 km/h (2 Bft) 95,61 %
29.04.2017 13:34 8,7 C 9,4 C 73 % 1018,6 hPa 0,0 l/m 5,0 km/h (1 Bft) S-SW 205 0 min 0,000 mm 0,4 UV-I 111 W/m 4,1 C 8,7 C 8,0 km/h (2 Bft) 98,08 %
29.04.2017 13:36 8,6 C 9,4 C 75 % 1018,6 hPa 0,0 l/m 4,8 km/h (1 Bft) S-SO 164 0 min 0,000 mm 0,0 UV-I 106 W/m 4,4 C 8,6 C 8,0 km/h (2 Bft) 97,56 %
29.04.2017 13:38 8,5 C 9,4 C 76 % 1018,6 hPa 0,0 l/m 6,4 km/h (2 Bft) S-SW 205 0 min 0,000 mm 0,4 UV-I 116 W/m 4,5 C 8,5 C 8,0 km/h (2 Bft) 96,00 %
29.04.2017 13:40 8,4 C 9,4 C 77 % 1018,6 hPa 0,0 l/m 4,5 km/h (1 Bft) S-SW 207 0 min 0,000 mm 0,6 UV-I 147 W/m 4,6 C 8,4 C 6,4 km/h (2 Bft) 95,74 %
29.04.2017 13:42 8,4 C 9,4 C 76 % 1018,6 hPa 0,0 l/m 3,6 km/h (1 Bft) S-SW 194 0 min 0,000 mm 0,9 UV-I 176 W/m 4,4 C 8,4 C 9,7 km/h (2 Bft) 100,00 %
29.04.2017 13:44 8,4 C 9,4 C 76 % 1018,6 hPa 0,0 l/m 2,7 km/h (1 Bft) S-SW 194 0 min 0,000 mm 0,9 UV-I 199 W/m 4,4 C 8,4 C 4,8 km/h (1 Bft) 93,62 %
29.04.2017 13:46 8,4 C 9,4 C 76 % 1018,6 hPa 0,0 l/m 1,0 km/h (0 Bft) S-SW 194 0 min 0,000 mm 1,1 UV-I 213 W/m 4,4 C 8,4 C 3,2 km/h (1 Bft) 98,11 %
29.04.2017 13:48 8,4 C 9,4 C 75 % 1018,6 hPa 0,0 l/m 2,2 km/h (1 Bft) S-SW 200 0 min 0,000 mm 1,1 UV-I 211 W/m 4,2 C 8,4 C 8,0 km/h (2 Bft) 95,74 %
29.04.2017 13:50 8,4 C 9,4 C 77 % 1018,5 hPa 0,0 l/m 3,6 km/h (1 Bft) S-SW 200 0 min 0,000 mm 1,0 UV-I 189 W/m 4,6 C 8,4 C 6,4 km/h (2 Bft) 97,37 %
29.04.2017 13:52 8,5 C 9,4 C 77 % 1018,6 hPa 0,0 l/m 2,6 km/h (1 Bft) S-SW 200 0 min 0,000 mm 0,8 UV-I 166 W/m 4,7 C 8,5 C 4,8 km/h (1 Bft) 100,00 %
29.04.2017 13:54 8,4 C 9,4 C 76 % 1018,5 hPa 0,0 l/m 2,3 km/h (1 Bft) S 182 0 min 0,000 mm 0,7 UV-I 149 W/m 4,4 C 8,4 C 4,8 km/h (1 Bft) 94,87 %
29.04.2017 13:56 8,5 C 9,4 C 76 % 1018,6 hPa 0,0 l/m 2,7 km/h (1 Bft) S 182 0 min 0,000 mm 0,7 UV-I 133 W/m 4,5 C 8,5 C 4,8 km/h (1 Bft) 96,00 %
29.04.2017 13:58 8,5 C 9,4 C 75 % 1018,6 hPa 0,0 l/m 2,9 km/h (1 Bft) S 182 0 min 0,000 mm 0,5 UV-I 119 W/m 4,3 C 8,5 C 4,8 km/h (1 Bft) 98,00 %
29.04.2017 14:00 8,5 C 9,4 C 76 % 1018,6 hPa 0,0 l/m 3,0 km/h (1 Bft) W-SW 255 0 min 0,152 mm 0,5 UV-I 107 W/m 4,5 C 8,5 C 4,8 km/h (1 Bft) 95,74 %
29.04.2017 14:02 8,5 C 9,4 C 77 % 1018,6 hPa 0,0 l/m 3,8 km/h (1 Bft) W-SW 255 0 min 0,000 mm 0,3 UV-I 105 W/m 4,7 C 8,5 C 8,0 km/h (2 Bft) 94,29 %
29.04.2017 14:04 8,6 C 9,4 C 79 % 1018,6 hPa 0,0 l/m 4,9 km/h (1 Bft) W-SW 240 0 min 0,000 mm 0,5 UV-I 118 W/m 5,2 C 8,6 C 9,7 km/h (2 Bft) 93,85 %
29.04.2017 14:06 8,5 C 9,4 C 80 % 1018,6 hPa 0,0 l/m 7,5 km/h (2 Bft) W 274 0 min 0,000 mm 0,6 UV-I 141 W/m 5,3 C 7,6 C 16,1 km/h (3 Bft) 94,29 %
29.04.2017 14:08 8,3 C 9,4 C 80 % 1018,7 hPa 0,4 l/m 9,0 km/h (2 Bft) W-NW 292 0 min 0,000 mm 0,8 UV-I 183 W/m 5,1 C 6,4 C 14,5 km/h (3 Bft) 91,53 %
29.04.2017 14:10 7,8 C 9,4 C 74 % 1018,6 hPa 0,4 l/m 4,2 km/h (1 Bft) W 279 0 min 0,000 mm 1,1 UV-I 237 W/m 3,5 C 7,8 C 9,7 km/h (2 Bft) 95,74 %
29.04.2017 14:12 7,7 C 9,4 C 77 % 1018,5 hPa 0,0 l/m 5,9 km/h (2 Bft) NO 36 0 min 0,000 mm 1,4 UV-I 305 W/m 3,9 C 7,7 C 9,7 km/h (2 Bft) 97,14 %
29.04.2017 14:14 7,7 C 9,4 C 80 % 1018,5 hPa 0,0 l/m 2,1 km/h (1 Bft) NO 42 0 min 0,000 mm 1,8 UV-I 379 W/m 4,5 C 7,7 C 6,4 km/h (2 Bft) 94,00 %
29.04.2017 14:16 7,8 C 9,4 C 80 % 1018,5 hPa 0,2 l/m 1,5 km/h (1 Bft) NO 42 2 min 0,000 mm 2,2 UV-I 518 W/m 4,6 C 7,8 C 3,2 km/h (1 Bft) 89,36 %
29.04.2017 14:18 7,9 C 9,4 C 79 % 1018,5 hPa 0,0 l/m 0,8 km/h (0 Bft) NO 42 2 min 0,000 mm 2,6 UV-I 630 W/m 4,5 C 7,9 C 3,2 km/h (1 Bft) 93,62 %
29.04.2017 14:20 8,3 C 9,4 C 83 % 1018,5 hPa 0,0 l/m 2,3 km/h (1 Bft) O 80 2 min 0,000 mm 2,9 UV-I 737 W/m 5,6 C 8,3 C 6,4 km/h (2 Bft) 94,00 %
29.04.2017 14:22 8,6 C 9,4 C 79 % 1018,5 hPa 0,0 l/m 2,2 km/h (1 Bft) O 96 2 min 0,000 mm 3,1 UV-I 762 W/m 5,2 C 8,6 C 4,8 km/h (1 Bft) 88,00 %
29.04.2017 14:24 8,7 C 9,4 C 78 % 1018,5 hPa 0,0 l/m 1,5 km/h (1 Bft) O-SO 117 2 min 0,000 mm 3,2 UV-I 803 W/m 5,1 C 8,7 C 4,8 km/h (1 Bft) 91,43 %
29.04.2017 14:26 8,9 C 9,4 C 75 % 1018,5 hPa 0,0 l/m 1,2 km/h (1 Bft) O-SO 117 2 min 0,000 mm 3,5 UV-I 858 W/m 4,7 C 8,9 C 3,2 km/h (1 Bft) 96,23 %
29.04.2017 14:28 9,2 C 9,4 C 75 % 1018,4 hPa 0,0 l/m 1,4 km/h (1 Bft) SO 130 2 min 0,000 mm 3,5 UV-I 959 W/m 5,0 C 9,2 C 4,8 km/h (1 Bft) 94,00 %
29.04.2017 14:30 9,3 C 9,4 C 72 % 1018,4 hPa 0,0 l/m 1,6 km/h (1 Bft) SO 133 2 min 0,000 mm 3,5 UV-I 964 W/m 4,5 C 9,3 C 3,2 km/h (1 Bft) 95,12 %
29.04.2017 14:32 9,3 C 9,4 C 75 % 1018,4 hPa 0,0 l/m 1,9 km/h (1 Bft) SO 134 2 min 0,000 mm 3,3 UV-I 972 W/m 5,1 C 9,3 C 3,2 km/h (1 Bft) 96,23 %
29.04.2017 14:34 9,3 C 9,4 C 73 % 1018,3 hPa 0,0 l/m 1,4 km/h (1 Bft) SO 134 2 min 0,000 mm 2,4 UV-I 506 W/m 4,7 C 9,3 C 3,2 km/h (1 Bft) 94,00 %
29.04.2017 14:36 9,3 C 9,4 C 72 % 1018,4 hPa 0,0 l/m 0,0 km/h (0 Bft) SO 134 0 min 0,000 mm 2,4 UV-I 336 W/m 4,5 C 9,3 C 0,0 km/h (0 Bft) 97,22 %
29.04.2017 14:38 9,4 C 9,4 C 71 % 1018,4 hPa 0,0 l/m 1,2 km/h (1 Bft) SO 134 0 min 0,000 mm 2,3 UV-I 336 W/m 4,4 C 9,4 C 3,2 km/h (1 Bft) 94,00 %
29.04.2017 14:40 9,6 C 9,4 C 76 % 1018,3 hPa 0,0 l/m 0,0 km/h (0 Bft) SO 134 0 min 0,000 mm 1,8 UV-I 274 W/m 5,6 C 9,6 C 1,6 km/h (1 Bft) 94,00 %
29.04.2017 14:42 9,6 C 9,4 C 71 % 1018,3 hPa 0,0 l/m 1,1 km/h (1 Bft) O-SO 115 0 min 0,000 mm 1,6 UV-I 216 W/m 4,6 C 9,6 C 3,2 km/h (1 Bft) 94,74 %
29.04.2017 14:44 9,5 C 9,4 C 73 % 1018,3 hPa 0,0 l/m 1,9 km/h (1 Bft) O-SO 107 0 min 0,000 mm 1,5 UV-I 200 W/m 4,9 C 9,5 C 4,8 km/h (1 Bft) 90,57 %
29.04.2017 14:46 9,3 C 9,4 C 72 % 1018,3 hPa 0,0 l/m 1,1 km/h (1 Bft) O-SO 107 0 min 0,000 mm 1,4 UV-I 193 W/m 4,5 C 9,3 C 3,2 km/h (1 Bft) 95,74 %
29.04.2017 14:48 9,4 C 9,4 C 74 % 1018,3 hPa 0,0 l/m 0,6 km/h (0 Bft) O-SO 109 0 min 0,000 mm 1,4 UV-I 188 W/m 5,0 C 9,4 C 3,2 km/h (1 Bft) 90,00 %
29.04.2017 14:50 9,3 C 9,4 C 71 % 1018,2 hPa 0,0 l/m 1,1 km/h (1 Bft) O-SO 111 0 min 0,000 mm 1,3 UV-I 186 W/m 4,3 C 9,3 C 4,8 km/h (1 Bft) 94,74 %
29.04.2017 14:52 9,3 C 9,4 C 71 % 1018,3 hPa 0,0 l/m 2,4 km/h (1 Bft) W-SW 244 0 min 0,000 mm 1,2 UV-I 187 W/m 4,3 C 9,3 C 4,8 km/h (1 Bft) 98,11 %
29.04.2017 14:54 9,3 C 9,4 C 72 % 1018,2 hPa 0,0 l/m 1,4 km/h (1 Bft) W-SW 244 0 min 0,000 mm 1,2 UV-I 194 W/m 4,5 C 9,3 C 3,2 km/h (1 Bft) 95,74 %
29.04.2017 14:56 9,3 C 9,4 C 71 % 1018,2 hPa 0,0 l/m 0,1 km/h (0 Bft) W-SW 244 0 min 0,000 mm 1,1 UV-I 200 W/m 4,3 C 9,3 C 1,6 km/h (1 Bft) 94,00 %
29.04.2017 14:58 9,3 C 9,4 C 72 % 1018,1 hPa 0,0 l/m 0,0 km/h (0 Bft) W-SW 244 0 min 0,000 mm 1,1 UV-I 206 W/m 4,5 C 9,3 C 1,6 km/h (1 Bft) 97,56 %
29.04.2017 15:00 9,3 C 9,4 C 76 % 1018,1 hPa 0,0 l/m 1,1 km/h (1 Bft) W-SW 244 0 min 0,203 mm 1,1 UV-I 221 W/m 5,3 C 9,3 C 3,2 km/h (1 Bft) 96,00 %
29.04.2017 15:02 9,4 C 9,4 C 75 % 1018,0 hPa 0,0 l/m 2,3 km/h (1 Bft) W-SW 243 0 min 0,000 mm 1,2 UV-I 239 W/m 5,2 C 9,4 C 4,8 km/h (1 Bft) 100,00 %
29.04.2017 15:04 9,4 C 9,4 C 77 % 1018,0 hPa 0,0 l/m 1,9 km/h (1 Bft) S 185 0 min 0,000 mm 1,2 UV-I 258 W/m 5,6 C 9,4 C 4,8 km/h (1 Bft) 94,23 %
29.04.2017 15:06 9,4 C 9,4 C 75 % 1018,1 hPa 0,0 l/m 3,2 km/h (1 Bft) S 181 0 min 0,000 mm 1,3 UV-I 290 W/m 5,2 C 9,4 C 4,8 km/h (1 Bft) 98,11 %
29.04.2017 15:08 9,4 C 9,4 C 72 % 1018,1 hPa 0,0 l/m 3,1 km/h (1 Bft) S 180 2 min 0,000 mm 1,8 UV-I 444 W/m 4,6 C 9,4 C 4,8 km/h (1 Bft) 100,00 %
29.04.2017 15:10 9,6 C 9,4 C 73 % 1018,1 hPa 0,0 l/m 2,5 km/h (1 Bft) SO 146 2 min 0,000 mm 2,4 UV-I 912 W/m 5,0 C 9,6 C 8,0 km/h (2 Bft) 95,52 %
29.04.2017 15:12 9,9 C 9,4 C 74 % 1018,1 hPa 0,0 l/m 2,8 km/h (1 Bft) NO 55 2 min 0,000 mm 2,3 UV-I 975 W/m 5,5 C 9,9 C 6,4 km/h (2 Bft) 96,23 %
29.04.2017 15:14 10,1 C 9,4 C 74 % 1018,1 hPa 0,0 l/m 1,8 km/h (1 Bft) NO 55 2 min 0,000 mm 1,9 UV-I 576 W/m 5,7 C 10,1 C 4,8 km/h (1 Bft) 97,22 %
29.04.2017 15:16 10,2 C 9,4 C 73 % 1018,1 hPa 0,0 l/m 4,5 km/h (1 Bft) NO 49 0 min 0,000 mm 1,5 UV-I 340 W/m 5,6 C 10,2 C 8,0 km/h (2 Bft) 95,74 %
29.04.2017 15:18 10,2 C 9,4 C 74 % 1018,1 hPa 0,0 l/m 3,6 km/h (1 Bft) NO 35 0 min 0,000 mm 1,4 UV-I 309 W/m 5,8 C 10,2 C 6,4 km/h (2 Bft) 98,00 %
29.04.2017 15:20 10,0 C 9,4 C 68 % 1018,1 hPa 0,0 l/m 0,2 km/h (0 Bft) NO 35 0 min 0,000 mm 1,3 UV-I 292 W/m 4,4 C 10,0 C 1,6 km/h (1 Bft) 98,00 %
29.04.2017 15:22 9,8 C 9,4 C 72 % 1018,1 hPa 0,0 l/m 0,0 km/h (0 Bft) NO 35 0 min 0,000 mm 1,3 UV-I 293 W/m 5,0 C 9,8 C 0,0 km/h (0 Bft) 95,74 %
29.04.2017 15:24 9,8 C 9,4 C 72 % 1018,1 hPa 0,0 l/m 0,1 km/h (0 Bft) N-NO 32 0 min 0,000 mm 1,3 UV-I 292 W/m 5,0 C 9,8 C 1,6 km/h (1 Bft) 97,87 %
29.04.2017 15:26 9,8 C 9,4 C 72 % 1018,1 hPa 0,0 l/m 0,5 km/h (0 Bft) N-NO 31 0 min 0,000 mm 1,2 UV-I 288 W/m 5,0 C 9,8 C 3,2 km/h (1 Bft) 98,00 %
29.04.2017 15:28 9,8 C 9,4 C 72 % 1018,1 hPa 0,0 l/m 1,5 km/h (1 Bft) N-NO 31 0 min 0,000 mm 1,2 UV-I 285 W/m 5,0 C 9,8 C 4,8 km/h (1 Bft) 97,56 %
29.04.2017 15:30 9,8 C 9,4 C 72 % 1018,1 hPa 0,0 l/m 0,2 km/h (0 Bft) N-NO 31 0 min 0,000 mm 1,2 UV-I 273 W/m 5,0 C 9,8 C 1,6 km/h (1 Bft) 98,00 %
29.04.2017 15:32 9,8 C 9,4 C 73 % 1018,0 hPa 0,0 l/m 0,6 km/h (0 Bft) N-NO 31 0 min 0,000 mm 1,1 UV-I 255 W/m 5,2 C 9,8 C 3,2 km/h (1 Bft) 95,12 %
29.04.2017 15:34 9,8 C 9,4 C 73 % 1018,0 hPa 0,0 l/m 0,4 km/h (0 Bft) N-NO 29 0 min 0,000 mm 1,0 UV-I 236 W/m 5,2 C 9,8 C 4,8 km/h (1 Bft) 97,37 %
29.04.2017 15:36 9,8 C 9,4 C 74 % 1018,1 hPa 0,0 l/m 4,6 km/h (1 Bft) W-SW 253 0 min 0,000 mm 0,9 UV-I 218 W/m 5,4 C 9,8 C 6,4 km/h (2 Bft) 98,46 %
29.04.2017 15:38 9,8 C 9,4 C 71 % 1018,0 hPa 0,0 l/m 10,6 km/h (2 Bft) SW 232 0 min 0,000 mm 0,8 UV-I 205 W/m 4,8 C 7,0 C 19,3 km/h (3 Bft) 97,87 %
29.04.2017 15:40 9,7 C 9,4 C 73 % 1018,0 hPa 0,0 l/m 14,1 km/h (3 Bft) W-SW 257 0 min 0,000 mm 0,8 UV-I 198 W/m 5,1 C 5,2 C 22,5 km/h (4 Bft) 95,12 %
29.04.2017 15:42 9,6 C 9,4 C 72 % 1018,0 hPa 0,0 l/m 10,7 km/h (2 Bft) W-NW 284 0 min 0,000 mm 0,8 UV-I 194 W/m 4,8 C 6,8 C 16,1 km/h (3 Bft) 98,04 %
29.04.2017 15:44 9,5 C 9,4 C 72 % 1018,0 hPa 0,0 l/m 9,8 km/h (2 Bft) W-SW 246 0 min 0,000 mm 0,8 UV-I 190 W/m 4,7 C 7,2 C 16,1 km/h (3 Bft) 94,29 %
29.04.2017 15:46 9,4 C 9,4 C 70 % 1018,0 hPa 0,0 l/m 8,7 km/h (2 Bft) SW 235 0 min 0,000 mm 0,8 UV-I 189 W/m 4,2 C 7,7 C 14,5 km/h (3 Bft) 94,64 %
29.04.2017 15:48 9,4 C 9,4 C 71 % 1018,0 hPa 0,0 l/m 6,3 km/h (2 Bft) W-SW 245 0 min 0,000 mm 0,8 UV-I 195 W/m 4,4 C 9,4 C 9,7 km/h (2 Bft) 96,00 %
29.04.2017 15:50 9,3 C 9,4 C 70 % 1018,0 hPa 0,0 l/m 5,7 km/h (1 Bft) W 265 0 min 0,000 mm 0,8 UV-I 206 W/m 4,1 C 9,3 C 9,7 km/h (2 Bft) 95,00 %
29.04.2017 15:52 9,3 C 9,4 C 68 % 1018,0 hPa 0,0 l/m 5,7 km/h (1 Bft) W 263 0 min 0,000 mm 0,9 UV-I 221 W/m 3,7 C 9,3 C 11,3 km/h (2 Bft) 94,34 %
29.04.2017 15:54 9,3 C 9,4 C 66 % 1018,0 hPa 0,0 l/m 2,8 km/h (1 Bft) W 267 0 min 0,000 mm 1,0 UV-I 242 W/m 3,3 C 9,3 C 6,4 km/h (2 Bft) 93,62 %
29.04.2017 15:56 9,3 C 9,4 C 70 % 1018,0 hPa 0,0 l/m 4,3 km/h (1 Bft) W 263 0 min 0,000 mm 1,0 UV-I 264 W/m 4,1 C 9,3 C 6,4 km/h (2 Bft) 89,74 %
29.04.2017 15:58 9,3 C 9,4 C 67 % 1018,0 hPa 0,0 l/m 4,4 km/h (1 Bft) W 276 0 min 0,000 mm 1,1 UV-I 287 W/m 3,5 C 9,3 C 6,4 km/h (2 Bft) 96,00 %
29.04.2017 16:00 9,4 C 9,4 C 66 % 1018,0 hPa 0,0 l/m 3,5 km/h (1 Bft) W-SW 246 0 min 0,000 mm 1,2 UV-I 320 W/m 3,4 C 9,4 C 6,4 km/h (2 Bft) 100,00 %
29.04.2017 16:02 9,7 C 9,4 C 65 % 1018,0 hPa 0,0 l/m 4,4 km/h (1 Bft) W-SW 246 2 min 0,153 mm 1,3 UV-I 369 W/m 3,4 C 9,7 C 6,4 km/h (2 Bft) 98,00 %
29.04.2017 16:04 9,8 C 9,4 C 63 % 1018,0 hPa 0,0 l/m 2,8 km/h (1 Bft) W-SW 248 2 min 0,000 mm 1,5 UV-I 408 W/m 3,1 C 9,8 C 4,8 km/h (1 Bft) 96,00 %
29.04.2017 16:06 10,1 C 9,4 C 63 % 1018,0 hPa 0,0 l/m 4,6 km/h (1 Bft) W-SW 248 2 min 0,000 mm 1,8 UV-I 538 W/m 3,4 C 10,1 C 6,4 km/h (2 Bft) 97,87 %
29.04.2017 16:08 10,3 C 9,4 C 59 % 1018,0 hPa 0,0 l/m 3,1 km/h (1 Bft) W-SW 248 2 min 0,000 mm 2,0 UV-I 763 W/m 2,6 C 10,3 C 4,8 km/h (1 Bft) 100,00 %
29.04.2017 16:10 10,5 C 9,4 C 60 % 1018,0 hPa 0,0 l/m 2,3 km/h (1 Bft) S-SW 212 2 min 0,000 mm 2,0 UV-I 763 W/m 3,1 C 10,5 C 8,0 km/h (2 Bft) 100,00 %
29.04.2017 16:12 10,5 C 10,0 C 56 % 1018,0 hPa 0,0 l/m 4,0 km/h (1 Bft) SO 139 2 min 0,000 mm 2,1 UV-I 763 W/m 2,1 C 10,5 C 6,4 km/h (2 Bft) 98,53 %
29.04.2017 16:14 10,4 C 10,0 C 57 % 1017,9 hPa 0,0 l/m 3,7 km/h (1 Bft) S-SO 161 2 min 0,000 mm 2,0 UV-I 759 W/m 2,3 C 10,4 C 8,0 km/h (2 Bft) 100,00 %
29.04.2017 16:16 10,4 C 10,0 C 56 % 1017,9 hPa 0,0 l/m 3,3 km/h (1 Bft) S-SO 149 2 min 0,000 mm 2,0 UV-I 758 W/m 2,0 C 10,4 C 6,4 km/h (2 Bft) 96,23 %
29.04.2017 16:18 10,4 C 10,0 C 56 % 1017,8 hPa 0,0 l/m 3,4 km/h (1 Bft) O-NO 63 2 min 0,000 mm 2,0 UV-I 724 W/m 2,0 C 10,4 C 6,4 km/h (2 Bft) 100,00 %
29.04.2017 16:20 10,7 C 10,0 C 58 % 1017,9 hPa 0,0 l/m 0,6 km/h (0 Bft) O-NO 63 2 min 0,000 mm 1,9 UV-I 702 W/m 2,8 C 10,7 C 3,2 km/h (1 Bft) 100,00 %
29.04.2017 16:22 11,0 C 10,0 C 60 % 1017,8 hPa 0,0 l/m 1,8 km/h (1 Bft) O-NO 63 2 min 0,000 mm 1,9 UV-I 692 W/m 3,5 C 11,0 C 4,8 km/h (1 Bft) 100,00 %
29.04.2017 16:24 11,1 C 10,0 C 58 % 1017,8 hPa 0,0 l/m 3,3 km/h (1 Bft) S-SW 204 2 min 0,000 mm 1,5 UV-I 555 W/m 3,2 C 11,1 C 6,4 km/h (2 Bft) 98,11 %
29.04.2017 16:26 10,9 C 10,0 C 60 % 1017,8 hPa 0,0 l/m 1,7 km/h (1 Bft) S-SW 204 0 min 0,000 mm 1,3 UV-I 223 W/m 3,4 C 10,9 C 4,8 km/h (1 Bft) 95,45 %
29.04.2017 16:28 10,8 C 10,0 C 59 % 1017,8 hPa 0,0 l/m 4,8 km/h (1 Bft) S-SO 160 0 min 0,000 mm 1,3 UV-I 261 W/m 3,1 C 10,8 C 8,0 km/h (2 Bft) 96,00 %
29.04.2017 16:30 10,8 C 10,0 C 58 % 1017,8 hPa 0,0 l/m 4,3 km/h (1 Bft) W-SW 246 2 min 0,000 mm 1,4 UV-I 411 W/m 2,9 C 10,8 C 6,4 km/h (2 Bft) 93,18 %
29.04.2017 16:32 10,8 C 10,0 C 57 % 1017,8 hPa 0,0 l/m 3,4 km/h (1 Bft) SW 234 0 min 0,000 mm 1,2 UV-I 277 W/m 2,6 C 10,8 C 6,4 km/h (2 Bft) 96,67 %
29.04.2017 16:34 10,7 C 10,0 C 55 % 1017,8 hPa 0,0 l/m 1,0 km/h (0 Bft) SW 234 0 min 0,000 mm 1,1 UV-I 217 W/m 2,0 C 10,7 C 3,2 km/h (1 Bft) 95,16 %
29.04.2017 16:36 10,6 C 10,0 C 57 % 1017,8 hPa 0,0 l/m 3,4 km/h (1 Bft) SW 232 0 min 0,000 mm 1,1 UV-I 221 W/m 2,4 C 10,6 C 4,8 km/h (1 Bft) 93,62 %
29.04.2017 16:38 10,4 C 10,0 C 56 % 1017,7 hPa 0,0 l/m 0,5 km/h (0 Bft) SW 232 0 min 0,000 mm 1,1 UV-I 219 W/m 2,0 C 10,4 C 1,6 km/h (1 Bft) 96,00 %
29.04.2017 16:40 10,4 C 10,0 C 57 % 1017,8 hPa 0,0 l/m 1,3 km/h (1 Bft) SW 232 0 min 0,000 mm 1,0 UV-I 221 W/m 2,3 C 10,4 C 3,2 km/h (1 Bft) 96,00 %
29.04.2017 16:43 10,4 C 10,0 C 61 % 1017,8 hPa 0,0 l/m 2,7 km/h (1 Bft) SW 232 0 min 0,000 mm 1,0 UV-I 222 W/m 3,2 C 10,4 C 6,4 km/h (2 Bft) 95,52 %
29.04.2017 16:44 10,5 C 10,0 C 62 % 1017,8 hPa 0,0 l/m 4,1 km/h (1 Bft) W-SW 253 0 min 0,000 mm 0,9 UV-I 220 W/m 3,5 C 10,5 C 6,4 km/h (2 Bft) 100,00 %
29.04.2017 16:46 10,6 C 10,0 C 62 % 1017,7 hPa 0,0 l/m 4,5 km/h (1 Bft) SW 222 0 min 0,000 mm 0,9 UV-I 216 W/m 3,6 C 10,6 C 8,0 km/h (2 Bft) 96,43 %
29.04.2017 16:48 10,6 C 10,0 C 60 % 1017,8 hPa 0,0 l/m 3,5 km/h (1 Bft) W-SW 252 0 min 0,000 mm 0,8 UV-I 210 W/m 3,2 C 10,6 C 6,4 km/h (2 Bft) 98,00 %
29.04.2017 16:50 10,6 C 10,0 C 63 % 1017,8 hPa 0,0 l/m 5,5 km/h (1 Bft) W-SW 246 0 min 0,000 mm 0,7 UV-I 202 W/m 3,9 C 10,6 C 11,3 km/h (2 Bft) 97,87 %
29.04.2017 16:52 10,6 C 10,0 C 64 % 1017,7 hPa 0,0 l/m 6,0 km/h (2 Bft) W-SW 248 0 min 0,000 mm 0,7 UV-I 197 W/m 4,1 C 10,6 C 9,7 km/h (2 Bft) 95,74 %
29.04.2017 16:54 10,5 C 10,0 C 61 % 1017,8 hPa 0,0 l/m 9,1 km/h (2 Bft) W-SW 253 0 min 0,000 mm 0,6 UV-I 194 W/m 3,3 C 8,7 C 12,9 km/h (3 Bft) 95,74 %
29.04.2017 16:56 10,4 C 10,0 C 61 % 1017,7 hPa 0,0 l/m 7,8 km/h (2 Bft) W 261 0 min 0,000 mm 0,6 UV-I 193 W/m 3,2 C 9,4 C 12,9 km/h (3 Bft) 92,68 %
29.04.2017 16:58 10,4 C 10,0 C 62 % 1017,7 hPa 0,0 l/m 4,7 km/h (1 Bft) SW 217 0 min 0,000 mm 0,6 UV-I 189 W/m 3,4 C 10,4 C 6,4 km/h (2 Bft) 94,34 %
29.04.2017 17:00 10,4 C 10,0 C 62 % 1017,7 hPa 0,0 l/m 5,5 km/h (1 Bft) SW 233 0 min 0,000 mm 0,6 UV-I 189 W/m 3,4 C 10,4 C 8,0 km/h (2 Bft) 94,29 %
29.04.2017 17:02 10,4 C 10,0 C 62 % 1017,8 hPa 0,0 l/m 7,6 km/h (2 Bft) W-SW 238 0 min 0,203 mm 0,6 UV-I 210 W/m 3,4 C 9,5 C 14,5 km/h (3 Bft) 98,21 %
29.04.2017 17:04 10,4 C 10,0 C 63 % 1017,8 hPa 0,0 l/m 3,6 km/h (1 Bft) W-SW 245 0 min 0,000 mm 0,6 UV-I 212 W/m 3,7 C 10,4 C 9,7 km/h (2 Bft) 97,56 %
29.04.2017 17:06 10,4 C 10,0 C 66 % 1017,8 hPa 0,0 l/m 1,9 km/h (1 Bft) W-NW 294 0 min 0,000 mm 0,6 UV-I 205 W/m 4,3 C 10,4 C 4,8 km/h (1 Bft) 92,00 %
29.04.2017 17:08 10,3 C 10,0 C 66 % 1017,8 hPa 0,0 l/m 2,4 km/h (1 Bft) W-NW 290 0 min 0,000 mm 0,6 UV-I 206 W/m 4,2 C 10,3 C 4,8 km/h (1 Bft) 97,87 %
29.04.2017 17:10 10,3 C 10,0 C 67 % 1017,8 hPa 0,0 l/m 0,4 km/h (0 Bft) W-NW 291 0 min 0,000 mm 0,6 UV-I 214 W/m 4,4 C 10,3 C 3,2 km/h (1 Bft) 95,74 %
29.04.2017 17:12 10,3 C 10,0 C 68 % 1017,8 hPa 0,0 l/m 0,4 km/h (0 Bft) W-NW 291 0 min 0,000 mm 0,6 UV-I 221 W/m 4,7 C 10,3 C 3,2 km/h (1 Bft) 96,00 %
29.04.2017 17:14 10,3 C 10,0 C 65 % 1017,8 hPa 0,0 l/m 3,4 km/h (1 Bft) W-NW 302 0 min 0,000 mm 0,6 UV-I 219 W/m 4,0 C 10,3 C 6,4 km/h (2 Bft) 100,00 %
29.04.2017 17:16 10,3 C 10,0 C 64 % 1017,8 hPa 0,0 l/m 2,3 km/h (1 Bft) NW 315 0 min 0,000 mm 0,6 UV-I 218 W/m 3,8 C 10,3 C 4,8 km/h (1 Bft) 96,43 %
29.04.2017 17:18 10,2 C 10,0 C 63 % 1017,8 hPa 0,0 l/m 2,6 km/h (1 Bft) NW 315 0 min 0,000 mm 0,6 UV-I 217 W/m 3,5 C 10,2 C 6,4 km/h (2 Bft) 100,00 %
29.04.2017 17:20 10,3 C 10,0 C 65 % 1017,7 hPa 0,0 l/m 1,3 km/h (1 Bft) N-NW 331 0 min 0,000 mm 0,6 UV-I 211 W/m 4,0 C 10,3 C 4,8 km/h (1 Bft) 95,74 %
29.04.2017 17:22 10,3 C 10,0 C 63 % 1017,7 hPa 0,0 l/m 2,4 km/h (1 Bft) NW 319 0 min 0,000 mm 0,6 UV-I 203 W/m 3,6 C 10,3 C 4,8 km/h (1 Bft) 92,68 %
29.04.2017 17:24 10,2 C 10,0 C 63 % 1017,8 hPa 0,0 l/m 2,4 km/h (1 Bft) NW 312 0 min 0,000 mm 0,6 UV-I 198 W/m 3,5 C 10,2 C 8,0 km/h (2 Bft) 100,00 %
29.04.2017 17:26 10,2 C 10,0 C 62 % 1017,7 hPa 0,0 l/m 3,3 km/h (1 Bft) W-NW 299 0 min 0,000 mm 0,6 UV-I 196 W/m 3,3 C 10,2 C 8,0 km/h (2 Bft) 93,62 %
29.04.2017 17:28 10,2 C 10,0 C 64 % 1017,8 hPa 0,0 l/m 2,1 km/h (1 Bft) NW 306 0 min 0,000 mm 0,6 UV-I 193 W/m 3,7 C 10,2 C 6,4 km/h (2 Bft) 95,12 %
29.04.2017 17:30 10,2 C 10,0 C 66 % 1017,8 hPa 0,0 l/m 0,3 km/h (0 Bft) NW 306 0 min 0,000 mm 0,5 UV-I 186 W/m 4,1 C 10,2 C 1,6 km/h (1 Bft) 98,11 %
29.04.2017 17:32 10,2 C 10,0 C 66 % 1017,8 hPa 0,0 l/m 1,4 km/h (1 Bft) W 277 0 min 0,000 mm 0,5 UV-I 176 W/m 4,1 C 10,2 C 4,8 km/h (1 Bft) 100,00 %
29.04.2017 17:34 10,2 C 10,0 C 68 % 1017,8 hPa 0,0 l/m 1,0 km/h (0 Bft) W-NW 284 0 min 0,000 mm 0,5 UV-I 168 W/m 4,6 C 10,2 C 3,2 km/h (1 Bft) 96,15 %
29.04.2017 17:36 10,2 C 10,0 C 67 % 1017,8 hPa 0,0 l/m 1,5 km/h (1 Bft) W-NW 294 0 min 0,000 mm 0,2 UV-I 162 W/m 4,4 C 10,2 C 8,0 km/h (2 Bft) 96,92 %
29.04.2017 17:38 10,1 C 10,0 C 64 % 1017,8 hPa 0,0 l/m 2,8 km/h (1 Bft) W-NW 286 0 min 0,000 mm 0,0 UV-I 156 W/m 3,6 C 10,1 C 6,4 km/h (2 Bft) 95,65 %
29.04.2017 17:40 10,0 C 10,0 C 64 % 1017,8 hPa 0,0 l/m 2,8 km/h (1 Bft) NW 313 0 min 0,000 mm 0,0 UV-I 153 W/m 3,5 C 10,0 C 6,4 km/h (2 Bft) 98,00 %
29.04.2017 17:42 9,9 C 10,0 C 63 % 1017,8 hPa 0,0 l/m 1,2 km/h (1 Bft) NW 315 0 min 0,000 mm 0,0 UV-I 149 W/m 3,2 C 9,9 C 3,2 km/h (1 Bft) 92,11 %
29.04.2017 17:44 9,9 C 10,0 C 64 % 1017,8 hPa 0,0 l/m 1,9 km/h (1 Bft) NW 314 0 min 0,000 mm 0,0 UV-I 147 W/m 3,4 C 9,9 C 3,2 km/h (1 Bft) 98,11 %
29.04.2017 17:46 9,9 C 10,0 C 66 % 1017,8 hPa 0,0 l/m 1,3 km/h (1 Bft) NW 315 0 min 0,000 mm 0,0 UV-I 146 W/m 3,9 C 9,9 C 4,8 km/h (1 Bft) 98,00 %
29.04.2017 17:48 9,9 C 10,0 C 65 % 1017,8 hPa 0,0 l/m 2,5 km/h (1 Bft) W-NW 296 0 min 0,000 mm 0,0 UV-I 143 W/m 3,6 C 9,9 C 4,8 km/h (1 Bft) 100,00 %
29.04.2017 17:50 9,8 C 10,0 C 67 % 1017,7 hPa 0,0 l/m 2,4 km/h (1 Bft) NW 319 0 min 0,000 mm 0,0 UV-I 140 W/m 4,0 C 9,8 C 6,4 km/h (2 Bft) 97,62 %
29.04.2017 17:52 9,8 C 10,0 C 66 % 1017,7 hPa 0,0 l/m 1,1 km/h (1 Bft) N-NW 340 0 min 0,000 mm 0,0 UV-I 135 W/m 3,8 C 9,8 C 3,2 km/h (1 Bft) 97,14 %
29.04.2017 17:54 9,8 C 10,0 C 67 % 1017,7 hPa 0,0 l/m 1,9 km/h (1 Bft) NW 318 0 min 0,000 mm 0,0 UV-I 132 W/m 4,0 C 9,8 C 4,8 km/h (1 Bft) 100,00 %
29.04.2017 17:56 9,7 C 10,0 C 66 % 1017,7 hPa 0,0 l/m 1,1 km/h (1 Bft) N-NW 336 0 min 0,000 mm 0,0 UV-I 127 W/m 3,7 C 9,7 C 3,2 km/h (1 Bft) 100,00 %
29.04.2017 17:58 9,7 C 10,0 C 69 % 1017,7 hPa 0,0 l/m 0,1 km/h (0 Bft) N-NW 336 0 min 0,000 mm 0,0 UV-I 123 W/m 4,3 C 9,7 C 1,6 km/h (1 Bft) 100,00 %
29.04.2017 18:00 9,7 C 10,0 C 70 % 1017,7 hPa 0,0 l/m 0,2 km/h (0 Bft) N-NW 334 0 min 0,000 mm 0,0 UV-I 120 W/m 4,5 C 9,7 C 1,6 km/h (1 Bft) 98,00 %
29.04.2017 18:02 9,7 C 10,0 C 69 % 1017,7 hPa 0,0 l/m 1,2 km/h (1 Bft) NW 309 0 min 0,101 mm 0,0 UV-I 117 W/m 4,3 C 9,7 C 4,8 km/h (1 Bft) 97,87 %
29.04.2017 18:04 9,7 C 10,0 C 68 % 1017,8 hPa 0,0 l/m 1,2 km/h (1 Bft) NW 315 0 min 0,000 mm 0,0 UV-I 115 W/m 4,1 C 9,7 C 4,8 km/h (1 Bft) 100,00 %
29.04.2017 18:06 9,7 C 10,0 C 68 % 1017,7 hPa 0,0 l/m 0,8 km/h (0 Bft) NW 315 0 min 0,000 mm 0,0 UV-I 112 W/m 4,1 C 9,7 C 1,6 km/h (1 Bft) 100,00 %
29.04.2017 18:08 9,7 C 10,0 C 67 % 1017,7 hPa 0,0 l/m 0,0 km/h (0 Bft) NW 315 0 min 0,000 mm 0,0 UV-I 109 W/m 3,9 C 9,7 C 1,6 km/h (1 Bft) 97,87 %
29.04.2017 18:10 9,7 C 10,0 C 69 % 1017,7 hPa 0,0 l/m 1,3 km/h (1 Bft) N-NW 335 0 min 0,000 mm 0,0 UV-I 105 W/m 4,3 C 9,7 C 3,2 km/h (1 Bft) 100,00 %
29.04.2017 18:12 9,6 C 10,0 C 68 % 1017,6 hPa 0,0 l/m 0,4 km/h (0 Bft) N-NW 336 0 min 0,000 mm 0,0 UV-I 102 W/m 4,0 C 9,6 C 3,2 km/h (1 Bft) 98,46 %
29.04.2017 18:14 9,6 C 10,0 C 71 % 1017,6 hPa 0,0 l/m 1,3 km/h (1 Bft) NW 304 0 min 0,000 mm 0,0 UV-I 99 W/m 4,6 C 9,6 C 6,4 km/h (2 Bft) 97,37 %
29.04.2017 18:16 9,6 C 10,0 C 69 % 1017,6 hPa 0,0 l/m 0,7 km/h (0 Bft) N-NW 336 0 min 0,000 mm 0,0 UV-I 97 W/m 4,2 C 9,6 C 4,8 km/h (1 Bft) 93,62 %
29.04.2017 18:18 9,6 C 10,0 C 70 % 1017,6 hPa 0,0 l/m 0,7 km/h (0 Bft) NW 325 0 min 0,000 mm 0,0 UV-I 94 W/m 4,4 C 9,6 C 3,2 km/h (1 Bft) 96,00 %
29.04.2017 18:20 9,5 C 10,0 C 71 % 1017,5 hPa 0,0 l/m 0,4 km/h (0 Bft) N-NW 327 0 min 0,000 mm 0,0 UV-I 92 W/m 4,5 C 9,5 C 3,2 km/h (1 Bft) 98,00 %
29.04.2017 18:22 9,4 C 10,0 C 70 % 1017,6 hPa 0,0 l/m 2,2 km/h (1 Bft) N-NO 15 0 min 0,000 mm 0,0 UV-I 91 W/m 4,2 C 9,4 C 4,8 km/h (1 Bft) 94,29 %
29.04.2017 18:24 9,4 C 10,0 C 70 % 1017,6 hPa 0,0 l/m 1,4 km/h (1 Bft) N 355 0 min 0,000 mm 0,0 UV-I 90 W/m 4,2 C 9,4 C 4,8 km/h (1 Bft) 98,21 %
29.04.2017 18:26 9,4 C 10,0 C 70 % 1017,5 hPa 0,0 l/m 0,1 km/h (0 Bft) N 355 0 min 0,000 mm 0,0 UV-I 90 W/m 4,2 C 9,4 C 1,6 km/h (1 Bft) 100,00 %
29.04.2017 18:28 9,4 C 10,0 C 72 % 1017,5 hPa 0,0 l/m 0,7 km/h (0 Bft) N 355 0 min 0,000 mm 0,0 UV-I 90 W/m 4,6 C 9,4 C 3,2 km/h (1 Bft) 97,62 %
29.04.2017 18:30 9,3 C 10,0 C 73 % 1017,5 hPa 0,0 l/m 0,6 km/h (0 Bft) N 355 0 min 0,000 mm 0,0 UV-I 88 W/m 4,7 C 9,3 C 1,6 km/h (1 Bft) 96,15 %
29.04.2017 18:32 9,3 C 10,0 C 72 % 1017,5 hPa 0,0 l/m 2,4 km/h (1 Bft) N-NO 15 0 min 0,000 mm 0,0 UV-I 87 W/m 4,5 C 9,3 C 6,4 km/h (2 Bft) 97,87 %
29.04.2017 18:34 9,3 C 10,0 C 73 % 1017,5 hPa 0,0 l/m 0,3 km/h (0 Bft) N-NO 15 0 min 0,000 mm 0,0 UV-I 84 W/m 4,7 C 9,3 C 1,6 km/h (1 Bft) 100,00 %
29.04.2017 18:36 9,3 C 10,0 C 73 % 1017,5 hPa 0,0 l/m 0,3 km/h (0 Bft) N-NO 15 0 min 0,000 mm 0,0 UV-I 83 W/m 4,7 C 9,3 C 1,6 km/h (1 Bft) 97,87 %
29.04.2017 18:38 9,2 C 10,0 C 74 % 1017,4 hPa 0,0 l/m 1,0 km/h (0 Bft) N-NO 15 0 min 0,000 mm 0,0 UV-I 81 W/m 4,8 C 9,2 C 3,2 km/h (1 Bft) 100,00 %
29.04.2017 18:40 9,2 C 10,0 C 74 % 1017,5 hPa 0,0 l/m 0,7 km/h (0 Bft) N-NO 15 0 min 0,000 mm 0,0 UV-I 80 W/m 4,8 C 9,2 C 3,2 km/h (1 Bft) 94,29 %
29.04.2017 18:42 9,2 C 10,0 C 74 % 1017,4 hPa 0,0 l/m 0,0 km/h (0 Bft) N-NO 15 0 min 0,000 mm 0,0 UV-I 78 W/m 4,8 C 9,2 C 1,6 km/h (1 Bft) 95,74 %
29.04.2017 18:44 9,2 C 10,0 C 73 % 1017,4 hPa 0,0 l/m 0,7 km/h (0 Bft) N-NO 15 0 min 0,000 mm 0,0 UV-I 77 W/m 4,6 C 9,2 C 3,2 km/h (1 Bft) 95,12 %
29.04.2017 18:46 9,2 C 10,0 C 73 % 1017,4 hPa 0,0 l/m 0,7 km/h (0 Bft) N-NO 15 0 min 0,000 mm 0,0 UV-I 77 W/m 4,6 C 9,2 C 3,2 km/h (1 Bft) 96,23 %
29.04.2017 18:48 9,2 C 10,0 C 74 % 1017,4 hPa 0,0 l/m 1,5 km/h (1 Bft) N-NO 15 0 min 0,000 mm 0,0 UV-I 77 W/m 4,8 C 9,2 C 3,2 km/h (1 Bft) 98,00 %
29.04.2017 18:50 9,2 C 10,0 C 72 % 1017,4 hPa 0,0 l/m 2,9 km/h (1 Bft) N-NO 15 0 min 0,000 mm 0,0 UV-I 77 W/m 4,4 C 9,2 C 4,8 km/h (1 Bft) 98,11 %
29.04.2017 18:52 9,2 C 10,0 C 72 % 1017,4 hPa 0,0 l/m 2,3 km/h (1 Bft) N-NO 15 0 min 0,000 mm 0,0 UV-I 77 W/m 4,4 C 9,2 C 4,8 km/h (1 Bft) 97,37 %
29.04.2017 18:54 9,2 C 10,0 C 74 % 1017,4 hPa 0,0 l/m 0,9 km/h (0 Bft) N-NO 15 0 min 0,000 mm 0,0 UV-I 77 W/m 4,8 C 9,2 C 3,2 km/h (1 Bft) 91,43 %
29.04.2017 18:56 9,1 C 10,0 C 74 % 1017,4 hPa 0,0 l/m 0,3 km/h (0 Bft) N-NO 15 0 min 0,000 mm 0,0 UV-I 76 W/m 4,7 C 9,1 C 3,2 km/h (1 Bft) 93,85 %
29.04.2017 18:58 9,1 C 10,0 C 74 % 1017,3 hPa 0,0 l/m 1,5 km/h (1 Bft) N-NO 15 0 min 0,000 mm 0,0 UV-I 76 W/m 4,7 C 9,1 C 4,8 km/h (1 Bft) 94,00 %
29.04.2017 19:00 9,1 C 10,0 C 75 % 1017,4 hPa 0,0 l/m 0,3 km/h (0 Bft) N-NO 15 0 min 0,000 mm 0,0 UV-I 76 W/m 4,9 C 9,1 C 1,6 km/h (1 Bft) 93,62 %
29.04.2017 19:02 9,1 C 10,0 C 75 % 1017,3 hPa 0,0 l/m 1,2 km/h (1 Bft) N-NO 15 0 min 0,051 mm 0,0 UV-I 76 W/m 4,9 C 9,1 C 3,2 km/h (1 Bft) 94,74 %
29.04.2017 19:04 9,1 C 10,0 C 75 % 1017,4 hPa 0,0 l/m 1,9 km/h (1 Bft) N-NO 15 0 min 0,000 mm 0,0 UV-I 79 W/m 4,9 C 9,1 C 4,8 km/h (1 Bft) 94,00 %
29.04.2017 19:06 9,1 C 10,0 C 75 % 1017,3 hPa 0,0 l/m 0,5 km/h (0 Bft) N-NO 15 2 min 0,000 mm 0,0 UV-I 102 W/m 4,9 C 9,1 C 3,2 km/h (1 Bft) 96,00 %
29.04.2017 19:08 9,1 C 10,0 C 75 % 1017,3 hPa 0,0 l/m 1,6 km/h (1 Bft) N-NO 15 2 min 0,000 mm 0,0 UV-I 124 W/m 4,9 C 9,1 C 3,2 km/h (1 Bft) 97,44 %
29.04.2017 19:10 9,2 C 10,0 C 74 % 1017,3 hPa 0,0 l/m 1,1 km/h (1 Bft) N-NO 15 0 min 0,000 mm 0,0 UV-I 88 W/m 4,8 C 9,2 C 3,2 km/h (1 Bft) 96,36 %
29.04.2017 19:12 9,2 C 10,0 C 73 % 1017,3 hPa 0,0 l/m 1,0 km/h (0 Bft) N-NO 15 0 min 0,000 mm 0,0 UV-I 81 W/m 4,6 C 9,2 C 3,2 km/h (1 Bft) 89,74 %
29.04.2017 19:14 9,3 C 10,0 C 74 % 1017,3 hPa 0,0 l/m 2,9 km/h (1 Bft) N-NO 15 0 min 0,000 mm 0,0 UV-I 82 W/m 4,9 C 9,3 C 4,8 km/h (1 Bft) 94,00 %
29.04.2017 19:16 9,2 C 10,0 C 73 % 1017,3 hPa 0,0 l/m 3,0 km/h (1 Bft) N-NO 15 2 min 0,000 mm 0,0 UV-I 83 W/m 4,6 C 9,2 C 4,8 km/h (1 Bft) 90,00 %
29.04.2017 19:19 9,3 C 10,0 C 74 % 1017,3 hPa 0,0 l/m 1,6 km/h (1 Bft) N-NO 15 3 min 0,000 mm 0,0 UV-I 105 W/m 4,9 C 9,3 C 3,2 km/h (1 Bft) 93,42 %
29.04.2017 19:20 9,3 C 10,0 C 74 % 1017,3 hPa 0,0 l/m 1,6 km/h (1 Bft) N-NO 15 1 min 0,000 mm 0,0 UV-I 113 W/m 4,9 C 9,3 C 3,2 km/h (1 Bft) 100,00 %
29.04.2017 19:22 9,3 C 10,0 C 72 % 1017,3 hPa 0,0 l/m 0,7 km/h (0 Bft) N-NO 15 2 min 0,000 mm 0,0 UV-I 110 W/m 4,5 C 9,3 C 3,2 km/h (1 Bft) 95,74 %
29.04.2017 19:24 9,4 C 10,0 C 73 % 1017,4 hPa 0,0 l/m 0,4 km/h (0 Bft) N-NO 15 2 min 0,000 mm 0,0 UV-I 103 W/m 4,8 C 9,4 C 1,6 km/h (1 Bft) 98,00 %
29.04.2017 19:26 9,4 C 10,0 C 73 % 1017,4 hPa 0,0 l/m 0,2 km/h (0 Bft) N-NO 15 2 min 0,000 mm 0,0 UV-I 98 W/m 4,8 C 9,4 C 1,6 km/h (1 Bft) 96,23 %
29.04.2017 19:28 9,5 C 10,0 C 70 % 1017,4 hPa 0,0 l/m 0,0 km/h (0 Bft) N-NO 15 2 min 0,000 mm 0,0 UV-I 98 W/m 4,3 C 9,5 C 0,0 km/h (0 Bft) 95,74 %
29.04.2017 19:30 9,6 C 10,0 C 70 % 1017,4 hPa 0,0 l/m 0,0 km/h (0 Bft) N-NO 15 2 min 0,000 mm 0,0 UV-I 94 W/m 4,4 C 9,6 C 0,0 km/h (0 Bft) 95,74 %
29.04.2017 19:32 9,7 C 10,0 C 71 % 1017,5 hPa 0,0 l/m 0,4 km/h (0 Bft) N-NO 15 2 min 0,000 mm 0,0 UV-I 90 W/m 4,7 C 9,7 C 1,6 km/h (1 Bft) 97,37 %
29.04.2017 19:34 9,7 C 10,0 C 73 % 1017,5 hPa 0,0 l/m 1,3 km/h (1 Bft) N-NO 15 2 min 0,000 mm 0,0 UV-I 85 W/m 5,1 C 9,7 C 3,2 km/h (1 Bft) 100,00 %
29.04.2017 19:36 9,7 C 10,0 C 72 % 1017,5 hPa 0,0 l/m 1,6 km/h (1 Bft) N-NO 15 2 min 0,000 mm 0,0 UV-I 80 W/m 4,9 C 9,7 C 3,2 km/h (1 Bft) 95,74 %
29.04.2017 19:38 9,6 C 10,0 C 72 % 1017,5 hPa 0,0 l/m 1,4 km/h (1 Bft) N-NO 15 2 min 0,000 mm 0,0 UV-I 74 W/m 4,8 C 9,6 C 3,2 km/h (1 Bft) 92,68 %
29.04.2017 19:40 9,6 C 10,0 C 71 % 1017,5 hPa 0,0 l/m 1,5 km/h (1 Bft) N-NO 15 2 min 0,000 mm 0,0 UV-I 68 W/m 4,6 C 9,6 C 3,2 km/h (1 Bft) 95,12 %
29.04.2017 19:42 9,5 C 10,0 C 71 % 1017,5 hPa 0,0 l/m 0,9 km/h (0 Bft) N-NO 15 2 min 0,000 mm 0,0 UV-I 61 W/m 4,5 C 9,5 C 1,6 km/h (1 Bft) 88,00 %
29.04.2017 19:44 9,4 C 10,0 C 73 % 1017,5 hPa 0,0 l/m 0,0 km/h (0 Bft) N-NO 15 2 min 0,000 mm 0,0 UV-I 50 W/m 4,8 C 9,4 C 1,6 km/h (1 Bft) 100,00 %
29.04.2017 19:46 9,4 C 10,0 C 73 % 1017,5 hPa 0,0 l/m 0,0 km/h (0 Bft) N-NO 15 2 min 0,000 mm 0,0 UV-I 46 W/m 4,8 C 9,4 C 0,0 km/h (0 Bft) 100,00 %
29.04.2017 19:48 9,4 C 10,0 C 72 % 1017,5 hPa 0,0 l/m 0,0 km/h (0 Bft) N-NO 15 2 min 0,000 mm 0,0 UV-I 44 W/m 4,6 C 9,4 C 0,0 km/h (0 Bft) 100,00 %
29.04.2017 19:50 9,3 C 10,0 C 72 % 1017,5 hPa 0,0 l/m 0,0 km/h (0 Bft) N-NO 15 2 min 0,000 mm 0,0 UV-I 40 W/m 4,5 C 9,3 C 0,0 km/h (0 Bft) 96,00 %
29.04.2017 19:52 9,3 C 10,0 C 75 % 1017,5 hPa 0,0 l/m 0,4 km/h (0 Bft) N-NO 15 2 min 0,000 mm 0,0 UV-I 34 W/m 5,1 C 9,3 C 1,6 km/h (1 Bft) 96,23 %
29.04.2017 19:54 8,9 C 10,0 C 78 % 1017,5 hPa 0,0 l/m 3,2 km/h (1 Bft) N-NO 16 2 min 0,000 mm 0,0 UV-I 30 W/m 5,3 C 8,9 C 4,8 km/h (1 Bft) 97,87 %
29.04.2017 19:56 8,6 C 10,0 C 81 % 1017,5 hPa 0,0 l/m 3,6 km/h (1 Bft) N-NO 16 2 min 0,000 mm 0,0 UV-I 27 W/m 5,5 C 8,6 C 4,8 km/h (1 Bft) 90,00 %
29.04.2017 19:58 8,3 C 10,0 C 82 % 1017,6 hPa 0,0 l/m 2,6 km/h (1 Bft) N-NO 16 2 min 0,000 mm 0,0 UV-I 24 W/m 5,4 C 8,3 C 3,2 km/h (1 Bft) 98,00 %
29.04.2017 20:00 8,1 C 10,0 C 83 % 1017,5 hPa 0,0 l/m 1,3 km/h (1 Bft) N-NO 16 2 min 0,000 mm 0,0 UV-I 21 W/m 5,4 C 8,1 C 1,6 km/h (1 Bft) 97,14 %
29.04.2017 20:03 8,0 C 10,0 C 83 % 1017,5 hPa 0,0 l/m 0,0 km/h (0 Bft) N-NO 16 3 min 0,051 mm 0,0 UV-I 18 W/m 5,3 C 8,0 C 1,6 km/h (1 Bft) 94,94 %
29.04.2017 20:04 7,9 C 10,0 C 83 % 1017,5 hPa 0,0 l/m 0,0 km/h (0 Bft) N-NO 16 0 min 0,000 mm 0,0 UV-I 16 W/m 5,2 C 7,9 C 0,0 km/h (0 Bft) 95,83 %
29.04.2017 20:06 7,9 C 10,0 C 82 % 1017,5 hPa 0,0 l/m 0,0 km/h (0 Bft) N-NO 16 0 min 0,000 mm 0,0 UV-I 15 W/m 5,0 C 7,9 C 0,0 km/h (0 Bft) 97,87 %
29.04.2017 20:08 7,9 C 10,0 C 82 % 1017,5 hPa 0,0 l/m 0,7 km/h (0 Bft) N-NO 16 0 min 0,000 mm 0,0 UV-I 12 W/m 5,0 C 7,9 C 1,6 km/h (1 Bft) 94,74 %
29.04.2017 20:10 7,8 C 10,0 C 81 % 1017,5 hPa 0,0 l/m 2,3 km/h (1 Bft) N-NO 16 0 min 0,000 mm 0,0 UV-I 12 W/m 4,7 C 7,8 C 4,8 km/h (1 Bft) 98,00 %
29.04.2017 20:12 7,7 C 10,0 C 82 % 1017,5 hPa 0,0 l/m 3,7 km/h (1 Bft) N-NO 16 0 min 0,000 mm 0,0 UV-I 11 W/m 4,8 C 7,7 C 4,8 km/h (1 Bft) 92,11 %
29.04.2017 20:14 7,7 C 10,0 C 84 % 1017,5 hPa 0,0 l/m 3,1 km/h (1 Bft) N-NO 16 0 min 0,000 mm 0,0 UV-I 9 W/m 5,2 C 7,7 C 3,2 km/h (1 Bft) 98,21 %
29.04.2017 20:16 7,5 C 10,0 C 85 % 1017,5 hPa 0,0 l/m 3,3 km/h (1 Bft) N-NO 16 0 min 0,000 mm 0,0 UV-I 8 W/m 5,1 C 7,5 C 4,8 km/h (1 Bft) 96,00 %
29.04.2017 20:19 7,2 C 10,0 C 85 % 1017,6 hPa 0,0 l/m 3,0 km/h (1 Bft) N-NO 16 0 min 0,000 mm 0,0 UV-I 7 W/m 4,9 C 7,2 C 4,8 km/h (1 Bft) 97,40 %
29.04.2017 20:20 7,1 C 10,0 C 85 % 1017,6 hPa 0,0 l/m 2,5 km/h (1 Bft) N-NO 16 0 min 0,000 mm 0,0 UV-I 7 W/m 4,8 C 7,1 C 3,2 km/h (1 Bft) 100,00 %
29.04.2017 20:22 6,9 C 10,0 C 86 % 1017,6 hPa 0,0 l/m 2,3 km/h (1 Bft) N-NO 16 0 min 0,000 mm 0,0 UV-I 6 W/m 4,7 C 6,9 C 3,2 km/h (1 Bft) 98,11 %
29.04.2017 20:24 6,8 C 10,0 C 86 % 1017,6 hPa 0,0 l/m 2,4 km/h (1 Bft) N-NO 16 0 min 0,000 mm 0,0 UV-I 5 W/m 4,6 C 6,8 C 3,2 km/h (1 Bft) 95,74 %
29.04.2017 20:26 6,8 C 10,0 C 86 % 1017,6 hPa 0,0 l/m 2,4 km/h (1 Bft) N-NO 16 0 min 0,000 mm 0,0 UV-I 5 W/m 4,6 C 6,8 C 3,2 km/h (1 Bft) 95,74 %
29.04.2017 20:28 6,7 C 10,0 C 86 % 1017,6 hPa 0,0 l/m 2,1 km/h (1 Bft) N-NO 16 0 min 0,000 mm 0,0 UV-I 5 W/m 4,5 C 6,7 C 3,2 km/h (1 Bft) 95,74 %
29.04.2017 20:30 6,7 C 10,0 C 88 % 1017,6 hPa 0,0 l/m 0,0 km/h (0 Bft) N-NO 16 0 min 0,000 mm 0,0 UV-I 4 W/m 4,9 C 6,7 C 1,6 km/h (1 Bft) 91,49 %
29.04.2017 20:32 6,7 C 10,0 C 89 % 1017,6 hPa 0,0 l/m 0,5 km/h (0 Bft) N-NO 16 0 min 0,000 mm 0,0 UV-I 0 W/m 5,0 C 6,7 C 1,6 km/h (1 Bft) 97,92 %
29.04.2017 20:34 6,7 C 10,0 C 88 % 1017,6 hPa 0,0 l/m 1,4 km/h (1 Bft) N-NO 16 0 min 0,000 mm 0,0 UV-I 0 W/m 4,9 C 6,7 C 3,2 km/h (1 Bft) 95,74 %
29.04.2017 20:36 6,6 C 10,0 C 87 % 1017,6 hPa 0,0 l/m 3,1 km/h (1 Bft) N-NO 16 0 min 0,000 mm 0,0 UV-I 0 W/m 4,6 C 6,6 C 4,8 km/h (1 Bft) 97,87 %
29.04.2017 20:38 6,6 C 10,0 C 87 % 1017,6 hPa 0,0 l/m 3,7 km/h (1 Bft) N-NO 16 0 min 0,000 mm 0,0 UV-I 0 W/m 4,6 C 6,6 C 4,8 km/h (1 Bft) 94,74 %
29.04.2017 20:40 6,4 C 10,0 C 87 % 1017,7 hPa 0,0 l/m 3,6 km/h (1 Bft) N-NO 16 0 min 0,000 mm 0,0 UV-I 0 W/m 4,4 C 6,4 C 4,8 km/h (1 Bft) 98,11 %
29.04.2017 20:42 6,3 C 10,0 C 88 % 1017,6 hPa 0,0 l/m 4,2 km/h (1 Bft) O-NO 73 0 min 0,000 mm 0,0 UV-I 0 W/m 4,5 C 6,3 C 4,8 km/h (1 Bft) 90,91 %
29.04.2017 20:44 6,2 C 10,0 C 88 % 1017,7 hPa 0,0 l/m 4,6 km/h (1 Bft) O-NO 77 0 min 0,000 mm 0,0 UV-I 0 W/m 4,4 C 6,2 C 4,8 km/h (1 Bft) 94,00 %
29.04.2017 20:46 6,1 C 10,0 C 88 % 1017,7 hPa 0,0 l/m 4,8 km/h (1 Bft) O 85 0 min 0,000 mm 0,0 UV-I 0 W/m 4,3 C 6,1 C 6,4 km/h (2 Bft) 96,00 %
29.04.2017 20:48 6,1 C 10,0 C 88 % 1017,7 hPa 0,0 l/m 4,9 km/h (1 Bft) O 86 0 min 0,000 mm 0,0 UV-I 0 W/m 4,3 C 6,1 C 6,4 km/h (2 Bft) 100,00 %
29.04.2017 20:50 5,9 C 10,0 C 88 % 1017,7 hPa 0,0 l/m 4,5 km/h (1 Bft) O 86 0 min 0,000 mm 0,0 UV-I 0 W/m 4,1 C 5,9 C 4,8 km/h (1 Bft) 93,62 %
29.04.2017 20:52 5,7 C 10,0 C 88 % 1017,7 hPa 0,0 l/m 4,0 km/h (1 Bft) O 86 0 min 0,000 mm 0,0 UV-I 0 W/m 3,9 C 5,7 C 4,8 km/h (1 Bft) 96,23 %
29.04.2017 20:54 5,5 C 10,0 C 88 % 1017,7 hPa 0,0 l/m 3,2 km/h (1 Bft) O 86 0 min 0,000 mm 0,0 UV-I 0 W/m 3,7 C 5,5 C 4,8 km/h (1 Bft) 95,74 %
29.04.2017 20:56 5,4 C 10,0 C 89 % 1017,7 hPa 0,0 l/m 3,4 km/h (1 Bft) O 86 0 min 0,000 mm 0,0 UV-I 0 W/m 3,7 C 5,4 C 4,8 km/h (1 Bft) 97,14 %
29.04.2017 20:58 5,4 C 10,0 C 89 % 1017,7 hPa 0,0 l/m 2,8 km/h (1 Bft) O 86 0 min 0,000 mm 0,0 UV-I 0 W/m 3,7 C 5,4 C 4,8 km/h (1 Bft) 92,45 %
29.04.2017 21:00 5,6 C 10,0 C 90 % 1017,8 hPa 0,0 l/m 1,9 km/h (1 Bft) O 86 0 min 0,000 mm 0,0 UV-I 0 W/m 4,1 C 5,6 C 3,2 km/h (1 Bft) 96,00 %
29.04.2017 21:03 5,6 C 10,0 C 91 % 1017,7 hPa 0,0 l/m 1,8 km/h (1 Bft) O 86 0 min 0,000 mm 0,0 UV-I 0 W/m 4,2 C 5,6 C 3,2 km/h (1 Bft) 94,37 %
29.04.2017 21:04 5,6 C 10,0 C 90 % 1017,7 hPa 0,0 l/m 2,2 km/h (1 Bft) O 86 0 min 0,000 mm 0,0 UV-I 0 W/m 4,1 C 5,6 C 3,2 km/h (1 Bft) 94,12 %
29.04.2017 21:06 5,6 C 10,0 C 90 % 1017,8 hPa 0,0 l/m 1,8 km/h (1 Bft) O 86 0 min 0,000 mm 0,0 UV-I 0 W/m 4,1 C 5,6 C 3,2 km/h (1 Bft) 96,08 %
29.04.2017 21:08 5,6 C 10,0 C 90 % 1017,8 hPa 0,0 l/m 0,7 km/h (0 Bft) O 86 0 min 0,000 mm 0,0 UV-I 0 W/m 4,1 C 5,6 C 3,2 km/h (1 Bft) 96,00 %
29.04.2017 21:10 5,6 C 10,0 C 90 % 1017,8 hPa 0,0 l/m 1,5 km/h (1 Bft) O 86 0 min 0,000 mm 0,0 UV-I 0 W/m 4,1 C 5,6 C 4,8 km/h (1 Bft) 97,44 %
29.04.2017 21:12 5,6 C 10,0 C 89 % 1017,8 hPa 0,0 l/m 5,0 km/h (1 Bft) O-SO 123 0 min 0,000 mm 0,0 UV-I 0 W/m 3,9 C 5,6 C 8,0 km/h (2 Bft) 95,74 %
29.04.2017 21:14 5,5 C 10,0 C 89 % 1017,8 hPa 0,0 l/m 4,7 km/h (1 Bft) SO 124 0 min 0,000 mm 0,0 UV-I 0 W/m 3,8 C 5,5 C 6,4 km/h (2 Bft) 89,36 %
29.04.2017 21:16 5,4 C 10,0 C 89 % 1017,8 hPa 0,0 l/m 3,9 km/h (1 Bft) SO 124 0 min 0,000 mm 0,0 UV-I 0 W/m 3,7 C 5,4 C 4,8 km/h (1 Bft) 95,92 %
29.04.2017 21:19 5,3 C 10,0 C 89 % 1017,8 hPa 0,0 l/m 3,6 km/h (1 Bft) SO 124 0 min 0,000 mm 0,0 UV-I 0 W/m 3,6 C 5,3 C 4,8 km/h (1 Bft) 94,52 %
29.04.2017 21:20 5,3 C 10,0 C 90 % 1017,8 hPa 0,0 l/m 3,4 km/h (1 Bft) SO 124 0 min 0,000 mm 0,0 UV-I 0 W/m 3,8 C 5,3 C 4,8 km/h (1 Bft) 96,30 %
29.04.2017 21:22 5,4 C 10,0 C 90 % 1017,8 hPa 0,0 l/m 2,8 km/h (1 Bft) SO 124 0 min 0,000 mm 0,0 UV-I 0 W/m 3,9 C 5,4 C 3,2 km/h (1 Bft) 95,12 %
29.04.2017 21:24 5,4 C 10,0 C 90 % 1017,8 hPa 0,0 l/m 0,3 km/h (0 Bft) SO 124 0 min 0,000 mm 0,0 UV-I 0 W/m 3,9 C 5,4 C 1,6 km/h (1 Bft) 95,74 %
29.04.2017 21:26 5,4 C 10,0 C 90 % 1017,8 hPa 0,0 l/m 0,1 km/h (0 Bft) SO 124 0 min 0,000 mm 0,0 UV-I 0 W/m 3,9 C 5,4 C 1,6 km/h (1 Bft) 93,02 %
29.04.2017 21:28 5,4 C 10,0 C 90 % 1017,8 hPa 0,0 l/m 1,1 km/h (1 Bft) SO 124 0 min 0,000 mm 0,0 UV-I 0 W/m 3,9 C 5,4 C 3,2 km/h (1 Bft) 97,87 %
29.04.2017 21:30 5,3 C 10,0 C 91 % 1017,8 hPa 0,0 l/m 0,6 km/h (0 Bft) SO 124 0 min 0,000 mm 0,0 UV-I 0 W/m 4,0 C 5,3 C 3,2 km/h (1 Bft) 96,00 %
29.04.2017 21:32 5,2 C 10,0 C 91 % 1017,8 hPa 0,0 l/m 0,0 km/h (0 Bft) SO 124 0 min 0,000 mm 0,0 UV-I 0 W/m 3,9 C 5,2 C 0,0 km/h (0 Bft) 93,62 %
29.04.2017 21:34 5,2 C 10,0 C 91 % 1017,8 hPa 0,0 l/m 0,0 km/h (0 Bft) SO 124 0 min 0,000 mm 0,0 UV-I 0 W/m 3,9 C 5,2 C 0,0 km/h (0 Bft) 91,49 %
29.04.2017 21:36 5,1 C 10,0 C 91 % 1017,7 hPa 0,0 l/m 0,0 km/h (0 Bft) SO 124 0 min 0,000 mm 0,0 UV-I 0 W/m 3,8 C 5,1 C 0,0 km/h (0 Bft) 95,74 %
29.04.2017 21:38 5,0 C 10,0 C 91 % 1017,8 hPa 0,0 l/m 0,0 km/h (0 Bft) SO 124 0 min 0,000 mm 0,0 UV-I 0 W/m 3,7 C 5,0 C 1,6 km/h (1 Bft) 97,37 %
29.04.2017 21:40 4,9 C 10,0 C 91 % 1017,7 hPa 0,0 l/m 0,6 km/h (0 Bft) SO 124 0 min 0,000 mm 0,0 UV-I 0 W/m 3,6 C 4,9 C 1,6 km/h (1 Bft) 94,64 %
29.04.2017 21:42 4,8 C 10,0 C 91 % 1017,7 hPa 0,0 l/m 0,1 km/h (0 Bft) SO 124 0 min 0,000 mm 0,0 UV-I 0 W/m 3,5 C 4,8 C 1,6 km/h (1 Bft) 97,87 %
29.04.2017 21:44 4,8 C 9,4 C 91 % 1017,7 hPa 0,0 l/m 0,0 km/h (0 Bft) SO 124 0 min 0,000 mm 0,0 UV-I 0 W/m 3,5 C 4,8 C 0,0 km/h (0 Bft) 97,44 %
29.04.2017 21:46 4,7 C 9,4 C 91 % 1017,7 hPa 0,0 l/m 0,0 km/h (0 Bft) SO 124 0 min 0,000 mm 0,0 UV-I 0 W/m 3,4 C 4,7 C 0,0 km/h (0 Bft) 98,00 %
29.04.2017 21:49 4,7 C 10,0 C 92 % 1017,7 hPa 0,0 l/m 0,0 km/h (0 Bft) SO 124 0 min 0,000 mm 0,0 UV-I 0 W/m 3,5 C 4,7 C 0,0 km/h (0 Bft) 97,56 %
29.04.2017 21:50 4,7 C 10,0 C 92 % 1017,7 hPa 0,0 l/m 0,0 km/h (0 Bft) SO 124 0 min 0,000 mm 0,0 UV-I 0 W/m 3,5 C 4,7 C 0,0 km/h (0 Bft) 100,00 %
29.04.2017 21:52 4,7 C 10,0 C 93 % 1017,8 hPa 0,0 l/m 0,0 km/h (0 Bft) SO 124 0 min 0,000 mm 0,0 UV-I 0 W/m 3,7 C 4,7 C 0,0 km/h (0 Bft) 94,00 %
29.04.2017 21:54 4,7 C 10,0 C 93 % 1017,8 hPa 0,0 l/m 0,0 km/h (0 Bft) SO 124 0 min 0,000 mm 0,0 UV-I 0 W/m 3,7 C 4,7 C 1,6 km/h (1 Bft) 96,23 %
29.04.2017 21:56 4,7 C 10,0 C 93 % 1017,8 hPa 0,0 l/m 1,9 km/h (1 Bft) SO 124 0 min 0,000 mm 0,0 UV-I 0 W/m 3,7 C 4,7 C 3,2 km/h (1 Bft) 100,00 %
29.04.2017 21:58 4,7 C 10,0 C 93 % 1017,8 hPa 0,0 l/m 2,8 km/h (1 Bft) SO 124 0 min 0,000 mm 0,0 UV-I 0 W/m 3,7 C 4,7 C 3,2 km/h (1 Bft) 94,00 %
29.04.2017 22:00 4,6 C 10,0 C 92 % 1017,8 hPa 0,0 l/m 3,1 km/h (1 Bft) SO 124 0 min 0,000 mm 0,0 UV-I 0 W/m 3,4 C 4,6 C 3,2 km/h (1 Bft) 94,29 %
29.04.2017 22:02 4,6 C 9,4 C 92 % 1017,7 hPa 0,0 l/m 3,4 km/h (1 Bft) SO 124 0 min 0,000 mm 0,0 UV-I 0 W/m 3,4 C 4,6 C 4,8 km/h (1 Bft) 96,23 %
29.04.2017 22:04 4,6 C 9,4 C 92 % 1017,7 hPa 0,0 l/m 1,3 km/h (1 Bft) SO 124 0 min 0,000 mm 0,0 UV-I 0 W/m 3,4 C 4,6 C 3,2 km/h (1 Bft) 100,00 %
29.04.2017 22:06 4,4 C 9,4 C 92 % 1017,7 hPa 0,0 l/m 0,4 km/h (0 Bft) SO 124 0 min 0,000 mm 0,0 UV-I 0 W/m 3,2 C 4,4 C 1,6 km/h (1 Bft) 97,87 %
29.04.2017 22:08 4,3 C 9,4 C 92 % 1017,7 hPa 0,0 l/m 0,2 km/h (0 Bft) SO 124 0 min 0,000 mm 0,0 UV-I 0 W/m 3,1 C 4,3 C 1,6 km/h (1 Bft) 90,00 %
29.04.2017 22:10 4,2 C 9,4 C 92 % 1017,7 hPa 0,0 l/m 0,0 km/h (0 Bft) SO 124 0 min 0,000 mm 0,0 UV-I 0 W/m 3,0 C 4,2 C 0,0 km/h (0 Bft) 98,00 %
29.04.2017 22:12 4,2 C 9,4 C 92 % 1017,6 hPa 0,0 l/m 0,0 km/h (0 Bft) SO 124 0 min 0,000 mm 0,0 UV-I 0 W/m 3,0 C 4,2 C 1,6 km/h (1 Bft) 100,00 %
29.04.2017 22:14 4,2 C 9,4 C 93 % 1017,7 hPa 0,0 l/m 0,7 km/h (0 Bft) SO 124 0 min 0,000 mm 0,0 UV-I 0 W/m 3,2 C 4,2 C 3,2 km/h (1 Bft) 97,14 %
29.04.2017 22:16 4,3 C 9,4 C 93 % 1017,7 hPa 0,0 l/m 3,0 km/h (1 Bft) SO 124 0 min 0,000 mm 0,0 UV-I 0 W/m 3,3 C 4,3 C 4,8 km/h (1 Bft) 94,00 %
29.04.2017 22:19 4,3 C 9,4 C 93 % 1017,6 hPa 0,0 l/m 3,5 km/h (1 Bft) SO 124 0 min 0,000 mm 0,0 UV-I 0 W/m 3,3 C 4,3 C 4,8 km/h (1 Bft) 97,40 %
29.04.2017 22:20 4,3 C 9,4 C 93 % 1017,6 hPa 0,0 l/m 3,1 km/h (1 Bft) SO 124 0 min 0,000 mm 0,0 UV-I 0 W/m 3,3 C 4,3 C 3,2 km/h (1 Bft) 100,00 %
29.04.2017 22:22 4,3 C 9,4 C 93 % 1017,6 hPa 0,0 l/m 3,1 km/h (1 Bft) SO 124 0 min 0,000 mm 0,0 UV-I 0 W/m 3,3 C 4,3 C 4,8 km/h (1 Bft) 97,73 %
29.04.2017 22:24 4,2 C 9,4 C 92 % 1017,6 hPa 0,0 l/m 0,7 km/h (0 Bft) SO 124 0 min 0,000 mm 0,0 UV-I 0 W/m 3,0 C 4,2 C 1,6 km/h (1 Bft) 92,59 %
29.04.2017 22:26 4,0 C 9,4 C 92 % 1017,6 hPa 0,0 l/m 0,0 km/h (0 Bft) SO 124 0 min 0,000 mm 0,0 UV-I 0 W/m 2,8 C 4,0 C 0,0 km/h (0 Bft) 98,39 %
29.04.2017 22:28 4,0 C 9,4 C 93 % 1017,6 hPa 0,0 l/m 0,0 km/h (0 Bft) SO 124 0 min 0,000 mm 0,0 UV-I 0 W/m 3,0 C 4,0 C 0,0 km/h (0 Bft) 95,74 %
29.04.2017 22:30 4,0 C 9,4 C 93 % 1017,6 hPa 0,0 l/m 0,0 km/h (0 Bft) SO 124 0 min 0,000 mm 0,0 UV-I 0 W/m 3,0 C 4,0 C 0,0 km/h (0 Bft) 95,74 %
29.04.2017 22:32 4,0 C 9,4 C 93 % 1017,7 hPa 0,0 l/m 0,0 km/h (0 Bft) SO 124 0 min 0,000 mm 0,0 UV-I 0 W/m 3,0 C 4,0 C 0,0 km/h (0 Bft) 96,30 %
29.04.2017 22:34 3,9 C 9,4 C 92 % 1017,7 hPa 0,0 l/m 0,0 km/h (0 Bft) SO 124 0 min 0,000 mm 0,0 UV-I 0 W/m 2,7 C 3,9 C 0,0 km/h (0 Bft) 97,87 %
29.04.2017 22:36 3,9 C 9,4 C 93 % 1017,7 hPa 0,0 l/m 0,0 km/h (0 Bft) SO 124 0 min 0,000 mm 0,0 UV-I 0 W/m 2,9 C 3,9 C 0,0 km/h (0 Bft) 100,00 %
29.04.2017 22:38 3,9 C 9,4 C 93 % 1017,6 hPa 0,0 l/m 0,0 km/h (0 Bft) SO 124 0 min 0,000 mm 0,0 UV-I 0 W/m 2,9 C 3,9 C 0,0 km/h (0 Bft) 95,74 %
29.04.2017 22:40 4,0 C 9,4 C 93 % 1017,6 hPa 0,0 l/m 0,0 km/h (0 Bft) SO 124 0 min 0,000 mm 0,0 UV-I 0 W/m 3,0 C 4,0 C 0,0 km/h (0 Bft) 100,00 %
29.04.2017 22:42 4,1 C 9,4 C 93 % 1017,7 hPa 0,0 l/m 0,0 km/h (0 Bft) SO 124 0 min 0,000 mm 0,0 UV-I 0 W/m 3,1 C 4,1 C 0,0 km/h (0 Bft) 100,00 %
29.04.2017 22:44 4,1 C 9,4 C 93 % 1017,7 hPa 0,0 l/m 0,6 km/h (0 Bft) SO 124 0 min 0,000 mm 0,0 UV-I 0 W/m 3,1 C 4,1 C 3,2 km/h (1 Bft) 100,00 %
29.04.2017 22:46 4,0 C 9,4 C 92 % 1017,6 hPa 0,0 l/m 0,5 km/h (0 Bft) SO 124 0 min 0,000 mm 0,0 UV-I 0 W/m 2,8 C 4,0 C 1,6 km/h (1 Bft) 100,00 %
29.04.2017 22:48 3,9 C 9,4 C 92 % 1017,7 hPa 0,0 l/m 0,5 km/h (0 Bft) SO 124 0 min 0,000 mm 0,0 UV-I 0 W/m 2,7 C 3,9 C 1,6 km/h (1 Bft) 97,87 %
29.04.2017 22:50 3,8 C 9,4 C 92 % 1017,6 hPa 0,0 l/m 0,0 km/h (0 Bft) SO 124 0 min 0,000 mm 0,0 UV-I 0 W/m 2,6 C 3,8 C 0,0 km/h (0 Bft) 97,37 %
29.04.2017 22:52 3,8 C 9,4 C 93 % 1017,6 hPa 0,0 l/m 0,1 km/h (0 Bft) SO 124 0 min 0,000 mm 0,0 UV-I 0 W/m 2,8 C 3,8 C 1,6 km/h (1 Bft) 98,11 %
29.04.2017 22:54 3,7 C 9,4 C 93 % 1017,6 hPa 0,0 l/m 2,1 km/h (1 Bft) SO 124 0 min 0,000 mm 0,0 UV-I 0 W/m 2,7 C 3,7 C 3,2 km/h (1 Bft) 98,00 %
29.04.2017 22:56 3,6 C 9,4 C 93 % 1017,7 hPa 0,0 l/m 2,3 km/h (1 Bft) SO 124 0 min 0,000 mm 0,0 UV-I 0 W/m 2,6 C 3,6 C 3,2 km/h (1 Bft) 97,37 %
29.04.2017 22:58 3,5 C 9,4 C 93 % 1017,7 hPa 0,0 l/m 1,7 km/h (1 Bft) SO 124 0 min 0,000 mm 0,0 UV-I 0 W/m 2,5 C 3,5 C 3,2 km/h (1 Bft) 100,00 %
29.04.2017 23:00 3,5 C 9,4 C 93 % 1017,7 hPa 0,0 l/m 0,0 km/h (0 Bft) SO 124 0 min 0,000 mm 0,0 UV-I 0 W/m 2,5 C 3,5 C 1,6 km/h (1 Bft) 98,00 %
29.04.2017 23:02 3,6 C 9,4 C 94 % 1017,6 hPa 0,0 l/m 0,0 km/h (0 Bft) SO 124 0 min 0,000 mm 0,0 UV-I 0 W/m 2,7 C 3,6 C 0,0 km/h (0 Bft) 93,62 %
29.04.2017 23:04 3,6 C 9,4 C 94 % 1017,6 hPa 0,0 l/m 1,7 km/h (1 Bft) SO 124 0 min 0,000 mm 0,0 UV-I 0 W/m 2,7 C 3,6 C 3,2 km/h (1 Bft) 95,12 %
29.04.2017 23:06 3,6 C 9,4 C 94 % 1017,7 hPa 0,0 l/m 2,6 km/h (1 Bft) SO 124 0 min 0,000 mm 0,0 UV-I 0 W/m 2,7 C 3,6 C 3,2 km/h (1 Bft) 96,23 %
29.04.2017 23:08 3,5 C 9,4 C 94 % 1017,7 hPa 0,0 l/m 2,3 km/h (1 Bft) SO 124 0 min 0,000 mm 0,0 UV-I 0 W/m 2,6 C 3,5 C 3,2 km/h (1 Bft) 92,31 %
29.04.2017 23:10 3,4 C 9,4 C 93 % 1017,7 hPa 0,0 l/m 1,3 km/h (1 Bft) SO 124 0 min 0,000 mm 0,0 UV-I 0 W/m 2,4 C 3,4 C 3,2 km/h (1 Bft) 93,62 %
29.04.2017 23:12 3,4 C 9,4 C 94 % 1017,6 hPa 0,0 l/m 1,2 km/h (1 Bft) SO 124 0 min 0,000 mm 0,0 UV-I 0 W/m 2,5 C 3,4 C 3,2 km/h (1 Bft) 94,00 %
29.04.2017 23:14 3,4 C 9,4 C 94 % 1017,6 hPa 0,0 l/m 0,4 km/h (0 Bft) SO 124 0 min 0,000 mm 0,0 UV-I 0 W/m 2,5 C 3,4 C 1,6 km/h (1 Bft) 91,49 %
29.04.2017 23:16 3,3 C 9,4 C 94 % 1017,6 hPa 0,0 l/m 1,6 km/h (1 Bft) SO 124 0 min 0,000 mm 0,0 UV-I 0 W/m 2,4 C 3,3 C 3,2 km/h (1 Bft) 95,74 %
29.04.2017 23:18 3,2 C 9,4 C 94 % 1017,7 hPa 0,0 l/m 1,4 km/h (1 Bft) SO 124 0 min 0,000 mm 0,0 UV-I 0 W/m 2,3 C 3,2 C 3,2 km/h (1 Bft) 92,68 %
29.04.2017 23:20 3,2 C 9,4 C 94 % 1017,7 hPa 0,0 l/m 0,9 km/h (0 Bft) SO 124 0 min 0,000 mm 0,0 UV-I 0 W/m 2,3 C 3,2 C 1,6 km/h (1 Bft) 92,86 %
29.04.2017 23:22 3,2 C 9,4 C 94 % 1017,7 hPa 0,0 l/m 0,2 km/h (0 Bft) SO 124 0 min 0,000 mm 0,0 UV-I 0 W/m 2,3 C 3,2 C 1,6 km/h (1 Bft) 92,11 %
29.04.2017 23:24 3,2 C 9,4 C 94 % 1017,7 hPa 0,0 l/m 0,0 km/h (0 Bft) SO 124 0 min 0,000 mm 0,0 UV-I 0 W/m 2,3 C 3,2 C 0,0 km/h (0 Bft) 96,00 %
29.04.2017 23:26 3,2 C 9,4 C 94 % 1017,6 hPa 0,0 l/m 0,2 km/h (0 Bft) SO 124 0 min 0,000 mm 0,0 UV-I 0 W/m 2,3 C 3,2 C 1,6 km/h (1 Bft) 96,00 %
29.04.2017 23:28 3,3 C 9,4 C 94 % 1017,7 hPa 0,0 l/m 0,6 km/h (0 Bft) SO 124 0 min 0,000 mm 0,0 UV-I 0 W/m 2,4 C 3,3 C 1,6 km/h (1 Bft) 95,74 %
29.04.2017 23:30 3,3 C 9,4 C 94 % 1017,8 hPa 0,0 l/m 1,9 km/h (1 Bft) SO 124 0 min 0,000 mm 0,0 UV-I 0 W/m 2,4 C 3,3 C 3,2 km/h (1 Bft) 92,00 %
29.04.2017 23:32 3,3 C 9,4 C 94 % 1017,8 hPa 0,0 l/m 0,9 km/h (0 Bft) SO 124 0 min 0,000 mm 0,0 UV-I 0 W/m 2,4 C 3,3 C 3,2 km/h (1 Bft) 95,12 %
29.04.2017 23:34 3,3 C 9,4 C 94 % 1017,7 hPa 0,0 l/m 0,0 km/h (0 Bft) SO 124 0 min 0,000 mm 0,0 UV-I 0 W/m 2,4 C 3,3 C 0,0 km/h (0 Bft) 96,00 %
29.04.2017 23:36 3,3 C 9,4 C 94 % 1017,8 hPa 0,0 l/m 0,0 km/h (0 Bft) SO 124 0 min 0,000 mm 0,0 UV-I 0 W/m 2,4 C 3,3 C 0,0 km/h (0 Bft) 94,00 %
29.04.2017 23:38 3,3 C 9,4 C 94 % 1017,7 hPa 0,0 l/m 0,0 km/h (0 Bft) SO 124 0 min 0,000 mm 0,0 UV-I 0 W/m 2,4 C 3,3 C 0,0 km/h (0 Bft) 94,29 %
29.04.2017 23:40 3,3 C 9,4 C 94 % 1017,8 hPa 0,0 l/m 0,0 km/h (0 Bft) SO 124 0 min 0,000 mm 0,0 UV-I 0 W/m 2,4 C 3,3 C 0,0 km/h (0 Bft) 90,00 %
29.04.2017 23:42 3,2 C 9,4 C 94 % 1017,7 hPa 0,0 l/m 0,0 km/h (0 Bft) SO 124 0 min 0,000 mm 0,0 UV-I 0 W/m 2,3 C 3,2 C 0,0 km/h (0 Bft) 95,74 %
29.04.2017 23:44 3,2 C 9,4 C 94 % 1017,7 hPa 0,0 l/m 0,0 km/h (0 Bft) SO 124 0 min 0,000 mm 0,0 UV-I 0 W/m 2,3 C 3,2 C 0,0 km/h (0 Bft) 95,74 %
29.04.2017 23:46 3,1 C 9,4 C 94 % 1017,8 hPa 0,0 l/m 0,0 km/h (0 Bft) SO 124 0 min 0,000 mm 0,0 UV-I 0 W/m 2,2 C 3,1 C 0,0 km/h (0 Bft) 98,00 %
29.04.2017 23:49 2,8 C 9,4 C 94 % 1017,6 hPa 0,0 l/m 1,3 km/h (1 Bft) SO 124 0 min 0,000 mm 0,0 UV-I 0 W/m 1,9 C 2,8 C 3,2 km/h (1 Bft) 93,85 %
29.04.2017 23:50 2,7 C 9,4 C 94 % 1017,6 hPa 0,0 l/m 0,1 km/h (0 Bft) SO 124 0 min 0,000 mm 0,0 UV-I 0 W/m 1,8 C 2,7 C 1,6 km/h (1 Bft) 92,59 %
29.04.2017 23:52 2,6 C 9,4 C 94 % 1017,6 hPa 0,0 l/m 0,2 km/h (0 Bft) SO 124 0 min 0,000 mm 0,0 UV-I 0 W/m 1,7 C 2,6 C 1,6 km/h (1 Bft) 98,00 %
29.04.2017 23:54 2,5 C 9,4 C 94 % 1017,6 hPa 0,0 l/m 2,4 km/h (1 Bft) SO 124 0 min 0,000 mm 0,0 UV-I 0 W/m 1,6 C 2,5 C 3,2 km/h (1 Bft) 95,12 %
29.04.2017 23:56 2,6 C 9,4 C 95 % 1017,6 hPa 0,0 l/m 3,4 km/h (1 Bft) SO 124 0 min 0,000 mm 0,0 UV-I 0 W/m 1,9 C 2,6 C 4,8 km/h (1 Bft) 97,87 %
29.04.2017 23:58 2,6 C 9,4 C 95 % 1017,6 hPa 0,0 l/m 3,6 km/h (1 Bft) SO 124 0 min 0,000 mm 0,0 UV-I 0 W/m 1,9 C 2,6 C 4,8 km/h (1 Bft) 94,00 %
_ Min-Zeit 00:00 00:00 16:34 18:58 - 14:36 - - - - - - 23:54 00:18 14:36 00:02
Minimum _ 2,5 C 8,3 C 55 % 1017,3 hPa - 0,0 km/h (0 Bft) - - - - - - 1,6 C -3,9 C 0,0 km/h (0 Bft) 9,52 %
_ Max-Zeit 16:24 16:12 00:00 09:44 14:08 01:28 - - 19:19 13:00 12:04 13:22 15:18 16:24 00:18 00:30
Maximum _ 11,1 C 10,0 C 96 % 1019,7 hPa 0,4 l/m 15,2 km/h
W-SW (3 Bft)
- - 3 min 0,229 mm 3,8 UV-I 1085 W/m 5,8 C 11,1 C 22,5 km/h
SW (4 Bft)
100,00 %
Durchschnitt _ 6,1 C 9,0 C 85 % 1018,4 hPa #2,6 l/m 4,9 km/h (1 Bft) W-SW - #5:13 h #1,905 mm 1,4 UV-I 271 W/m 3,6 C 5,3 C 8,4 km/h (2 Bft) 96,48 %